<?xml version="1.0" encoding="UTF-8" standalone="no" ?>
<gpx xmlns="http://www.topografix.com/GPX/1/1" xmlns:xsi="http://www.w3.org/2001/XMLSchema-instance" xsi:schemaLocation="http://www.topografix.com/GPX/1/1 http://www.topografix.com/GPX/1/1/gpx.xsd" version="1.1" creator="VisuGPX - https://www.visugpx.com">
  <metadata>
    <name>Sortie Qrt Bertrix  2015 (Fev )</name>
    <desc><![CDATA[Petite sortie pendant les heures de sport autorisé]]></desc>
  </metadata>
  <trk>
    <name><![CDATA[solo scooby]]></name>
    <cmt><![CDATA[AVG 03° MAX 19° MIN 02°]]></cmt>
    <trkseg>
      <trkpt lat="49.87956" lon="5.24016">
        <ele>488</ele>
        <time>2015-02-24T09:17:33Z</time>
      </trkpt>
      <trkpt lat="49.87955" lon="5.24012">
        <ele>487</ele>
        <time>2015-02-24T09:17:38Z</time>
      </trkpt>
      <trkpt lat="49.87955" lon="5.24004">
        <ele>487</ele>
        <time>2015-02-24T09:17:43Z</time>
      </trkpt>
      <trkpt lat="49.87956" lon="5.23996">
        <ele>487</ele>
        <time>2015-02-24T09:17:48Z</time>
      </trkpt>
      <trkpt lat="49.87956" lon="5.23987">
        <ele>487</ele>
        <time>2015-02-24T09:17:53Z</time>
      </trkpt>
      <trkpt lat="49.87956" lon="5.23982">
        <ele>487</ele>
        <time>2015-02-24T09:17:58Z</time>
      </trkpt>
      <trkpt lat="49.87956" lon="5.23979">
        <ele>487</ele>
        <time>2015-02-24T09:18:03Z</time>
      </trkpt>
      <trkpt lat="49.87954" lon="5.23975">
        <ele>487</ele>
        <time>2015-02-24T09:18:08Z</time>
      </trkpt>
      <trkpt lat="49.87951" lon="5.23971">
        <ele>486</ele>
        <time>2015-02-24T09:18:13Z</time>
      </trkpt>
      <trkpt lat="49.87946" lon="5.23965">
        <ele>487</ele>
        <time>2015-02-24T09:18:19Z</time>
      </trkpt>
      <trkpt lat="49.87942" lon="5.23961">
        <ele>486</ele>
        <time>2015-02-24T09:18:24Z</time>
      </trkpt>
      <trkpt lat="49.8794" lon="5.23957">
        <ele>485</ele>
        <time>2015-02-24T09:18:29Z</time>
      </trkpt>
      <trkpt lat="49.87936" lon="5.23951">
        <ele>486</ele>
        <time>2015-02-24T09:18:35Z</time>
      </trkpt>
      <trkpt lat="49.87931" lon="5.23946">
        <ele>487</ele>
        <time>2015-02-24T09:18:40Z</time>
      </trkpt>
      <trkpt lat="49.87925" lon="5.2394">
        <ele>486</ele>
        <time>2015-02-24T09:18:45Z</time>
      </trkpt>
      <trkpt lat="49.87925" lon="5.2393">
        <ele>485</ele>
        <time>2015-02-24T09:18:50Z</time>
      </trkpt>
      <trkpt lat="49.87927" lon="5.23921">
        <ele>486</ele>
        <time>2015-02-24T09:18:55Z</time>
      </trkpt>
      <trkpt lat="49.8793" lon="5.2391">
        <ele>485</ele>
        <time>2015-02-24T09:19:01Z</time>
      </trkpt>
      <trkpt lat="49.87933" lon="5.239">
        <ele>485</ele>
        <time>2015-02-24T09:19:06Z</time>
      </trkpt>
      <trkpt lat="49.87936" lon="5.23891">
        <ele>485</ele>
        <time>2015-02-24T09:19:11Z</time>
      </trkpt>
      <trkpt lat="49.87938" lon="5.23881">
        <ele>485</ele>
        <time>2015-02-24T09:19:16Z</time>
      </trkpt>
      <trkpt lat="49.87941" lon="5.23872">
        <ele>485</ele>
        <time>2015-02-24T09:19:21Z</time>
      </trkpt>
      <trkpt lat="49.87944" lon="5.23863">
        <ele>484</ele>
        <time>2015-02-24T09:19:26Z</time>
      </trkpt>
      <trkpt lat="49.87946" lon="5.23853">
        <ele>483</ele>
        <time>2015-02-24T09:19:31Z</time>
      </trkpt>
      <trkpt lat="49.87951" lon="5.23841">
        <ele>484</ele>
        <time>2015-02-24T09:19:37Z</time>
      </trkpt>
      <trkpt lat="49.87954" lon="5.2383">
        <ele>484</ele>
        <time>2015-02-24T09:19:43Z</time>
      </trkpt>
      <trkpt lat="49.87956" lon="5.23821">
        <ele>484</ele>
        <time>2015-02-24T09:19:48Z</time>
      </trkpt>
      <trkpt lat="49.87959" lon="5.23811">
        <ele>484</ele>
        <time>2015-02-24T09:19:53Z</time>
      </trkpt>
      <trkpt lat="49.87962" lon="5.23803">
        <ele>483</ele>
        <time>2015-02-24T09:19:58Z</time>
      </trkpt>
      <trkpt lat="49.87966" lon="5.23792">
        <ele>484</ele>
        <time>2015-02-24T09:20:04Z</time>
      </trkpt>
      <trkpt lat="49.87969" lon="5.23783">
        <ele>484</ele>
        <time>2015-02-24T09:20:09Z</time>
      </trkpt>
      <trkpt lat="49.87973" lon="5.23772">
        <ele>484</ele>
        <time>2015-02-24T09:20:15Z</time>
      </trkpt>
      <trkpt lat="49.87976" lon="5.23765">
        <ele>483</ele>
        <time>2015-02-24T09:20:20Z</time>
      </trkpt>
      <trkpt lat="49.8798" lon="5.23754">
        <ele>483</ele>
        <time>2015-02-24T09:20:26Z</time>
      </trkpt>
      <trkpt lat="49.87984" lon="5.23746">
        <ele>483</ele>
        <time>2015-02-24T09:20:31Z</time>
      </trkpt>
      <trkpt lat="49.87988" lon="5.23739">
        <ele>482</ele>
        <time>2015-02-24T09:20:36Z</time>
      </trkpt>
      <trkpt lat="49.87992" lon="5.23732">
        <ele>482</ele>
        <time>2015-02-24T09:20:41Z</time>
      </trkpt>
      <trkpt lat="49.87997" lon="5.23725">
        <ele>482</ele>
        <time>2015-02-24T09:20:46Z</time>
      </trkpt>
      <trkpt lat="49.88002" lon="5.23716">
        <ele>482</ele>
        <time>2015-02-24T09:20:52Z</time>
      </trkpt>
      <trkpt lat="49.88005" lon="5.23708">
        <ele>482</ele>
        <time>2015-02-24T09:20:57Z</time>
      </trkpt>
      <trkpt lat="49.8801" lon="5.23699">
        <ele>482</ele>
        <time>2015-02-24T09:21:02Z</time>
      </trkpt>
      <trkpt lat="49.88013" lon="5.23691">
        <ele>482</ele>
        <time>2015-02-24T09:21:07Z</time>
      </trkpt>
      <trkpt lat="49.88017" lon="5.23681">
        <ele>482</ele>
        <time>2015-02-24T09:21:12Z</time>
      </trkpt>
      <trkpt lat="49.88021" lon="5.23672">
        <ele>482</ele>
        <time>2015-02-24T09:21:17Z</time>
      </trkpt>
      <trkpt lat="49.88028" lon="5.2366">
        <ele>481</ele>
        <time>2015-02-24T09:21:23Z</time>
      </trkpt>
      <trkpt lat="49.88032" lon="5.2365">
        <ele>481</ele>
        <time>2015-02-24T09:21:28Z</time>
      </trkpt>
      <trkpt lat="49.88038" lon="5.2364">
        <ele>481</ele>
        <time>2015-02-24T09:21:33Z</time>
      </trkpt>
      <trkpt lat="49.88044" lon="5.2363">
        <ele>481</ele>
        <time>2015-02-24T09:21:39Z</time>
      </trkpt>
      <trkpt lat="49.88049" lon="5.23625">
        <ele>480</ele>
        <time>2015-02-24T09:21:44Z</time>
      </trkpt>
      <trkpt lat="49.88055" lon="5.23628">
        <ele>480</ele>
        <time>2015-02-24T09:21:50Z</time>
      </trkpt>
      <trkpt lat="49.8806" lon="5.23633">
        <ele>479</ele>
        <time>2015-02-24T09:21:55Z</time>
      </trkpt>
      <trkpt lat="49.88066" lon="5.2364">
        <ele>479</ele>
        <time>2015-02-24T09:22:01Z</time>
      </trkpt>
      <trkpt lat="49.8807" lon="5.23646">
        <ele>478</ele>
        <time>2015-02-24T09:22:06Z</time>
      </trkpt>
      <trkpt lat="49.88075" lon="5.23653">
        <ele>478</ele>
        <time>2015-02-24T09:22:12Z</time>
      </trkpt>
      <trkpt lat="49.88079" lon="5.2366">
        <ele>478</ele>
        <time>2015-02-24T09:22:17Z</time>
      </trkpt>
      <trkpt lat="49.88084" lon="5.23665">
        <ele>478</ele>
        <time>2015-02-24T09:22:22Z</time>
      </trkpt>
      <trkpt lat="49.88088" lon="5.23671">
        <ele>477</ele>
        <time>2015-02-24T09:22:28Z</time>
      </trkpt>
      <trkpt lat="49.88089" lon="5.23673">
        <ele>478</ele>
        <time>2015-02-24T09:22:33Z</time>
      </trkpt>
      <trkpt lat="49.88092" lon="5.2368">
        <ele>478</ele>
        <time>2015-02-24T09:22:38Z</time>
      </trkpt>
      <trkpt lat="49.88095" lon="5.23685">
        <ele>478</ele>
        <time>2015-02-24T09:22:43Z</time>
      </trkpt>
      <trkpt lat="49.88099" lon="5.2369">
        <ele>478</ele>
        <time>2015-02-24T09:22:49Z</time>
      </trkpt>
      <trkpt lat="49.88105" lon="5.23693">
        <ele>478</ele>
        <time>2015-02-24T09:22:55Z</time>
      </trkpt>
      <trkpt lat="49.88107" lon="5.23696">
        <ele>478</ele>
        <time>2015-02-24T09:23:00Z</time>
      </trkpt>
      <trkpt lat="49.88108" lon="5.23703">
        <ele>478</ele>
        <time>2015-02-24T09:23:06Z</time>
      </trkpt>
      <trkpt lat="49.88111" lon="5.23709">
        <ele>478</ele>
        <time>2015-02-24T09:23:11Z</time>
      </trkpt>
      <trkpt lat="49.88115" lon="5.23719">
        <ele>478</ele>
        <time>2015-02-24T09:23:17Z</time>
      </trkpt>
      <trkpt lat="49.88119" lon="5.23727">
        <ele>478</ele>
        <time>2015-02-24T09:23:22Z</time>
      </trkpt>
      <trkpt lat="49.88124" lon="5.23735">
        <ele>478</ele>
        <time>2015-02-24T09:23:28Z</time>
      </trkpt>
      <trkpt lat="49.88129" lon="5.23743">
        <ele>478</ele>
        <time>2015-02-24T09:23:33Z</time>
      </trkpt>
      <trkpt lat="49.88135" lon="5.23751">
        <ele>478</ele>
        <time>2015-02-24T09:23:38Z</time>
      </trkpt>
      <trkpt lat="49.8814" lon="5.23759">
        <ele>478</ele>
        <time>2015-02-24T09:23:43Z</time>
      </trkpt>
      <trkpt lat="49.88145" lon="5.23768">
        <ele>478</ele>
        <time>2015-02-24T09:23:49Z</time>
      </trkpt>
      <trkpt lat="49.88149" lon="5.23774">
        <ele>478</ele>
        <time>2015-02-24T09:23:54Z</time>
      </trkpt>
      <trkpt lat="49.88155" lon="5.23784">
        <ele>478</ele>
        <time>2015-02-24T09:24:00Z</time>
      </trkpt>
      <trkpt lat="49.88159" lon="5.23793">
        <ele>478</ele>
        <time>2015-02-24T09:24:06Z</time>
      </trkpt>
      <trkpt lat="49.88163" lon="5.23801">
        <ele>478</ele>
        <time>2015-02-24T09:24:11Z</time>
      </trkpt>
      <trkpt lat="49.88167" lon="5.23813">
        <ele>478</ele>
        <time>2015-02-24T09:24:16Z</time>
      </trkpt>
      <trkpt lat="49.88171" lon="5.23825">
        <ele>478</ele>
        <time>2015-02-24T09:24:21Z</time>
      </trkpt>
      <trkpt lat="49.88177" lon="5.23839">
        <ele>478</ele>
        <time>2015-02-24T09:24:27Z</time>
      </trkpt>
      <trkpt lat="49.8818" lon="5.23849">
        <ele>478</ele>
        <time>2015-02-24T09:24:32Z</time>
      </trkpt>
      <trkpt lat="49.88184" lon="5.2386">
        <ele>478</ele>
        <time>2015-02-24T09:24:38Z</time>
      </trkpt>
      <trkpt lat="49.88187" lon="5.23868">
        <ele>478</ele>
        <time>2015-02-24T09:24:43Z</time>
      </trkpt>
      <trkpt lat="49.88189" lon="5.23878">
        <ele>477</ele>
        <time>2015-02-24T09:24:49Z</time>
      </trkpt>
      <trkpt lat="49.8819" lon="5.23886">
        <ele>478</ele>
        <time>2015-02-24T09:24:54Z</time>
      </trkpt>
      <trkpt lat="49.88193" lon="5.23893">
        <ele>478</ele>
        <time>2015-02-24T09:24:59Z</time>
      </trkpt>
      <trkpt lat="49.88197" lon="5.23903">
        <ele>477</ele>
        <time>2015-02-24T09:25:05Z</time>
      </trkpt>
      <trkpt lat="49.882" lon="5.23911">
        <ele>478</ele>
        <time>2015-02-24T09:25:10Z</time>
      </trkpt>
      <trkpt lat="49.88202" lon="5.23917">
        <ele>478</ele>
        <time>2015-02-24T09:25:15Z</time>
      </trkpt>
      <trkpt lat="49.88203" lon="5.23924">
        <ele>477</ele>
        <time>2015-02-24T09:25:21Z</time>
      </trkpt>
      <trkpt lat="49.88205" lon="5.23931">
        <ele>478</ele>
        <time>2015-02-24T09:25:26Z</time>
      </trkpt>
      <trkpt lat="49.88208" lon="5.23939">
        <ele>478</ele>
        <time>2015-02-24T09:25:31Z</time>
      </trkpt>
      <trkpt lat="49.88209" lon="5.23947">
        <ele>478</ele>
        <time>2015-02-24T09:25:37Z</time>
      </trkpt>
      <trkpt lat="49.88211" lon="5.23954">
        <ele>478</ele>
        <time>2015-02-24T09:25:42Z</time>
      </trkpt>
      <trkpt lat="49.88212" lon="5.23961">
        <ele>478</ele>
        <time>2015-02-24T09:25:47Z</time>
      </trkpt>
      <trkpt lat="49.88213" lon="5.23971">
        <ele>478</ele>
        <time>2015-02-24T09:25:53Z</time>
      </trkpt>
      <trkpt lat="49.88215" lon="5.2398">
        <ele>478</ele>
        <time>2015-02-24T09:25:58Z</time>
      </trkpt>
      <trkpt lat="49.88216" lon="5.23988">
        <ele>478</ele>
        <time>2015-02-24T09:26:04Z</time>
      </trkpt>
      <trkpt lat="49.88221" lon="5.23994">
        <ele>478</ele>
        <time>2015-02-24T09:26:10Z</time>
      </trkpt>
      <trkpt lat="49.88226" lon="5.24">
        <ele>478</ele>
        <time>2015-02-24T09:26:16Z</time>
      </trkpt>
      <trkpt lat="49.88232" lon="5.24004">
        <ele>477</ele>
        <time>2015-02-24T09:26:21Z</time>
      </trkpt>
      <trkpt lat="49.88237" lon="5.24008">
        <ele>477</ele>
        <time>2015-02-24T09:26:27Z</time>
      </trkpt>
      <trkpt lat="49.88243" lon="5.24011">
        <ele>477</ele>
        <time>2015-02-24T09:26:32Z</time>
      </trkpt>
      <trkpt lat="49.88249" lon="5.24014">
        <ele>477</ele>
        <time>2015-02-24T09:26:38Z</time>
      </trkpt>
      <trkpt lat="49.88254" lon="5.24017">
        <ele>477</ele>
        <time>2015-02-24T09:26:43Z</time>
      </trkpt>
      <trkpt lat="49.8826" lon="5.24018">
        <ele>477</ele>
        <time>2015-02-24T09:26:48Z</time>
      </trkpt>
      <trkpt lat="49.88265" lon="5.24022">
        <ele>477</ele>
        <time>2015-02-24T09:26:53Z</time>
      </trkpt>
      <trkpt lat="49.88269" lon="5.24026">
        <ele>477</ele>
        <time>2015-02-24T09:26:58Z</time>
      </trkpt>
      <trkpt lat="49.88275" lon="5.24032">
        <ele>477</ele>
        <time>2015-02-24T09:27:04Z</time>
      </trkpt>
      <trkpt lat="49.88279" lon="5.24037">
        <ele>477</ele>
        <time>2015-02-24T09:27:09Z</time>
      </trkpt>
      <trkpt lat="49.88285" lon="5.24041">
        <ele>477</ele>
        <time>2015-02-24T09:27:14Z</time>
      </trkpt>
      <trkpt lat="49.8829" lon="5.24045">
        <ele>477</ele>
        <time>2015-02-24T09:27:19Z</time>
      </trkpt>
      <trkpt lat="49.88295" lon="5.2405">
        <ele>478</ele>
        <time>2015-02-24T09:27:25Z</time>
      </trkpt>
      <trkpt lat="49.883" lon="5.24055">
        <ele>478</ele>
        <time>2015-02-24T09:27:30Z</time>
      </trkpt>
      <trkpt lat="49.88305" lon="5.24062">
        <ele>478</ele>
        <time>2015-02-24T09:27:36Z</time>
      </trkpt>
      <trkpt lat="49.88311" lon="5.24067">
        <ele>478</ele>
        <time>2015-02-24T09:27:41Z</time>
      </trkpt>
      <trkpt lat="49.88318" lon="5.24073">
        <ele>478</ele>
        <time>2015-02-24T09:27:47Z</time>
      </trkpt>
      <trkpt lat="49.88322" lon="5.24079">
        <ele>479</ele>
        <time>2015-02-24T09:27:52Z</time>
      </trkpt>
      <trkpt lat="49.88329" lon="5.24085">
        <ele>479</ele>
        <time>2015-02-24T09:27:58Z</time>
      </trkpt>
      <trkpt lat="49.88334" lon="5.2409">
        <ele>479</ele>
        <time>2015-02-24T09:28:04Z</time>
      </trkpt>
      <trkpt lat="49.88339" lon="5.24096">
        <ele>479</ele>
        <time>2015-02-24T09:28:10Z</time>
      </trkpt>
      <trkpt lat="49.88344" lon="5.24101">
        <ele>478</ele>
        <time>2015-02-24T09:28:15Z</time>
      </trkpt>
      <trkpt lat="49.88347" lon="5.24107">
        <ele>479</ele>
        <time>2015-02-24T09:28:20Z</time>
      </trkpt>
      <trkpt lat="49.88352" lon="5.24113">
        <ele>479</ele>
        <time>2015-02-24T09:28:26Z</time>
      </trkpt>
      <trkpt lat="49.88357" lon="5.24119">
        <ele>478</ele>
        <time>2015-02-24T09:28:31Z</time>
      </trkpt>
      <trkpt lat="49.88361" lon="5.24124">
        <ele>478</ele>
        <time>2015-02-24T09:28:36Z</time>
      </trkpt>
      <trkpt lat="49.88366" lon="5.2413">
        <ele>479</ele>
        <time>2015-02-24T09:28:42Z</time>
      </trkpt>
      <trkpt lat="49.8837" lon="5.24135">
        <ele>479</ele>
        <time>2015-02-24T09:28:47Z</time>
      </trkpt>
      <trkpt lat="49.88375" lon="5.24139">
        <ele>479</ele>
        <time>2015-02-24T09:28:52Z</time>
      </trkpt>
      <trkpt lat="49.8838" lon="5.24145">
        <ele>479</ele>
        <time>2015-02-24T09:28:58Z</time>
      </trkpt>
      <trkpt lat="49.88385" lon="5.2415">
        <ele>479</ele>
        <time>2015-02-24T09:29:03Z</time>
      </trkpt>
      <trkpt lat="49.8839" lon="5.24156">
        <ele>479</ele>
        <time>2015-02-24T09:29:09Z</time>
      </trkpt>
      <trkpt lat="49.88395" lon="5.24162">
        <ele>478</ele>
        <time>2015-02-24T09:29:14Z</time>
      </trkpt>
      <trkpt lat="49.884" lon="5.2417">
        <ele>479</ele>
        <time>2015-02-24T09:29:20Z</time>
      </trkpt>
      <trkpt lat="49.88403" lon="5.24177">
        <ele>479</ele>
        <time>2015-02-24T09:29:25Z</time>
      </trkpt>
      <trkpt lat="49.88408" lon="5.24184">
        <ele>479</ele>
        <time>2015-02-24T09:29:30Z</time>
      </trkpt>
      <trkpt lat="49.88411" lon="5.24192">
        <ele>479</ele>
        <time>2015-02-24T09:29:35Z</time>
      </trkpt>
      <trkpt lat="49.88415" lon="5.24201">
        <ele>479</ele>
        <time>2015-02-24T09:29:41Z</time>
      </trkpt>
      <trkpt lat="49.88418" lon="5.24209">
        <ele>479</ele>
        <time>2015-02-24T09:29:46Z</time>
      </trkpt>
      <trkpt lat="49.88421" lon="5.24218">
        <ele>479</ele>
        <time>2015-02-24T09:29:52Z</time>
      </trkpt>
      <trkpt lat="49.88422" lon="5.24225">
        <ele>479</ele>
        <time>2015-02-24T09:29:57Z</time>
      </trkpt>
      <trkpt lat="49.88424" lon="5.24233">
        <ele>480</ele>
        <time>2015-02-24T09:30:02Z</time>
      </trkpt>
      <trkpt lat="49.88425" lon="5.24243">
        <ele>480</ele>
        <time>2015-02-24T09:30:08Z</time>
      </trkpt>
      <trkpt lat="49.88424" lon="5.24253">
        <ele>480</ele>
        <time>2015-02-24T09:30:13Z</time>
      </trkpt>
      <trkpt lat="49.88424" lon="5.24264">
        <ele>480</ele>
        <time>2015-02-24T09:30:19Z</time>
      </trkpt>
      <trkpt lat="49.88425" lon="5.24275">
        <ele>480</ele>
        <time>2015-02-24T09:30:25Z</time>
      </trkpt>
      <trkpt lat="49.88427" lon="5.24284">
        <ele>480</ele>
        <time>2015-02-24T09:30:30Z</time>
      </trkpt>
      <trkpt lat="49.88429" lon="5.24293">
        <ele>480</ele>
        <time>2015-02-24T09:30:35Z</time>
      </trkpt>
      <trkpt lat="49.88432" lon="5.24302">
        <ele>480</ele>
        <time>2015-02-24T09:30:40Z</time>
      </trkpt>
      <trkpt lat="49.88434" lon="5.24311">
        <ele>480</ele>
        <time>2015-02-24T09:30:45Z</time>
      </trkpt>
      <trkpt lat="49.88437" lon="5.2432">
        <ele>480</ele>
        <time>2015-02-24T09:30:50Z</time>
      </trkpt>
      <trkpt lat="49.8844" lon="5.2433">
        <ele>481</ele>
        <time>2015-02-24T09:30:56Z</time>
      </trkpt>
      <trkpt lat="49.88443" lon="5.24337">
        <ele>481</ele>
        <time>2015-02-24T09:31:01Z</time>
      </trkpt>
      <trkpt lat="49.88446" lon="5.24345">
        <ele>481</ele>
        <time>2015-02-24T09:31:07Z</time>
      </trkpt>
      <trkpt lat="49.88449" lon="5.24349">
        <ele>481</ele>
        <time>2015-02-24T09:31:12Z</time>
      </trkpt>
      <trkpt lat="49.8845" lon="5.24353">
        <ele>480</ele>
        <time>2015-02-24T09:31:17Z</time>
      </trkpt>
      <trkpt lat="49.8845" lon="5.24355">
        <ele>480</ele>
        <time>2015-02-24T09:31:23Z</time>
      </trkpt>
      <trkpt lat="49.88449" lon="5.24355">
        <ele>480</ele>
        <time>2015-02-24T09:31:28Z</time>
      </trkpt>
      <trkpt lat="49.88447" lon="5.24355">
        <ele>480</ele>
        <time>2015-02-24T09:31:34Z</time>
      </trkpt>
      <trkpt lat="49.88446" lon="5.24355">
        <ele>480</ele>
        <time>2015-02-24T09:31:39Z</time>
      </trkpt>
      <trkpt lat="49.88445" lon="5.24356">
        <ele>481</ele>
        <time>2015-02-24T09:31:45Z</time>
      </trkpt>
      <trkpt lat="49.88446" lon="5.24357">
        <ele>481</ele>
        <time>2015-02-24T09:31:50Z</time>
      </trkpt>
      <trkpt lat="49.88447" lon="5.24359">
        <ele>481</ele>
        <time>2015-02-24T09:31:55Z</time>
      </trkpt>
      <trkpt lat="49.88449" lon="5.24359">
        <ele>481</ele>
        <time>2015-02-24T09:32:00Z</time>
      </trkpt>
      <trkpt lat="49.88451" lon="5.24359">
        <ele>481</ele>
        <time>2015-02-24T09:32:06Z</time>
      </trkpt>
      <trkpt lat="49.88453" lon="5.24361">
        <ele>481</ele>
        <time>2015-02-24T09:32:11Z</time>
      </trkpt>
      <trkpt lat="49.88455" lon="5.24367">
        <ele>481</ele>
        <time>2015-02-24T09:32:17Z</time>
      </trkpt>
      <trkpt lat="49.88456" lon="5.24375">
        <ele>481</ele>
        <time>2015-02-24T09:32:23Z</time>
      </trkpt>
      <trkpt lat="49.88457" lon="5.24384">
        <ele>481</ele>
        <time>2015-02-24T09:32:29Z</time>
      </trkpt>
      <trkpt lat="49.88457" lon="5.24393">
        <ele>481</ele>
        <time>2015-02-24T09:32:34Z</time>
      </trkpt>
      <trkpt lat="49.88458" lon="5.24402">
        <ele>481</ele>
        <time>2015-02-24T09:32:40Z</time>
      </trkpt>
      <trkpt lat="49.88459" lon="5.24411">
        <ele>482</ele>
        <time>2015-02-24T09:32:45Z</time>
      </trkpt>
      <trkpt lat="49.8846" lon="5.2442">
        <ele>482</ele>
        <time>2015-02-24T09:32:51Z</time>
      </trkpt>
      <trkpt lat="49.88462" lon="5.2443">
        <ele>483</ele>
        <time>2015-02-24T09:32:57Z</time>
      </trkpt>
      <trkpt lat="49.88462" lon="5.24438">
        <ele>483</ele>
        <time>2015-02-24T09:33:03Z</time>
      </trkpt>
      <trkpt lat="49.88462" lon="5.24448">
        <ele>483</ele>
        <time>2015-02-24T09:33:08Z</time>
      </trkpt>
      <trkpt lat="49.88462" lon="5.24459">
        <ele>484</ele>
        <time>2015-02-24T09:33:14Z</time>
      </trkpt>
      <trkpt lat="49.88462" lon="5.24469">
        <ele>484</ele>
        <time>2015-02-24T09:33:19Z</time>
      </trkpt>
      <trkpt lat="49.88463" lon="5.24479">
        <ele>484</ele>
        <time>2015-02-24T09:33:25Z</time>
      </trkpt>
      <trkpt lat="49.88464" lon="5.24488">
        <ele>485</ele>
        <time>2015-02-24T09:33:31Z</time>
      </trkpt>
      <trkpt lat="49.88462" lon="5.24498">
        <ele>486</ele>
        <time>2015-02-24T09:33:37Z</time>
      </trkpt>
      <trkpt lat="49.88462" lon="5.24505">
        <ele>486</ele>
        <time>2015-02-24T09:33:42Z</time>
      </trkpt>
      <trkpt lat="49.88461" lon="5.24511">
        <ele>486</ele>
        <time>2015-02-24T09:33:47Z</time>
      </trkpt>
      <trkpt lat="49.88459" lon="5.24519">
        <ele>487</ele>
        <time>2015-02-24T09:33:53Z</time>
      </trkpt>
      <trkpt lat="49.88456" lon="5.24525">
        <ele>487</ele>
        <time>2015-02-24T09:33:58Z</time>
      </trkpt>
      <trkpt lat="49.88451" lon="5.2453">
        <ele>487</ele>
        <time>2015-02-24T09:34:04Z</time>
      </trkpt>
      <trkpt lat="49.88446" lon="5.24536">
        <ele>487</ele>
        <time>2015-02-24T09:34:09Z</time>
      </trkpt>
      <trkpt lat="49.88438" lon="5.24539">
        <ele>487</ele>
        <time>2015-02-24T09:34:15Z</time>
      </trkpt>
      <trkpt lat="49.88432" lon="5.24541">
        <ele>488</ele>
        <time>2015-02-24T09:34:20Z</time>
      </trkpt>
      <trkpt lat="49.88425" lon="5.24545">
        <ele>488</ele>
        <time>2015-02-24T09:34:25Z</time>
      </trkpt>
      <trkpt lat="49.88419" lon="5.24549">
        <ele>489</ele>
        <time>2015-02-24T09:34:30Z</time>
      </trkpt>
      <trkpt lat="49.88414" lon="5.24556">
        <ele>488</ele>
        <time>2015-02-24T09:34:36Z</time>
      </trkpt>
      <trkpt lat="49.88411" lon="5.24562">
        <ele>488</ele>
        <time>2015-02-24T09:34:41Z</time>
      </trkpt>
      <trkpt lat="49.88408" lon="5.24568">
        <ele>488</ele>
        <time>2015-02-24T09:34:46Z</time>
      </trkpt>
      <trkpt lat="49.88404" lon="5.24577">
        <ele>488</ele>
        <time>2015-02-24T09:34:52Z</time>
      </trkpt>
      <trkpt lat="49.88401" lon="5.24586">
        <ele>487</ele>
        <time>2015-02-24T09:34:57Z</time>
      </trkpt>
      <trkpt lat="49.884" lon="5.24595">
        <ele>487</ele>
        <time>2015-02-24T09:35:02Z</time>
      </trkpt>
      <trkpt lat="49.88399" lon="5.24607">
        <ele>487</ele>
        <time>2015-02-24T09:35:08Z</time>
      </trkpt>
      <trkpt lat="49.88398" lon="5.24615">
        <ele>487</ele>
        <time>2015-02-24T09:35:13Z</time>
      </trkpt>
      <trkpt lat="49.88396" lon="5.24626">
        <ele>487</ele>
        <time>2015-02-24T09:35:19Z</time>
      </trkpt>
      <trkpt lat="49.88395" lon="5.24637">
        <ele>487</ele>
        <time>2015-02-24T09:35:25Z</time>
      </trkpt>
      <trkpt lat="49.88395" lon="5.24646">
        <ele>487</ele>
        <time>2015-02-24T09:35:31Z</time>
      </trkpt>
      <trkpt lat="49.88395" lon="5.24657">
        <ele>487</ele>
        <time>2015-02-24T09:35:36Z</time>
      </trkpt>
      <trkpt lat="49.88396" lon="5.24667">
        <ele>487</ele>
        <time>2015-02-24T09:35:42Z</time>
      </trkpt>
      <trkpt lat="49.88398" lon="5.24676">
        <ele>487</ele>
        <time>2015-02-24T09:35:48Z</time>
      </trkpt>
      <trkpt lat="49.88399" lon="5.24684">
        <ele>488</ele>
        <time>2015-02-24T09:35:53Z</time>
      </trkpt>
      <trkpt lat="49.88399" lon="5.24692">
        <ele>488</ele>
        <time>2015-02-24T09:35:58Z</time>
      </trkpt>
      <trkpt lat="49.88399" lon="5.24702">
        <ele>487</ele>
        <time>2015-02-24T09:36:04Z</time>
      </trkpt>
      <trkpt lat="49.88399" lon="5.24711">
        <ele>487</ele>
        <time>2015-02-24T09:36:09Z</time>
      </trkpt>
      <trkpt lat="49.88399" lon="5.2472">
        <ele>488</ele>
        <time>2015-02-24T09:36:14Z</time>
      </trkpt>
      <trkpt lat="49.88398" lon="5.2473">
        <ele>488</ele>
        <time>2015-02-24T09:36:19Z</time>
      </trkpt>
      <trkpt lat="49.88398" lon="5.2474">
        <ele>488</ele>
        <time>2015-02-24T09:36:25Z</time>
      </trkpt>
      <trkpt lat="49.88396" lon="5.24749">
        <ele>488</ele>
        <time>2015-02-24T09:36:30Z</time>
      </trkpt>
      <trkpt lat="49.88396" lon="5.24761">
        <ele>488</ele>
        <time>2015-02-24T09:36:36Z</time>
      </trkpt>
      <trkpt lat="49.88395" lon="5.24769">
        <ele>488</ele>
        <time>2015-02-24T09:36:42Z</time>
      </trkpt>
      <trkpt lat="49.88394" lon="5.24778">
        <ele>489</ele>
        <time>2015-02-24T09:36:48Z</time>
      </trkpt>
      <trkpt lat="49.88392" lon="5.24784">
        <ele>489</ele>
        <time>2015-02-24T09:36:53Z</time>
      </trkpt>
      <trkpt lat="49.8839" lon="5.2479">
        <ele>489</ele>
        <time>2015-02-24T09:36:59Z</time>
      </trkpt>
      <trkpt lat="49.88388" lon="5.24797">
        <ele>489</ele>
        <time>2015-02-24T09:37:04Z</time>
      </trkpt>
      <trkpt lat="49.88385" lon="5.24803">
        <ele>489</ele>
        <time>2015-02-24T09:37:09Z</time>
      </trkpt>
      <trkpt lat="49.88385" lon="5.24808">
        <ele>490</ele>
        <time>2015-02-24T09:37:15Z</time>
      </trkpt>
      <trkpt lat="49.88387" lon="5.24809">
        <ele>490</ele>
        <time>2015-02-24T09:37:20Z</time>
      </trkpt>
      <trkpt lat="49.88388" lon="5.24807">
        <ele>489</ele>
        <time>2015-02-24T09:37:25Z</time>
      </trkpt>
      <trkpt lat="49.88387" lon="5.24805">
        <ele>490</ele>
        <time>2015-02-24T09:37:30Z</time>
      </trkpt>
      <trkpt lat="49.88388" lon="5.24804">
        <ele>490</ele>
        <time>2015-02-24T09:37:35Z</time>
      </trkpt>
      <trkpt lat="49.88388" lon="5.24804">
        <ele>489</ele>
        <time>2015-02-24T09:37:40Z</time>
      </trkpt>
      <trkpt lat="49.88389" lon="5.24804">
        <ele>489</ele>
        <time>2015-02-24T09:37:45Z</time>
      </trkpt>
      <trkpt lat="49.8839" lon="5.24803">
        <ele>490</ele>
        <time>2015-02-24T09:37:50Z</time>
      </trkpt>
      <trkpt lat="49.88389" lon="5.24804">
        <ele>490</ele>
        <time>2015-02-24T09:37:55Z</time>
      </trkpt>
      <trkpt lat="49.88389" lon="5.24806">
        <ele>490</ele>
        <time>2015-02-24T09:38:00Z</time>
      </trkpt>
      <trkpt lat="49.88391" lon="5.24808">
        <ele>490</ele>
        <time>2015-02-24T09:38:06Z</time>
      </trkpt>
      <trkpt lat="49.88391" lon="5.24805">
        <ele>490</ele>
        <time>2015-02-24T09:38:11Z</time>
      </trkpt>
      <trkpt lat="49.88389" lon="5.24803">
        <ele>489</ele>
        <time>2015-02-24T09:38:17Z</time>
      </trkpt>
      <trkpt lat="49.88387" lon="5.24805">
        <ele>489</ele>
        <time>2015-02-24T09:38:22Z</time>
      </trkpt>
      <trkpt lat="49.88383" lon="5.24807">
        <ele>490</ele>
        <time>2015-02-24T09:38:27Z</time>
      </trkpt>
      <trkpt lat="49.88379" lon="5.2481">
        <ele>490</ele>
        <time>2015-02-24T09:38:32Z</time>
      </trkpt>
      <trkpt lat="49.88373" lon="5.24813">
        <ele>490</ele>
        <time>2015-02-24T09:38:38Z</time>
      </trkpt>
      <trkpt lat="49.88368" lon="5.24815">
        <ele>491</ele>
        <time>2015-02-24T09:38:43Z</time>
      </trkpt>
      <trkpt lat="49.88361" lon="5.24818">
        <ele>491</ele>
        <time>2015-02-24T09:38:49Z</time>
      </trkpt>
      <trkpt lat="49.88355" lon="5.24821">
        <ele>491</ele>
        <time>2015-02-24T09:38:54Z</time>
      </trkpt>
      <trkpt lat="49.88348" lon="5.24823">
        <ele>491</ele>
        <time>2015-02-24T09:39:00Z</time>
      </trkpt>
      <trkpt lat="49.88342" lon="5.24824">
        <ele>492</ele>
        <time>2015-02-24T09:39:05Z</time>
      </trkpt>
      <trkpt lat="49.88335" lon="5.24826">
        <ele>492</ele>
        <time>2015-02-24T09:39:11Z</time>
      </trkpt>
      <trkpt lat="49.88329" lon="5.24828">
        <ele>492</ele>
        <time>2015-02-24T09:39:16Z</time>
      </trkpt>
      <trkpt lat="49.88325" lon="5.2483">
        <ele>492</ele>
        <time>2015-02-24T09:39:21Z</time>
      </trkpt>
      <trkpt lat="49.8832" lon="5.24834">
        <ele>493</ele>
        <time>2015-02-24T09:39:27Z</time>
      </trkpt>
      <trkpt lat="49.88314" lon="5.24838">
        <ele>493</ele>
        <time>2015-02-24T09:39:33Z</time>
      </trkpt>
      <trkpt lat="49.88311" lon="5.24841">
        <ele>493</ele>
        <time>2015-02-24T09:39:38Z</time>
      </trkpt>
      <trkpt lat="49.88308" lon="5.24844">
        <ele>493</ele>
        <time>2015-02-24T09:39:43Z</time>
      </trkpt>
      <trkpt lat="49.88303" lon="5.24847">
        <ele>494</ele>
        <time>2015-02-24T09:39:48Z</time>
      </trkpt>
      <trkpt lat="49.88297" lon="5.2485">
        <ele>494</ele>
        <time>2015-02-24T09:39:54Z</time>
      </trkpt>
      <trkpt lat="49.88293" lon="5.24853">
        <ele>494</ele>
        <time>2015-02-24T09:39:59Z</time>
      </trkpt>
      <trkpt lat="49.88287" lon="5.24856">
        <ele>494</ele>
        <time>2015-02-24T09:40:04Z</time>
      </trkpt>
      <trkpt lat="49.88282" lon="5.2486">
        <ele>495</ele>
        <time>2015-02-24T09:40:09Z</time>
      </trkpt>
      <trkpt lat="49.88276" lon="5.24864">
        <ele>495</ele>
        <time>2015-02-24T09:40:15Z</time>
      </trkpt>
      <trkpt lat="49.88272" lon="5.24868">
        <ele>495</ele>
        <time>2015-02-24T09:40:20Z</time>
      </trkpt>
      <trkpt lat="49.88268" lon="5.24873">
        <ele>495</ele>
        <time>2015-02-24T09:40:25Z</time>
      </trkpt>
      <trkpt lat="49.88265" lon="5.24876">
        <ele>496</ele>
        <time>2015-02-24T09:40:31Z</time>
      </trkpt>
      <trkpt lat="49.88262" lon="5.24879">
        <ele>496</ele>
        <time>2015-02-24T09:40:37Z</time>
      </trkpt>
      <trkpt lat="49.88259" lon="5.24882">
        <ele>496</ele>
        <time>2015-02-24T09:40:42Z</time>
      </trkpt>
      <trkpt lat="49.88255" lon="5.24885">
        <ele>496</ele>
        <time>2015-02-24T09:40:48Z</time>
      </trkpt>
      <trkpt lat="49.8825" lon="5.24888">
        <ele>496</ele>
        <time>2015-02-24T09:40:53Z</time>
      </trkpt>
      <trkpt lat="49.88247" lon="5.24891">
        <ele>497</ele>
        <time>2015-02-24T09:40:58Z</time>
      </trkpt>
      <trkpt lat="49.88242" lon="5.24894">
        <ele>497</ele>
        <time>2015-02-24T09:41:04Z</time>
      </trkpt>
      <trkpt lat="49.8824" lon="5.24897">
        <ele>497</ele>
        <time>2015-02-24T09:41:09Z</time>
      </trkpt>
      <trkpt lat="49.88237" lon="5.249">
        <ele>497</ele>
        <time>2015-02-24T09:41:15Z</time>
      </trkpt>
      <trkpt lat="49.88232" lon="5.24903">
        <ele>497</ele>
        <time>2015-02-24T09:41:20Z</time>
      </trkpt>
      <trkpt lat="49.88228" lon="5.24907">
        <ele>498</ele>
        <time>2015-02-24T09:41:26Z</time>
      </trkpt>
      <trkpt lat="49.88226" lon="5.24908">
        <ele>498</ele>
        <time>2015-02-24T09:41:31Z</time>
      </trkpt>
      <trkpt lat="49.88221" lon="5.24911">
        <ele>498</ele>
        <time>2015-02-24T09:41:37Z</time>
      </trkpt>
      <trkpt lat="49.88217" lon="5.24914">
        <ele>498</ele>
        <time>2015-02-24T09:41:42Z</time>
      </trkpt>
      <trkpt lat="49.88213" lon="5.24917">
        <ele>499</ele>
        <time>2015-02-24T09:41:48Z</time>
      </trkpt>
      <trkpt lat="49.88211" lon="5.24918">
        <ele>499</ele>
        <time>2015-02-24T09:41:53Z</time>
      </trkpt>
      <trkpt lat="49.88212" lon="5.24918">
        <ele>499</ele>
        <time>2015-02-24T09:41:59Z</time>
      </trkpt>
      <trkpt lat="49.88214" lon="5.24916">
        <ele>499</ele>
        <time>2015-02-24T09:42:05Z</time>
      </trkpt>
      <trkpt lat="49.88211" lon="5.24917">
        <ele>499</ele>
        <time>2015-02-24T09:42:10Z</time>
      </trkpt>
      <trkpt lat="49.88208" lon="5.24919">
        <ele>499</ele>
        <time>2015-02-24T09:42:15Z</time>
      </trkpt>
      <trkpt lat="49.88205" lon="5.24923">
        <ele>500</ele>
        <time>2015-02-24T09:42:20Z</time>
      </trkpt>
      <trkpt lat="49.88199" lon="5.2493">
        <ele>500</ele>
        <time>2015-02-24T09:42:26Z</time>
      </trkpt>
      <trkpt lat="49.88195" lon="5.24936">
        <ele>500</ele>
        <time>2015-02-24T09:42:31Z</time>
      </trkpt>
      <trkpt lat="49.88187" lon="5.24943">
        <ele>501</ele>
        <time>2015-02-24T09:42:37Z</time>
      </trkpt>
      <trkpt lat="49.88179" lon="5.24951">
        <ele>501</ele>
        <time>2015-02-24T09:42:43Z</time>
      </trkpt>
      <trkpt lat="49.88173" lon="5.24958">
        <ele>501</ele>
        <time>2015-02-24T09:42:48Z</time>
      </trkpt>
      <trkpt lat="49.88169" lon="5.24964">
        <ele>502</ele>
        <time>2015-02-24T09:42:53Z</time>
      </trkpt>
      <trkpt lat="49.88165" lon="5.2497">
        <ele>502</ele>
        <time>2015-02-24T09:42:58Z</time>
      </trkpt>
      <trkpt lat="49.88161" lon="5.24973">
        <ele>502</ele>
        <time>2015-02-24T09:43:03Z</time>
      </trkpt>
      <trkpt lat="49.8816" lon="5.24973">
        <ele>502</ele>
        <time>2015-02-24T09:43:08Z</time>
      </trkpt>
      <trkpt lat="49.88159" lon="5.24971">
        <ele>502</ele>
        <time>2015-02-24T09:43:13Z</time>
      </trkpt>
      <trkpt lat="49.88158" lon="5.24968">
        <ele>502</ele>
        <time>2015-02-24T09:43:18Z</time>
      </trkpt>
      <trkpt lat="49.88156" lon="5.24965">
        <ele>502</ele>
        <time>2015-02-24T09:43:24Z</time>
      </trkpt>
      <trkpt lat="49.88155" lon="5.24963">
        <ele>502</ele>
        <time>2015-02-24T09:43:29Z</time>
      </trkpt>
      <trkpt lat="49.88153" lon="5.24966">
        <ele>502</ele>
        <time>2015-02-24T09:43:35Z</time>
      </trkpt>
      <trkpt lat="49.88151" lon="5.24972">
        <ele>503</ele>
        <time>2015-02-24T09:43:40Z</time>
      </trkpt>
      <trkpt lat="49.88149" lon="5.24982">
        <ele>502</ele>
        <time>2015-02-24T09:43:46Z</time>
      </trkpt>
      <trkpt lat="49.88148" lon="5.24992">
        <ele>502</ele>
        <time>2015-02-24T09:43:51Z</time>
      </trkpt>
      <trkpt lat="49.88147" lon="5.25004">
        <ele>503</ele>
        <time>2015-02-24T09:43:57Z</time>
      </trkpt>
      <trkpt lat="49.88146" lon="5.25015">
        <ele>503</ele>
        <time>2015-02-24T09:44:02Z</time>
      </trkpt>
      <trkpt lat="49.88145" lon="5.25027">
        <ele>503</ele>
        <time>2015-02-24T09:44:07Z</time>
      </trkpt>
      <trkpt lat="49.88146" lon="5.25031">
        <ele>503</ele>
        <time>2015-02-24T09:44:12Z</time>
      </trkpt>
      <trkpt lat="49.88147" lon="5.25034">
        <ele>503</ele>
        <time>2015-02-24T09:44:18Z</time>
      </trkpt>
      <trkpt lat="49.88147" lon="5.25037">
        <ele>503</ele>
        <time>2015-02-24T09:44:24Z</time>
      </trkpt>
      <trkpt lat="49.88145" lon="5.25043">
        <ele>503</ele>
        <time>2015-02-24T09:44:29Z</time>
      </trkpt>
      <trkpt lat="49.88143" lon="5.25049">
        <ele>503</ele>
        <time>2015-02-24T09:44:35Z</time>
      </trkpt>
      <trkpt lat="49.8814" lon="5.25056">
        <ele>503</ele>
        <time>2015-02-24T09:44:40Z</time>
      </trkpt>
      <trkpt lat="49.88134" lon="5.25065">
        <ele>503</ele>
        <time>2015-02-24T09:44:46Z</time>
      </trkpt>
      <trkpt lat="49.8813" lon="5.25074">
        <ele>503</ele>
        <time>2015-02-24T09:44:52Z</time>
      </trkpt>
      <trkpt lat="49.88128" lon="5.25081">
        <ele>503</ele>
        <time>2015-02-24T09:44:57Z</time>
      </trkpt>
      <trkpt lat="49.88129" lon="5.25085">
        <ele>502</ele>
        <time>2015-02-24T09:45:02Z</time>
      </trkpt>
      <trkpt lat="49.88131" lon="5.25089">
        <ele>503</ele>
        <time>2015-02-24T09:45:08Z</time>
      </trkpt>
      <trkpt lat="49.88133" lon="5.2509">
        <ele>503</ele>
        <time>2015-02-24T09:45:13Z</time>
      </trkpt>
      <trkpt lat="49.88138" lon="5.25088">
        <ele>504</ele>
        <time>2015-02-24T09:45:19Z</time>
      </trkpt>
      <trkpt lat="49.88142" lon="5.25088">
        <ele>504</ele>
        <time>2015-02-24T09:45:25Z</time>
      </trkpt>
      <trkpt lat="49.88147" lon="5.25088">
        <ele>503</ele>
        <time>2015-02-24T09:45:30Z</time>
      </trkpt>
      <trkpt lat="49.88152" lon="5.25088">
        <ele>504</ele>
        <time>2015-02-24T09:45:36Z</time>
      </trkpt>
      <trkpt lat="49.88156" lon="5.2509">
        <ele>504</ele>
        <time>2015-02-24T09:45:41Z</time>
      </trkpt>
      <trkpt lat="49.88163" lon="5.25092">
        <ele>504</ele>
        <time>2015-02-24T09:45:46Z</time>
      </trkpt>
      <trkpt lat="49.88168" lon="5.25092">
        <ele>503</ele>
        <time>2015-02-24T09:45:52Z</time>
      </trkpt>
      <trkpt lat="49.88174" lon="5.25095">
        <ele>503</ele>
        <time>2015-02-24T09:45:58Z</time>
      </trkpt>
      <trkpt lat="49.8818" lon="5.25097">
        <ele>503</ele>
        <time>2015-02-24T09:46:03Z</time>
      </trkpt>
      <trkpt lat="49.88187" lon="5.25099">
        <ele>503</ele>
        <time>2015-02-24T09:46:09Z</time>
      </trkpt>
      <trkpt lat="49.88192" lon="5.251">
        <ele>504</ele>
        <time>2015-02-24T09:46:15Z</time>
      </trkpt>
      <trkpt lat="49.88195" lon="5.251">
        <ele>503</ele>
        <time>2015-02-24T09:46:21Z</time>
      </trkpt>
      <trkpt lat="49.88199" lon="5.25099">
        <ele>503</ele>
        <time>2015-02-24T09:46:27Z</time>
      </trkpt>
      <trkpt lat="49.88203" lon="5.25101">
        <ele>503</ele>
        <time>2015-02-24T09:46:33Z</time>
      </trkpt>
      <trkpt lat="49.88208" lon="5.25103">
        <ele>503</ele>
        <time>2015-02-24T09:46:38Z</time>
      </trkpt>
      <trkpt lat="49.88213" lon="5.25105">
        <ele>503</ele>
        <time>2015-02-24T09:46:43Z</time>
      </trkpt>
      <trkpt lat="49.88217" lon="5.25106">
        <ele>502</ele>
        <time>2015-02-24T09:46:49Z</time>
      </trkpt>
      <trkpt lat="49.88221" lon="5.25107">
        <ele>502</ele>
        <time>2015-02-24T09:46:54Z</time>
      </trkpt>
      <trkpt lat="49.88225" lon="5.25107">
        <ele>502</ele>
        <time>2015-02-24T09:46:59Z</time>
      </trkpt>
      <trkpt lat="49.8823" lon="5.25109">
        <ele>501</ele>
        <time>2015-02-24T09:47:05Z</time>
      </trkpt>
      <trkpt lat="49.88235" lon="5.25111">
        <ele>501</ele>
        <time>2015-02-24T09:47:10Z</time>
      </trkpt>
      <trkpt lat="49.88243" lon="5.25113">
        <ele>501</ele>
        <time>2015-02-24T09:47:16Z</time>
      </trkpt>
      <trkpt lat="49.88249" lon="5.25115">
        <ele>501</ele>
        <time>2015-02-24T09:47:22Z</time>
      </trkpt>
      <trkpt lat="49.88254" lon="5.25115">
        <ele>500</ele>
        <time>2015-02-24T09:47:27Z</time>
      </trkpt>
      <trkpt lat="49.8826" lon="5.25118">
        <ele>501</ele>
        <time>2015-02-24T09:47:33Z</time>
      </trkpt>
      <trkpt lat="49.88264" lon="5.25121">
        <ele>501</ele>
        <time>2015-02-24T09:47:38Z</time>
      </trkpt>
      <trkpt lat="49.88269" lon="5.25123">
        <ele>500</ele>
        <time>2015-02-24T09:47:44Z</time>
      </trkpt>
      <trkpt lat="49.88277" lon="5.25124">
        <ele>500</ele>
        <time>2015-02-24T09:47:50Z</time>
      </trkpt>
      <trkpt lat="49.88282" lon="5.25125">
        <ele>500</ele>
        <time>2015-02-24T09:47:55Z</time>
      </trkpt>
      <trkpt lat="49.88288" lon="5.25127">
        <ele>500</ele>
        <time>2015-02-24T09:48:01Z</time>
      </trkpt>
      <trkpt lat="49.88293" lon="5.25129">
        <ele>499</ele>
        <time>2015-02-24T09:48:07Z</time>
      </trkpt>
      <trkpt lat="49.88299" lon="5.25131">
        <ele>499</ele>
        <time>2015-02-24T09:48:12Z</time>
      </trkpt>
      <trkpt lat="49.88306" lon="5.25133">
        <ele>499</ele>
        <time>2015-02-24T09:48:18Z</time>
      </trkpt>
      <trkpt lat="49.88311" lon="5.25136">
        <ele>498</ele>
        <time>2015-02-24T09:48:24Z</time>
      </trkpt>
      <trkpt lat="49.88317" lon="5.25139">
        <ele>498</ele>
        <time>2015-02-24T09:48:30Z</time>
      </trkpt>
      <trkpt lat="49.88322" lon="5.25141">
        <ele>498</ele>
        <time>2015-02-24T09:48:36Z</time>
      </trkpt>
      <trkpt lat="49.88327" lon="5.25144">
        <ele>498</ele>
        <time>2015-02-24T09:48:41Z</time>
      </trkpt>
      <trkpt lat="49.88333" lon="5.25147">
        <ele>497</ele>
        <time>2015-02-24T09:48:47Z</time>
      </trkpt>
      <trkpt lat="49.88339" lon="5.25149">
        <ele>497</ele>
        <time>2015-02-24T09:48:53Z</time>
      </trkpt>
      <trkpt lat="49.88345" lon="5.25151">
        <ele>497</ele>
        <time>2015-02-24T09:48:58Z</time>
      </trkpt>
      <trkpt lat="49.88351" lon="5.25154">
        <ele>496</ele>
        <time>2015-02-24T09:49:04Z</time>
      </trkpt>
      <trkpt lat="49.88357" lon="5.25156">
        <ele>496</ele>
        <time>2015-02-24T09:49:10Z</time>
      </trkpt>
      <trkpt lat="49.88363" lon="5.25159">
        <ele>496</ele>
        <time>2015-02-24T09:49:15Z</time>
      </trkpt>
      <trkpt lat="49.88369" lon="5.25161">
        <ele>496</ele>
        <time>2015-02-24T09:49:20Z</time>
      </trkpt>
      <trkpt lat="49.88375" lon="5.25162">
        <ele>495</ele>
        <time>2015-02-24T09:49:26Z</time>
      </trkpt>
      <trkpt lat="49.8838" lon="5.25163">
        <ele>495</ele>
        <time>2015-02-24T09:49:31Z</time>
      </trkpt>
      <trkpt lat="49.88385" lon="5.25164">
        <ele>494</ele>
        <time>2015-02-24T09:49:37Z</time>
      </trkpt>
      <trkpt lat="49.8839" lon="5.25165">
        <ele>494</ele>
        <time>2015-02-24T09:49:42Z</time>
      </trkpt>
      <trkpt lat="49.88395" lon="5.25166">
        <ele>494</ele>
        <time>2015-02-24T09:49:48Z</time>
      </trkpt>
      <trkpt lat="49.88399" lon="5.25165">
        <ele>494</ele>
        <time>2015-02-24T09:49:53Z</time>
      </trkpt>
      <trkpt lat="49.88405" lon="5.25167">
        <ele>493</ele>
        <time>2015-02-24T09:49:59Z</time>
      </trkpt>
      <trkpt lat="49.88411" lon="5.25169">
        <ele>492</ele>
        <time>2015-02-24T09:50:05Z</time>
      </trkpt>
      <trkpt lat="49.88416" lon="5.25171">
        <ele>492</ele>
        <time>2015-02-24T09:50:10Z</time>
      </trkpt>
      <trkpt lat="49.8842" lon="5.25174">
        <ele>492</ele>
        <time>2015-02-24T09:50:15Z</time>
      </trkpt>
      <trkpt lat="49.88426" lon="5.25178">
        <ele>491</ele>
        <time>2015-02-24T09:50:21Z</time>
      </trkpt>
      <trkpt lat="49.8843" lon="5.25182">
        <ele>491</ele>
        <time>2015-02-24T09:50:26Z</time>
      </trkpt>
      <trkpt lat="49.88435" lon="5.2519">
        <ele>491</ele>
        <time>2015-02-24T09:50:32Z</time>
      </trkpt>
      <trkpt lat="49.88438" lon="5.25197">
        <ele>491</ele>
        <time>2015-02-24T09:50:37Z</time>
      </trkpt>
      <trkpt lat="49.88441" lon="5.25205">
        <ele>491</ele>
        <time>2015-02-24T09:50:42Z</time>
      </trkpt>
      <trkpt lat="49.88445" lon="5.25213">
        <ele>491</ele>
        <time>2015-02-24T09:50:48Z</time>
      </trkpt>
      <trkpt lat="49.88446" lon="5.25221">
        <ele>490</ele>
        <time>2015-02-24T09:50:53Z</time>
      </trkpt>
      <trkpt lat="49.88447" lon="5.2523">
        <ele>491</ele>
        <time>2015-02-24T09:50:59Z</time>
      </trkpt>
      <trkpt lat="49.88449" lon="5.25239">
        <ele>491</ele>
        <time>2015-02-24T09:51:05Z</time>
      </trkpt>
      <trkpt lat="49.88449" lon="5.25248">
        <ele>491</ele>
        <time>2015-02-24T09:51:11Z</time>
      </trkpt>
      <trkpt lat="49.88449" lon="5.25256">
        <ele>491</ele>
        <time>2015-02-24T09:51:16Z</time>
      </trkpt>
      <trkpt lat="49.88449" lon="5.25265">
        <ele>492</ele>
        <time>2015-02-24T09:51:22Z</time>
      </trkpt>
      <trkpt lat="49.8845" lon="5.25272">
        <ele>492</ele>
        <time>2015-02-24T09:51:27Z</time>
      </trkpt>
      <trkpt lat="49.8845" lon="5.2528">
        <ele>491</ele>
        <time>2015-02-24T09:51:32Z</time>
      </trkpt>
      <trkpt lat="49.8845" lon="5.25289">
        <ele>492</ele>
        <time>2015-02-24T09:51:38Z</time>
      </trkpt>
      <trkpt lat="49.8845" lon="5.25297">
        <ele>492</ele>
        <time>2015-02-24T09:51:43Z</time>
      </trkpt>
      <trkpt lat="49.88449" lon="5.25306">
        <ele>492</ele>
        <time>2015-02-24T09:51:49Z</time>
      </trkpt>
      <trkpt lat="49.8845" lon="5.25314">
        <ele>492</ele>
        <time>2015-02-24T09:51:54Z</time>
      </trkpt>
      <trkpt lat="49.88449" lon="5.25323">
        <ele>493</ele>
        <time>2015-02-24T09:52:00Z</time>
      </trkpt>
      <trkpt lat="49.8845" lon="5.25332">
        <ele>492</ele>
        <time>2015-02-24T09:52:06Z</time>
      </trkpt>
      <trkpt lat="49.8845" lon="5.25342">
        <ele>493</ele>
        <time>2015-02-24T09:52:12Z</time>
      </trkpt>
      <trkpt lat="49.88451" lon="5.2535">
        <ele>493</ele>
        <time>2015-02-24T09:52:17Z</time>
      </trkpt>
      <trkpt lat="49.88453" lon="5.25358">
        <ele>493</ele>
        <time>2015-02-24T09:52:23Z</time>
      </trkpt>
      <trkpt lat="49.88454" lon="5.25366">
        <ele>493</ele>
        <time>2015-02-24T09:52:28Z</time>
      </trkpt>
      <trkpt lat="49.88455" lon="5.25374">
        <ele>493</ele>
        <time>2015-02-24T09:52:33Z</time>
      </trkpt>
      <trkpt lat="49.88456" lon="5.25385">
        <ele>493</ele>
        <time>2015-02-24T09:52:39Z</time>
      </trkpt>
      <trkpt lat="49.88456" lon="5.25396">
        <ele>493</ele>
        <time>2015-02-24T09:52:45Z</time>
      </trkpt>
      <trkpt lat="49.88456" lon="5.25406">
        <ele>493</ele>
        <time>2015-02-24T09:52:50Z</time>
      </trkpt>
      <trkpt lat="49.88456" lon="5.25417">
        <ele>493</ele>
        <time>2015-02-24T09:52:55Z</time>
      </trkpt>
      <trkpt lat="49.88457" lon="5.25428">
        <ele>494</ele>
        <time>2015-02-24T09:53:01Z</time>
      </trkpt>
      <trkpt lat="49.88457" lon="5.25438">
        <ele>494</ele>
        <time>2015-02-24T09:53:07Z</time>
      </trkpt>
      <trkpt lat="49.88458" lon="5.25449">
        <ele>494</ele>
        <time>2015-02-24T09:53:13Z</time>
      </trkpt>
      <trkpt lat="49.88458" lon="5.25457">
        <ele>494</ele>
        <time>2015-02-24T09:53:18Z</time>
      </trkpt>
      <trkpt lat="49.88458" lon="5.25466">
        <ele>494</ele>
        <time>2015-02-24T09:53:23Z</time>
      </trkpt>
      <trkpt lat="49.88458" lon="5.25476">
        <ele>494</ele>
        <time>2015-02-24T09:53:29Z</time>
      </trkpt>
      <trkpt lat="49.88458" lon="5.25485">
        <ele>494</ele>
        <time>2015-02-24T09:53:34Z</time>
      </trkpt>
      <trkpt lat="49.88458" lon="5.25493">
        <ele>494</ele>
        <time>2015-02-24T09:53:39Z</time>
      </trkpt>
      <trkpt lat="49.88458" lon="5.25502">
        <ele>494</ele>
        <time>2015-02-24T09:53:45Z</time>
      </trkpt>
      <trkpt lat="49.88457" lon="5.2551">
        <ele>495</ele>
        <time>2015-02-24T09:53:50Z</time>
      </trkpt>
      <trkpt lat="49.88457" lon="5.25521">
        <ele>495</ele>
        <time>2015-02-24T09:53:56Z</time>
      </trkpt>
      <trkpt lat="49.88456" lon="5.2553">
        <ele>495</ele>
        <time>2015-02-24T09:54:02Z</time>
      </trkpt>
      <trkpt lat="49.88456" lon="5.2554">
        <ele>495</ele>
        <time>2015-02-24T09:54:08Z</time>
      </trkpt>
      <trkpt lat="49.88457" lon="5.25551">
        <ele>495</ele>
        <time>2015-02-24T09:54:14Z</time>
      </trkpt>
      <trkpt lat="49.88457" lon="5.25559">
        <ele>495</ele>
        <time>2015-02-24T09:54:20Z</time>
      </trkpt>
      <trkpt lat="49.88457" lon="5.25566">
        <ele>495</ele>
        <time>2015-02-24T09:54:25Z</time>
      </trkpt>
      <trkpt lat="49.88456" lon="5.25575">
        <ele>495</ele>
        <time>2015-02-24T09:54:31Z</time>
      </trkpt>
      <trkpt lat="49.88456" lon="5.25584">
        <ele>495</ele>
        <time>2015-02-24T09:54:37Z</time>
      </trkpt>
      <trkpt lat="49.88455" lon="5.25592">
        <ele>495</ele>
        <time>2015-02-24T09:54:42Z</time>
      </trkpt>
      <trkpt lat="49.88454" lon="5.25601">
        <ele>495</ele>
        <time>2015-02-24T09:54:48Z</time>
      </trkpt>
      <trkpt lat="49.88453" lon="5.25608">
        <ele>495</ele>
        <time>2015-02-24T09:54:53Z</time>
      </trkpt>
      <trkpt lat="49.88451" lon="5.25618">
        <ele>496</ele>
        <time>2015-02-24T09:54:59Z</time>
      </trkpt>
      <trkpt lat="49.8845" lon="5.25626">
        <ele>496</ele>
        <time>2015-02-24T09:55:05Z</time>
      </trkpt>
      <trkpt lat="49.88448" lon="5.25632">
        <ele>496</ele>
        <time>2015-02-24T09:55:11Z</time>
      </trkpt>
      <trkpt lat="49.88445" lon="5.2564">
        <ele>496</ele>
        <time>2015-02-24T09:55:17Z</time>
      </trkpt>
      <trkpt lat="49.88443" lon="5.25647">
        <ele>496</ele>
        <time>2015-02-24T09:55:22Z</time>
      </trkpt>
      <trkpt lat="49.8844" lon="5.25654">
        <ele>497</ele>
        <time>2015-02-24T09:55:28Z</time>
      </trkpt>
      <trkpt lat="49.88438" lon="5.25658">
        <ele>497</ele>
        <time>2015-02-24T09:55:33Z</time>
      </trkpt>
      <trkpt lat="49.88435" lon="5.2566">
        <ele>498</ele>
        <time>2015-02-24T09:55:39Z</time>
      </trkpt>
      <trkpt lat="49.88432" lon="5.25662">
        <ele>497</ele>
        <time>2015-02-24T09:55:45Z</time>
      </trkpt>
      <trkpt lat="49.8843" lon="5.25665">
        <ele>497</ele>
        <time>2015-02-24T09:55:51Z</time>
      </trkpt>
      <trkpt lat="49.88425" lon="5.25669">
        <ele>497</ele>
        <time>2015-02-24T09:55:56Z</time>
      </trkpt>
      <trkpt lat="49.8842" lon="5.25674">
        <ele>497</ele>
        <time>2015-02-24T09:56:01Z</time>
      </trkpt>
      <trkpt lat="49.88415" lon="5.25678">
        <ele>498</ele>
        <time>2015-02-24T09:56:07Z</time>
      </trkpt>
      <trkpt lat="49.8841" lon="5.25681">
        <ele>498</ele>
        <time>2015-02-24T09:56:12Z</time>
      </trkpt>
      <trkpt lat="49.88403" lon="5.25684">
        <ele>498</ele>
        <time>2015-02-24T09:56:18Z</time>
      </trkpt>
      <trkpt lat="49.88395" lon="5.25686">
        <ele>499</ele>
        <time>2015-02-24T09:56:24Z</time>
      </trkpt>
      <trkpt lat="49.88388" lon="5.25687">
        <ele>499</ele>
        <time>2015-02-24T09:56:29Z</time>
      </trkpt>
      <trkpt lat="49.88382" lon="5.25688">
        <ele>500</ele>
        <time>2015-02-24T09:56:35Z</time>
      </trkpt>
      <trkpt lat="49.88377" lon="5.25688">
        <ele>500</ele>
        <time>2015-02-24T09:56:40Z</time>
      </trkpt>
      <trkpt lat="49.88374" lon="5.25689">
        <ele>500</ele>
        <time>2015-02-24T09:56:46Z</time>
      </trkpt>
      <trkpt lat="49.88368" lon="5.25688">
        <ele>500</ele>
        <time>2015-02-24T09:56:52Z</time>
      </trkpt>
      <trkpt lat="49.88363" lon="5.25688">
        <ele>500</ele>
        <time>2015-02-24T09:56:57Z</time>
      </trkpt>
      <trkpt lat="49.88355" lon="5.25688">
        <ele>500</ele>
        <time>2015-02-24T09:57:03Z</time>
      </trkpt>
      <trkpt lat="49.88347" lon="5.25689">
        <ele>501</ele>
        <time>2015-02-24T09:57:09Z</time>
      </trkpt>
      <trkpt lat="49.8834" lon="5.25688">
        <ele>501</ele>
        <time>2015-02-24T09:57:15Z</time>
      </trkpt>
      <trkpt lat="49.88333" lon="5.25688">
        <ele>501</ele>
        <time>2015-02-24T09:57:21Z</time>
      </trkpt>
      <trkpt lat="49.88327" lon="5.25687">
        <ele>500</ele>
        <time>2015-02-24T09:57:26Z</time>
      </trkpt>
      <trkpt lat="49.88321" lon="5.25687">
        <ele>501</ele>
        <time>2015-02-24T09:57:32Z</time>
      </trkpt>
      <trkpt lat="49.88315" lon="5.25686">
        <ele>501</ele>
        <time>2015-02-24T09:57:37Z</time>
      </trkpt>
      <trkpt lat="49.88309" lon="5.25685">
        <ele>502</ele>
        <time>2015-02-24T09:57:43Z</time>
      </trkpt>
      <trkpt lat="49.88304" lon="5.25683">
        <ele>501</ele>
        <time>2015-02-24T09:57:48Z</time>
      </trkpt>
      <trkpt lat="49.88299" lon="5.25681">
        <ele>502</ele>
        <time>2015-02-24T09:57:54Z</time>
      </trkpt>
      <trkpt lat="49.88292" lon="5.25681">
        <ele>501</ele>
        <time>2015-02-24T09:58:00Z</time>
      </trkpt>
      <trkpt lat="49.88287" lon="5.25679">
        <ele>502</ele>
        <time>2015-02-24T09:58:06Z</time>
      </trkpt>
      <trkpt lat="49.88281" lon="5.2568">
        <ele>502</ele>
        <time>2015-02-24T09:58:12Z</time>
      </trkpt>
      <trkpt lat="49.88276" lon="5.2568">
        <ele>502</ele>
        <time>2015-02-24T09:58:17Z</time>
      </trkpt>
      <trkpt lat="49.88275" lon="5.2568">
        <ele>502</ele>
        <time>2015-02-24T09:58:24Z</time>
      </trkpt>
      <trkpt lat="49.88272" lon="5.2568">
        <ele>501</ele>
        <time>2015-02-24T09:58:30Z</time>
      </trkpt>
      <trkpt lat="49.88271" lon="5.2568">
        <ele>501</ele>
        <time>2015-02-24T09:58:36Z</time>
      </trkpt>
      <trkpt lat="49.8827" lon="5.25677">
        <ele>501</ele>
        <time>2015-02-24T09:58:42Z</time>
      </trkpt>
      <trkpt lat="49.88268" lon="5.25676">
        <ele>502</ele>
        <time>2015-02-24T09:58:48Z</time>
      </trkpt>
      <trkpt lat="49.88263" lon="5.25674">
        <ele>502</ele>
        <time>2015-02-24T09:58:54Z</time>
      </trkpt>
      <trkpt lat="49.88258" lon="5.25673">
        <ele>502</ele>
        <time>2015-02-24T09:58:59Z</time>
      </trkpt>
      <trkpt lat="49.88252" lon="5.25674">
        <ele>502</ele>
        <time>2015-02-24T09:59:05Z</time>
      </trkpt>
      <trkpt lat="49.88248" lon="5.25674">
        <ele>502</ele>
        <time>2015-02-24T09:59:10Z</time>
      </trkpt>
      <trkpt lat="49.88243" lon="5.25673">
        <ele>502</ele>
        <time>2015-02-24T09:59:15Z</time>
      </trkpt>
      <trkpt lat="49.8824" lon="5.25673">
        <ele>502</ele>
        <time>2015-02-24T09:59:21Z</time>
      </trkpt>
      <trkpt lat="49.88234" lon="5.25672">
        <ele>502</ele>
        <time>2015-02-24T09:59:26Z</time>
      </trkpt>
      <trkpt lat="49.88229" lon="5.25672">
        <ele>502</ele>
        <time>2015-02-24T09:59:31Z</time>
      </trkpt>
      <trkpt lat="49.88223" lon="5.25672">
        <ele>502</ele>
        <time>2015-02-24T09:59:37Z</time>
      </trkpt>
      <trkpt lat="49.88217" lon="5.25672">
        <ele>502</ele>
        <time>2015-02-24T09:59:43Z</time>
      </trkpt>
      <trkpt lat="49.88211" lon="5.25672">
        <ele>502</ele>
        <time>2015-02-24T09:59:49Z</time>
      </trkpt>
      <trkpt lat="49.88206" lon="5.25672">
        <ele>502</ele>
        <time>2015-02-24T09:59:54Z</time>
      </trkpt>
      <trkpt lat="49.882" lon="5.25672">
        <ele>502</ele>
        <time>2015-02-24T09:59:59Z</time>
      </trkpt>
      <trkpt lat="49.88195" lon="5.25673">
        <ele>503</ele>
        <time>2015-02-24T10:00:05Z</time>
      </trkpt>
      <trkpt lat="49.88189" lon="5.25674">
        <ele>502</ele>
        <time>2015-02-24T10:00:11Z</time>
      </trkpt>
      <trkpt lat="49.88182" lon="5.25674">
        <ele>503</ele>
        <time>2015-02-24T10:00:17Z</time>
      </trkpt>
      <trkpt lat="49.88177" lon="5.25674">
        <ele>503</ele>
        <time>2015-02-24T10:00:22Z</time>
      </trkpt>
      <trkpt lat="49.8817" lon="5.25674">
        <ele>503</ele>
        <time>2015-02-24T10:00:28Z</time>
      </trkpt>
      <trkpt lat="49.88163" lon="5.25674">
        <ele>503</ele>
        <time>2015-02-24T10:00:34Z</time>
      </trkpt>
      <trkpt lat="49.88158" lon="5.25674">
        <ele>503</ele>
        <time>2015-02-24T10:00:39Z</time>
      </trkpt>
      <trkpt lat="49.88156" lon="5.25673">
        <ele>503</ele>
        <time>2015-02-24T10:00:44Z</time>
      </trkpt>
      <trkpt lat="49.88156" lon="5.25672">
        <ele>503</ele>
        <time>2015-02-24T10:00:50Z</time>
      </trkpt>
      <trkpt lat="49.88152" lon="5.25671">
        <ele>503</ele>
        <time>2015-02-24T10:00:56Z</time>
      </trkpt>
      <trkpt lat="49.88145" lon="5.2567">
        <ele>504</ele>
        <time>2015-02-24T10:01:02Z</time>
      </trkpt>
      <trkpt lat="49.88139" lon="5.25669">
        <ele>503</ele>
        <time>2015-02-24T10:01:07Z</time>
      </trkpt>
      <trkpt lat="49.88132" lon="5.25669">
        <ele>504</ele>
        <time>2015-02-24T10:01:13Z</time>
      </trkpt>
      <trkpt lat="49.88127" lon="5.25668">
        <ele>504</ele>
        <time>2015-02-24T10:01:18Z</time>
      </trkpt>
      <trkpt lat="49.8812" lon="5.25668">
        <ele>504</ele>
        <time>2015-02-24T10:01:24Z</time>
      </trkpt>
      <trkpt lat="49.88114" lon="5.25668">
        <ele>504</ele>
        <time>2015-02-24T10:01:29Z</time>
      </trkpt>
      <trkpt lat="49.88108" lon="5.25668">
        <ele>504</ele>
        <time>2015-02-24T10:01:35Z</time>
      </trkpt>
      <trkpt lat="49.88105" lon="5.25672">
        <ele>504</ele>
        <time>2015-02-24T10:01:40Z</time>
      </trkpt>
      <trkpt lat="49.88104" lon="5.2568">
        <ele>504</ele>
        <time>2015-02-24T10:01:46Z</time>
      </trkpt>
      <trkpt lat="49.88104" lon="5.25687">
        <ele>503</ele>
        <time>2015-02-24T10:01:51Z</time>
      </trkpt>
      <trkpt lat="49.88104" lon="5.25694">
        <ele>503</ele>
        <time>2015-02-24T10:01:57Z</time>
      </trkpt>
      <trkpt lat="49.88103" lon="5.257">
        <ele>503</ele>
        <time>2015-02-24T10:02:03Z</time>
      </trkpt>
      <trkpt lat="49.88103" lon="5.25703">
        <ele>503</ele>
        <time>2015-02-24T10:02:09Z</time>
      </trkpt>
      <trkpt lat="49.88102" lon="5.25707">
        <ele>503</ele>
        <time>2015-02-24T10:02:14Z</time>
      </trkpt>
      <trkpt lat="49.88099" lon="5.25714">
        <ele>503</ele>
        <time>2015-02-24T10:02:20Z</time>
      </trkpt>
      <trkpt lat="49.88096" lon="5.25722">
        <ele>503</ele>
        <time>2015-02-24T10:02:26Z</time>
      </trkpt>
      <trkpt lat="49.88094" lon="5.25729">
        <ele>503</ele>
        <time>2015-02-24T10:02:32Z</time>
      </trkpt>
      <trkpt lat="49.88092" lon="5.25734">
        <ele>503</ele>
        <time>2015-02-24T10:02:38Z</time>
      </trkpt>
      <trkpt lat="49.8809" lon="5.25743">
        <ele>503</ele>
        <time>2015-02-24T10:02:44Z</time>
      </trkpt>
      <trkpt lat="49.88087" lon="5.25751">
        <ele>503</ele>
        <time>2015-02-24T10:02:50Z</time>
      </trkpt>
      <trkpt lat="49.88084" lon="5.25757">
        <ele>504</ele>
        <time>2015-02-24T10:02:55Z</time>
      </trkpt>
      <trkpt lat="49.88082" lon="5.25764">
        <ele>504</ele>
        <time>2015-02-24T10:03:01Z</time>
      </trkpt>
      <trkpt lat="49.88079" lon="5.25771">
        <ele>504</ele>
        <time>2015-02-24T10:03:06Z</time>
      </trkpt>
      <trkpt lat="49.88078" lon="5.25777">
        <ele>505</ele>
        <time>2015-02-24T10:03:12Z</time>
      </trkpt>
      <trkpt lat="49.88076" lon="5.25781">
        <ele>505</ele>
        <time>2015-02-24T10:03:18Z</time>
      </trkpt>
      <trkpt lat="49.88077" lon="5.25779">
        <ele>505</ele>
        <time>2015-02-24T10:03:23Z</time>
      </trkpt>
      <trkpt lat="49.88076" lon="5.2578">
        <ele>505</ele>
        <time>2015-02-24T10:03:29Z</time>
      </trkpt>
      <trkpt lat="49.88075" lon="5.25781">
        <ele>505</ele>
        <time>2015-02-24T10:03:35Z</time>
      </trkpt>
      <trkpt lat="49.88074" lon="5.25781">
        <ele>505</ele>
        <time>2015-02-24T10:03:40Z</time>
      </trkpt>
      <trkpt lat="49.88073" lon="5.25782">
        <ele>505</ele>
        <time>2015-02-24T10:03:46Z</time>
      </trkpt>
      <trkpt lat="49.88071" lon="5.25784">
        <ele>505</ele>
        <time>2015-02-24T10:03:52Z</time>
      </trkpt>
      <trkpt lat="49.8807" lon="5.25785">
        <ele>505</ele>
        <time>2015-02-24T10:03:58Z</time>
      </trkpt>
      <trkpt lat="49.8807" lon="5.25788">
        <ele>505</ele>
        <time>2015-02-24T10:04:03Z</time>
      </trkpt>
      <trkpt lat="49.88068" lon="5.25793">
        <ele>506</ele>
        <time>2015-02-24T10:04:08Z</time>
      </trkpt>
      <trkpt lat="49.88066" lon="5.258">
        <ele>506</ele>
        <time>2015-02-24T10:04:14Z</time>
      </trkpt>
      <trkpt lat="49.88063" lon="5.25805">
        <ele>506</ele>
        <time>2015-02-24T10:04:20Z</time>
      </trkpt>
      <trkpt lat="49.8806" lon="5.2581">
        <ele>506</ele>
        <time>2015-02-24T10:04:26Z</time>
      </trkpt>
      <trkpt lat="49.88058" lon="5.25815">
        <ele>507</ele>
        <time>2015-02-24T10:04:32Z</time>
      </trkpt>
      <trkpt lat="49.88056" lon="5.2582">
        <ele>507</ele>
        <time>2015-02-24T10:04:37Z</time>
      </trkpt>
      <trkpt lat="49.88053" lon="5.25824">
        <ele>507</ele>
        <time>2015-02-24T10:04:42Z</time>
      </trkpt>
      <trkpt lat="49.88051" lon="5.25829">
        <ele>508</ele>
        <time>2015-02-24T10:04:48Z</time>
      </trkpt>
      <trkpt lat="49.8805" lon="5.25834">
        <ele>508</ele>
        <time>2015-02-24T10:04:53Z</time>
      </trkpt>
      <trkpt lat="49.88047" lon="5.2584">
        <ele>508</ele>
        <time>2015-02-24T10:04:59Z</time>
      </trkpt>
      <trkpt lat="49.88043" lon="5.25846">
        <ele>509</ele>
        <time>2015-02-24T10:05:04Z</time>
      </trkpt>
      <trkpt lat="49.88039" lon="5.25853">
        <ele>509</ele>
        <time>2015-02-24T10:05:10Z</time>
      </trkpt>
      <trkpt lat="49.88035" lon="5.25859">
        <ele>509</ele>
        <time>2015-02-24T10:05:16Z</time>
      </trkpt>
      <trkpt lat="49.88032" lon="5.25866">
        <ele>509</ele>
        <time>2015-02-24T10:05:21Z</time>
      </trkpt>
      <trkpt lat="49.8803" lon="5.25871">
        <ele>509</ele>
        <time>2015-02-24T10:05:27Z</time>
      </trkpt>
      <trkpt lat="49.88029" lon="5.25878">
        <ele>510</ele>
        <time>2015-02-24T10:05:33Z</time>
      </trkpt>
      <trkpt lat="49.88028" lon="5.25881">
        <ele>510</ele>
        <time>2015-02-24T10:05:39Z</time>
      </trkpt>
      <trkpt lat="49.88029" lon="5.25887">
        <ele>510</ele>
        <time>2015-02-24T10:05:44Z</time>
      </trkpt>
      <trkpt lat="49.8803" lon="5.25893">
        <ele>511</ele>
        <time>2015-02-24T10:05:50Z</time>
      </trkpt>
      <trkpt lat="49.88032" lon="5.25898">
        <ele>511</ele>
        <time>2015-02-24T10:05:55Z</time>
      </trkpt>
      <trkpt lat="49.88034" lon="5.25904">
        <ele>510</ele>
        <time>2015-02-24T10:06:00Z</time>
      </trkpt>
      <trkpt lat="49.88036" lon="5.25911">
        <ele>510</ele>
        <time>2015-02-24T10:06:06Z</time>
      </trkpt>
      <trkpt lat="49.88039" lon="5.2592">
        <ele>510</ele>
        <time>2015-02-24T10:06:12Z</time>
      </trkpt>
      <trkpt lat="49.88044" lon="5.25927">
        <ele>510</ele>
        <time>2015-02-24T10:06:18Z</time>
      </trkpt>
      <trkpt lat="49.8805" lon="5.25933">
        <ele>510</ele>
        <time>2015-02-24T10:06:24Z</time>
      </trkpt>
      <trkpt lat="49.88054" lon="5.25938">
        <ele>510</ele>
        <time>2015-02-24T10:06:29Z</time>
      </trkpt>
      <trkpt lat="49.88058" lon="5.25945">
        <ele>510</ele>
        <time>2015-02-24T10:06:35Z</time>
      </trkpt>
      <trkpt lat="49.88062" lon="5.2595">
        <ele>510</ele>
        <time>2015-02-24T10:06:40Z</time>
      </trkpt>
      <trkpt lat="49.88069" lon="5.25955">
        <ele>510</ele>
        <time>2015-02-24T10:06:46Z</time>
      </trkpt>
      <trkpt lat="49.88074" lon="5.25962">
        <ele>510</ele>
        <time>2015-02-24T10:06:52Z</time>
      </trkpt>
      <trkpt lat="49.88079" lon="5.25969">
        <ele>510</ele>
        <time>2015-02-24T10:06:58Z</time>
      </trkpt>
      <trkpt lat="49.88084" lon="5.25975">
        <ele>510</ele>
        <time>2015-02-24T10:07:04Z</time>
      </trkpt>
      <trkpt lat="49.88089" lon="5.25981">
        <ele>510</ele>
        <time>2015-02-24T10:07:09Z</time>
      </trkpt>
      <trkpt lat="49.88093" lon="5.25988">
        <ele>510</ele>
        <time>2015-02-24T10:07:14Z</time>
      </trkpt>
      <trkpt lat="49.88097" lon="5.25995">
        <ele>510</ele>
        <time>2015-02-24T10:07:19Z</time>
      </trkpt>
      <trkpt lat="49.88102" lon="5.26004">
        <ele>510</ele>
        <time>2015-02-24T10:07:25Z</time>
      </trkpt>
      <trkpt lat="49.88108" lon="5.26012">
        <ele>510</ele>
        <time>2015-02-24T10:07:31Z</time>
      </trkpt>
      <trkpt lat="49.88115" lon="5.26021">
        <ele>510</ele>
        <time>2015-02-24T10:07:37Z</time>
      </trkpt>
      <trkpt lat="49.8812" lon="5.26027">
        <ele>510</ele>
        <time>2015-02-24T10:07:42Z</time>
      </trkpt>
      <trkpt lat="49.88125" lon="5.26033">
        <ele>510</ele>
        <time>2015-02-24T10:07:47Z</time>
      </trkpt>
      <trkpt lat="49.88131" lon="5.26041">
        <ele>510</ele>
        <time>2015-02-24T10:07:53Z</time>
      </trkpt>
      <trkpt lat="49.88136" lon="5.26049">
        <ele>510</ele>
        <time>2015-02-24T10:07:59Z</time>
      </trkpt>
      <trkpt lat="49.88142" lon="5.26057">
        <ele>510</ele>
        <time>2015-02-24T10:08:05Z</time>
      </trkpt>
      <trkpt lat="49.88149" lon="5.26064">
        <ele>510</ele>
        <time>2015-02-24T10:08:11Z</time>
      </trkpt>
      <trkpt lat="49.88155" lon="5.2607">
        <ele>510</ele>
        <time>2015-02-24T10:08:16Z</time>
      </trkpt>
      <trkpt lat="49.88161" lon="5.26078">
        <ele>510</ele>
        <time>2015-02-24T10:08:22Z</time>
      </trkpt>
      <trkpt lat="49.88167" lon="5.26083">
        <ele>510</ele>
        <time>2015-02-24T10:08:27Z</time>
      </trkpt>
      <trkpt lat="49.88173" lon="5.26089">
        <ele>510</ele>
        <time>2015-02-24T10:08:32Z</time>
      </trkpt>
      <trkpt lat="49.8818" lon="5.26096">
        <ele>510</ele>
        <time>2015-02-24T10:08:38Z</time>
      </trkpt>
      <trkpt lat="49.88185" lon="5.26103">
        <ele>510</ele>
        <time>2015-02-24T10:08:43Z</time>
      </trkpt>
      <trkpt lat="49.88191" lon="5.2611">
        <ele>510</ele>
        <time>2015-02-24T10:08:49Z</time>
      </trkpt>
      <trkpt lat="49.88196" lon="5.26116">
        <ele>510</ele>
        <time>2015-02-24T10:08:55Z</time>
      </trkpt>
      <trkpt lat="49.88202" lon="5.26123">
        <ele>510</ele>
        <time>2015-02-24T10:09:01Z</time>
      </trkpt>
      <trkpt lat="49.88206" lon="5.26128">
        <ele>510</ele>
        <time>2015-02-24T10:09:06Z</time>
      </trkpt>
      <trkpt lat="49.8821" lon="5.26133">
        <ele>510</ele>
        <time>2015-02-24T10:09:11Z</time>
      </trkpt>
      <trkpt lat="49.88215" lon="5.2614">
        <ele>510</ele>
        <time>2015-02-24T10:09:17Z</time>
      </trkpt>
      <trkpt lat="49.8822" lon="5.26146">
        <ele>510</ele>
        <time>2015-02-24T10:09:22Z</time>
      </trkpt>
      <trkpt lat="49.88224" lon="5.26152">
        <ele>510</ele>
        <time>2015-02-24T10:09:27Z</time>
      </trkpt>
      <trkpt lat="49.8823" lon="5.26158">
        <ele>510</ele>
        <time>2015-02-24T10:09:33Z</time>
      </trkpt>
      <trkpt lat="49.88234" lon="5.26164">
        <ele>510</ele>
        <time>2015-02-24T10:09:38Z</time>
      </trkpt>
      <trkpt lat="49.88238" lon="5.2617">
        <ele>510</ele>
        <time>2015-02-24T10:09:43Z</time>
      </trkpt>
      <trkpt lat="49.88242" lon="5.26177">
        <ele>510</ele>
        <time>2015-02-24T10:09:49Z</time>
      </trkpt>
      <trkpt lat="49.88247" lon="5.26184">
        <ele>510</ele>
        <time>2015-02-24T10:09:55Z</time>
      </trkpt>
      <trkpt lat="49.88252" lon="5.26191">
        <ele>510</ele>
        <time>2015-02-24T10:10:01Z</time>
      </trkpt>
      <trkpt lat="49.88257" lon="5.26196">
        <ele>510</ele>
        <time>2015-02-24T10:10:06Z</time>
      </trkpt>
      <trkpt lat="49.88261" lon="5.26201">
        <ele>510</ele>
        <time>2015-02-24T10:10:11Z</time>
      </trkpt>
      <trkpt lat="49.88266" lon="5.26208">
        <ele>510</ele>
        <time>2015-02-24T10:10:17Z</time>
      </trkpt>
      <trkpt lat="49.8827" lon="5.26213">
        <ele>510</ele>
        <time>2015-02-24T10:10:22Z</time>
      </trkpt>
      <trkpt lat="49.88274" lon="5.26219">
        <ele>510</ele>
        <time>2015-02-24T10:10:27Z</time>
      </trkpt>
      <trkpt lat="49.88279" lon="5.26225">
        <ele>510</ele>
        <time>2015-02-24T10:10:33Z</time>
      </trkpt>
      <trkpt lat="49.88284" lon="5.26231">
        <ele>510</ele>
        <time>2015-02-24T10:10:38Z</time>
      </trkpt>
      <trkpt lat="49.88289" lon="5.26238">
        <ele>510</ele>
        <time>2015-02-24T10:10:44Z</time>
      </trkpt>
      <trkpt lat="49.88296" lon="5.26245">
        <ele>511</ele>
        <time>2015-02-24T10:10:50Z</time>
      </trkpt>
      <trkpt lat="49.883" lon="5.26251">
        <ele>511</ele>
        <time>2015-02-24T10:10:55Z</time>
      </trkpt>
      <trkpt lat="49.88304" lon="5.26256">
        <ele>510</ele>
        <time>2015-02-24T10:11:00Z</time>
      </trkpt>
      <trkpt lat="49.8831" lon="5.26263">
        <ele>510</ele>
        <time>2015-02-24T10:11:06Z</time>
      </trkpt>
      <trkpt lat="49.88314" lon="5.26269">
        <ele>510</ele>
        <time>2015-02-24T10:11:12Z</time>
      </trkpt>
      <trkpt lat="49.88319" lon="5.26274">
        <ele>510</ele>
        <time>2015-02-24T10:11:17Z</time>
      </trkpt>
      <trkpt lat="49.88324" lon="5.26283">
        <ele>510</ele>
        <time>2015-02-24T10:11:23Z</time>
      </trkpt>
      <trkpt lat="49.88326" lon="5.2629">
        <ele>510</ele>
        <time>2015-02-24T10:11:28Z</time>
      </trkpt>
      <trkpt lat="49.88331" lon="5.26296">
        <ele>510</ele>
        <time>2015-02-24T10:11:34Z</time>
      </trkpt>
      <trkpt lat="49.88338" lon="5.26295">
        <ele>511</ele>
        <time>2015-02-24T10:11:39Z</time>
      </trkpt>
      <trkpt lat="49.88343" lon="5.26294">
        <ele>511</ele>
        <time>2015-02-24T10:11:45Z</time>
      </trkpt>
      <trkpt lat="49.88348" lon="5.26293">
        <ele>511</ele>
        <time>2015-02-24T10:11:51Z</time>
      </trkpt>
      <trkpt lat="49.88352" lon="5.26291">
        <ele>511</ele>
        <time>2015-02-24T10:11:57Z</time>
      </trkpt>
      <trkpt lat="49.88357" lon="5.2629">
        <ele>511</ele>
        <time>2015-02-24T10:12:03Z</time>
      </trkpt>
      <trkpt lat="49.88363" lon="5.26289">
        <ele>511</ele>
        <time>2015-02-24T10:12:08Z</time>
      </trkpt>
      <trkpt lat="49.88371" lon="5.26287">
        <ele>511</ele>
        <time>2015-02-24T10:12:14Z</time>
      </trkpt>
      <trkpt lat="49.88379" lon="5.26284">
        <ele>511</ele>
        <time>2015-02-24T10:12:20Z</time>
      </trkpt>
      <trkpt lat="49.88385" lon="5.26278">
        <ele>511</ele>
        <time>2015-02-24T10:12:25Z</time>
      </trkpt>
      <trkpt lat="49.88391" lon="5.26271">
        <ele>511</ele>
        <time>2015-02-24T10:12:30Z</time>
      </trkpt>
      <trkpt lat="49.88395" lon="5.26263">
        <ele>511</ele>
        <time>2015-02-24T10:12:36Z</time>
      </trkpt>
      <trkpt lat="49.884" lon="5.26256">
        <ele>511</ele>
        <time>2015-02-24T10:12:42Z</time>
      </trkpt>
      <trkpt lat="49.88403" lon="5.2625">
        <ele>511</ele>
        <time>2015-02-24T10:12:47Z</time>
      </trkpt>
      <trkpt lat="49.88407" lon="5.26241">
        <ele>511</ele>
        <time>2015-02-24T10:12:53Z</time>
      </trkpt>
      <trkpt lat="49.88412" lon="5.26233">
        <ele>512</ele>
        <time>2015-02-24T10:12:59Z</time>
      </trkpt>
      <trkpt lat="49.88416" lon="5.26228">
        <ele>511</ele>
        <time>2015-02-24T10:13:04Z</time>
      </trkpt>
      <trkpt lat="49.8842" lon="5.26228">
        <ele>511</ele>
        <time>2015-02-24T10:13:09Z</time>
      </trkpt>
      <trkpt lat="49.88422" lon="5.2623">
        <ele>512</ele>
        <time>2015-02-24T10:13:15Z</time>
      </trkpt>
      <trkpt lat="49.88425" lon="5.26229">
        <ele>512</ele>
        <time>2015-02-24T10:13:20Z</time>
      </trkpt>
      <trkpt lat="49.88427" lon="5.26223">
        <ele>512</ele>
        <time>2015-02-24T10:13:26Z</time>
      </trkpt>
      <trkpt lat="49.88429" lon="5.26213">
        <ele>512</ele>
        <time>2015-02-24T10:13:31Z</time>
      </trkpt>
      <trkpt lat="49.88431" lon="5.26204">
        <ele>512</ele>
        <time>2015-02-24T10:13:37Z</time>
      </trkpt>
      <trkpt lat="49.88434" lon="5.26197">
        <ele>512</ele>
        <time>2015-02-24T10:13:43Z</time>
      </trkpt>
      <trkpt lat="49.88437" lon="5.26191">
        <ele>512</ele>
        <time>2015-02-24T10:13:48Z</time>
      </trkpt>
      <trkpt lat="49.88441" lon="5.26183">
        <ele>511</ele>
        <time>2015-02-24T10:13:54Z</time>
      </trkpt>
      <trkpt lat="49.88445" lon="5.26178">
        <ele>511</ele>
        <time>2015-02-24T10:13:59Z</time>
      </trkpt>
      <trkpt lat="49.88448" lon="5.26169">
        <ele>511</ele>
        <time>2015-02-24T10:14:04Z</time>
      </trkpt>
      <trkpt lat="49.88452" lon="5.2616">
        <ele>511</ele>
        <time>2015-02-24T10:14:10Z</time>
      </trkpt>
      <trkpt lat="49.88456" lon="5.26156">
        <ele>511</ele>
        <time>2015-02-24T10:14:15Z</time>
      </trkpt>
      <trkpt lat="49.8846" lon="5.26152">
        <ele>510</ele>
        <time>2015-02-24T10:14:20Z</time>
      </trkpt>
      <trkpt lat="49.88465" lon="5.26145">
        <ele>510</ele>
        <time>2015-02-24T10:14:26Z</time>
      </trkpt>
      <trkpt lat="49.88468" lon="5.26142">
        <ele>510</ele>
        <time>2015-02-24T10:14:31Z</time>
      </trkpt>
      <trkpt lat="49.88472" lon="5.26139">
        <ele>510</ele>
        <time>2015-02-24T10:14:37Z</time>
      </trkpt>
      <trkpt lat="49.88475" lon="5.26138">
        <ele>510</ele>
        <time>2015-02-24T10:14:42Z</time>
      </trkpt>
      <trkpt lat="49.88481" lon="5.26136">
        <ele>510</ele>
        <time>2015-02-24T10:14:48Z</time>
      </trkpt>
      <trkpt lat="49.88485" lon="5.26134">
        <ele>510</ele>
        <time>2015-02-24T10:14:53Z</time>
      </trkpt>
      <trkpt lat="49.88488" lon="5.26133">
        <ele>510</ele>
        <time>2015-02-24T10:14:58Z</time>
      </trkpt>
      <trkpt lat="49.88495" lon="5.26131">
        <ele>511</ele>
        <time>2015-02-24T10:15:04Z</time>
      </trkpt>
      <trkpt lat="49.88498" lon="5.26127">
        <ele>511</ele>
        <time>2015-02-24T10:15:10Z</time>
      </trkpt>
      <trkpt lat="49.88503" lon="5.26126">
        <ele>511</ele>
        <time>2015-02-24T10:15:15Z</time>
      </trkpt>
      <trkpt lat="49.88509" lon="5.26125">
        <ele>511</ele>
        <time>2015-02-24T10:15:20Z</time>
      </trkpt>
      <trkpt lat="49.88514" lon="5.26123">
        <ele>511</ele>
        <time>2015-02-24T10:15:26Z</time>
      </trkpt>
      <trkpt lat="49.8852" lon="5.26121">
        <ele>511</ele>
        <time>2015-02-24T10:15:32Z</time>
      </trkpt>
      <trkpt lat="49.88523" lon="5.26119">
        <ele>511</ele>
        <time>2015-02-24T10:15:37Z</time>
      </trkpt>
      <trkpt lat="49.8853" lon="5.26117">
        <ele>510</ele>
        <time>2015-02-24T10:15:43Z</time>
      </trkpt>
      <trkpt lat="49.88535" lon="5.26114">
        <ele>510</ele>
        <time>2015-02-24T10:15:49Z</time>
      </trkpt>
      <trkpt lat="49.88539" lon="5.26112">
        <ele>510</ele>
        <time>2015-02-24T10:15:54Z</time>
      </trkpt>
      <trkpt lat="49.88543" lon="5.26109">
        <ele>509</ele>
        <time>2015-02-24T10:16:00Z</time>
      </trkpt>
      <trkpt lat="49.88548" lon="5.26107">
        <ele>509</ele>
        <time>2015-02-24T10:16:05Z</time>
      </trkpt>
      <trkpt lat="49.88552" lon="5.26103">
        <ele>509</ele>
        <time>2015-02-24T10:16:11Z</time>
      </trkpt>
      <trkpt lat="49.88557" lon="5.26101">
        <ele>509</ele>
        <time>2015-02-24T10:16:16Z</time>
      </trkpt>
      <trkpt lat="49.88559" lon="5.26102">
        <ele>509</ele>
        <time>2015-02-24T10:16:21Z</time>
      </trkpt>
      <trkpt lat="49.88562" lon="5.26102">
        <ele>509</ele>
        <time>2015-02-24T10:16:27Z</time>
      </trkpt>
      <trkpt lat="49.8857" lon="5.26103">
        <ele>509</ele>
        <time>2015-02-24T10:16:33Z</time>
      </trkpt>
      <trkpt lat="49.88576" lon="5.26101">
        <ele>509</ele>
        <time>2015-02-24T10:16:39Z</time>
      </trkpt>
      <trkpt lat="49.88581" lon="5.26098">
        <ele>509</ele>
        <time>2015-02-24T10:16:44Z</time>
      </trkpt>
      <trkpt lat="49.88588" lon="5.26095">
        <ele>509</ele>
        <time>2015-02-24T10:16:49Z</time>
      </trkpt>
      <trkpt lat="49.88593" lon="5.26092">
        <ele>508</ele>
        <time>2015-02-24T10:16:54Z</time>
      </trkpt>
      <trkpt lat="49.88598" lon="5.26089">
        <ele>508</ele>
        <time>2015-02-24T10:16:59Z</time>
      </trkpt>
      <trkpt lat="49.88604" lon="5.26085">
        <ele>508</ele>
        <time>2015-02-24T10:17:05Z</time>
      </trkpt>
      <trkpt lat="49.8861" lon="5.26082">
        <ele>507</ele>
        <time>2015-02-24T10:17:11Z</time>
      </trkpt>
      <trkpt lat="49.88617" lon="5.26078">
        <ele>507</ele>
        <time>2015-02-24T10:17:16Z</time>
      </trkpt>
      <trkpt lat="49.88621" lon="5.26076">
        <ele>506</ele>
        <time>2015-02-24T10:17:22Z</time>
      </trkpt>
      <trkpt lat="49.88627" lon="5.26074">
        <ele>506</ele>
        <time>2015-02-24T10:17:27Z</time>
      </trkpt>
      <trkpt lat="49.88631" lon="5.26073">
        <ele>506</ele>
        <time>2015-02-24T10:17:33Z</time>
      </trkpt>
      <trkpt lat="49.88636" lon="5.2607">
        <ele>506</ele>
        <time>2015-02-24T10:17:38Z</time>
      </trkpt>
      <trkpt lat="49.8864" lon="5.26066">
        <ele>506</ele>
        <time>2015-02-24T10:17:44Z</time>
      </trkpt>
      <trkpt lat="49.88644" lon="5.26064">
        <ele>505</ele>
        <time>2015-02-24T10:17:50Z</time>
      </trkpt>
      <trkpt lat="49.88648" lon="5.26062">
        <ele>505</ele>
        <time>2015-02-24T10:17:55Z</time>
      </trkpt>
      <trkpt lat="49.88654" lon="5.26061">
        <ele>504</ele>
        <time>2015-02-24T10:18:00Z</time>
      </trkpt>
      <trkpt lat="49.88659" lon="5.26058">
        <ele>504</ele>
        <time>2015-02-24T10:18:06Z</time>
      </trkpt>
      <trkpt lat="49.88663" lon="5.26056">
        <ele>504</ele>
        <time>2015-02-24T10:18:11Z</time>
      </trkpt>
      <trkpt lat="49.88669" lon="5.26054">
        <ele>504</ele>
        <time>2015-02-24T10:18:17Z</time>
      </trkpt>
      <trkpt lat="49.88674" lon="5.26053">
        <ele>504</ele>
        <time>2015-02-24T10:18:22Z</time>
      </trkpt>
      <trkpt lat="49.88679" lon="5.26051">
        <ele>504</ele>
        <time>2015-02-24T10:18:27Z</time>
      </trkpt>
      <trkpt lat="49.88686" lon="5.26048">
        <ele>503</ele>
        <time>2015-02-24T10:18:33Z</time>
      </trkpt>
      <trkpt lat="49.88692" lon="5.26044">
        <ele>502</ele>
        <time>2015-02-24T10:18:39Z</time>
      </trkpt>
      <trkpt lat="49.88694" lon="5.26041">
        <ele>502</ele>
        <time>2015-02-24T10:18:44Z</time>
      </trkpt>
      <trkpt lat="49.88704" lon="5.26041">
        <ele>502</ele>
        <time>2015-02-24T10:18:50Z</time>
      </trkpt>
      <trkpt lat="49.88709" lon="5.26039">
        <ele>502</ele>
        <time>2015-02-24T10:18:55Z</time>
      </trkpt>
      <trkpt lat="49.88715" lon="5.26036">
        <ele>502</ele>
        <time>2015-02-24T10:19:00Z</time>
      </trkpt>
      <trkpt lat="49.8872" lon="5.26034">
        <ele>501</ele>
        <time>2015-02-24T10:19:06Z</time>
      </trkpt>
      <trkpt lat="49.88725" lon="5.26034">
        <ele>501</ele>
        <time>2015-02-24T10:19:11Z</time>
      </trkpt>
      <trkpt lat="49.88733" lon="5.26036">
        <ele>502</ele>
        <time>2015-02-24T10:19:16Z</time>
      </trkpt>
      <trkpt lat="49.88739" lon="5.26034">
        <ele>501</ele>
        <time>2015-02-24T10:19:22Z</time>
      </trkpt>
      <trkpt lat="49.88746" lon="5.26031">
        <ele>501</ele>
        <time>2015-02-24T10:19:27Z</time>
      </trkpt>
      <trkpt lat="49.88751" lon="5.26028">
        <ele>501</ele>
        <time>2015-02-24T10:19:33Z</time>
      </trkpt>
      <trkpt lat="49.88757" lon="5.26025">
        <ele>501</ele>
        <time>2015-02-24T10:19:39Z</time>
      </trkpt>
      <trkpt lat="49.88761" lon="5.26022">
        <ele>500</ele>
        <time>2015-02-24T10:19:44Z</time>
      </trkpt>
      <trkpt lat="49.88766" lon="5.26022">
        <ele>500</ele>
        <time>2015-02-24T10:19:50Z</time>
      </trkpt>
      <trkpt lat="49.8877" lon="5.26026">
        <ele>500</ele>
        <time>2015-02-24T10:19:55Z</time>
      </trkpt>
      <trkpt lat="49.88774" lon="5.26029">
        <ele>500</ele>
        <time>2015-02-24T10:20:01Z</time>
      </trkpt>
      <trkpt lat="49.88779" lon="5.26034">
        <ele>500</ele>
        <time>2015-02-24T10:20:07Z</time>
      </trkpt>
      <trkpt lat="49.88781" lon="5.26039">
        <ele>500</ele>
        <time>2015-02-24T10:20:12Z</time>
      </trkpt>
      <trkpt lat="49.88782" lon="5.26043">
        <ele>500</ele>
        <time>2015-02-24T10:20:18Z</time>
      </trkpt>
      <trkpt lat="49.88783" lon="5.26048">
        <ele>500</ele>
        <time>2015-02-24T10:20:23Z</time>
      </trkpt>
      <trkpt lat="49.88784" lon="5.2605">
        <ele>500</ele>
        <time>2015-02-24T10:20:28Z</time>
      </trkpt>
      <trkpt lat="49.88783" lon="5.26051">
        <ele>500</ele>
        <time>2015-02-24T10:20:34Z</time>
      </trkpt>
      <trkpt lat="49.88785" lon="5.26051">
        <ele>500</ele>
        <time>2015-02-24T10:20:40Z</time>
      </trkpt>
      <trkpt lat="49.88788" lon="5.2605">
        <ele>499</ele>
        <time>2015-02-24T10:20:46Z</time>
      </trkpt>
      <trkpt lat="49.88792" lon="5.26048">
        <ele>499</ele>
        <time>2015-02-24T10:20:51Z</time>
      </trkpt>
      <trkpt lat="49.88794" lon="5.26047">
        <ele>499</ele>
        <time>2015-02-24T10:20:57Z</time>
      </trkpt>
      <trkpt lat="49.88793" lon="5.26045">
        <ele>499</ele>
        <time>2015-02-24T10:21:03Z</time>
      </trkpt>
      <trkpt lat="49.888" lon="5.26044">
        <ele>499</ele>
        <time>2015-02-24T10:21:09Z</time>
      </trkpt>
      <trkpt lat="49.88803" lon="5.26044">
        <ele>499</ele>
        <time>2015-02-24T10:21:15Z</time>
      </trkpt>
      <trkpt lat="49.88798" lon="5.26044">
        <ele>499</ele>
        <time>2015-02-24T10:21:21Z</time>
      </trkpt>
      <trkpt lat="49.88795" lon="5.26045">
        <ele>499</ele>
        <time>2015-02-24T10:21:26Z</time>
      </trkpt>
      <trkpt lat="49.88795" lon="5.26044">
        <ele>499</ele>
        <time>2015-02-24T10:21:31Z</time>
      </trkpt>
      <trkpt lat="49.88794" lon="5.26041">
        <ele>500</ele>
        <time>2015-02-24T10:21:37Z</time>
      </trkpt>
      <trkpt lat="49.88791" lon="5.2604">
        <ele>500</ele>
        <time>2015-02-24T10:21:42Z</time>
      </trkpt>
      <trkpt lat="49.88782" lon="5.26038">
        <ele>499</ele>
        <time>2015-02-24T10:21:48Z</time>
      </trkpt>
      <trkpt lat="49.88781" lon="5.26039">
        <ele>499</ele>
        <time>2015-02-24T10:21:53Z</time>
      </trkpt>
      <trkpt lat="49.88782" lon="5.26044">
        <ele>499</ele>
        <time>2015-02-24T10:21:59Z</time>
      </trkpt>
      <trkpt lat="49.88785" lon="5.26053">
        <ele>499</ele>
        <time>2015-02-24T10:22:04Z</time>
      </trkpt>
      <trkpt lat="49.88787" lon="5.26062">
        <ele>500</ele>
        <time>2015-02-24T10:22:09Z</time>
      </trkpt>
      <trkpt lat="49.88789" lon="5.26069">
        <ele>500</ele>
        <time>2015-02-24T10:22:15Z</time>
      </trkpt>
      <trkpt lat="49.8879" lon="5.26073">
        <ele>500</ele>
        <time>2015-02-24T10:22:20Z</time>
      </trkpt>
      <trkpt lat="49.88792" lon="5.2608">
        <ele>501</ele>
        <time>2015-02-24T10:22:25Z</time>
      </trkpt>
      <trkpt lat="49.88792" lon="5.26087">
        <ele>501</ele>
        <time>2015-02-24T10:22:30Z</time>
      </trkpt>
      <trkpt lat="49.88792" lon="5.26095">
        <ele>501</ele>
        <time>2015-02-24T10:22:36Z</time>
      </trkpt>
      <trkpt lat="49.88791" lon="5.26103">
        <ele>501</ele>
        <time>2015-02-24T10:22:42Z</time>
      </trkpt>
      <trkpt lat="49.88789" lon="5.2611">
        <ele>501</ele>
        <time>2015-02-24T10:22:48Z</time>
      </trkpt>
      <trkpt lat="49.88787" lon="5.26116">
        <ele>502</ele>
        <time>2015-02-24T10:22:53Z</time>
      </trkpt>
      <trkpt lat="49.88786" lon="5.26125">
        <ele>502</ele>
        <time>2015-02-24T10:22:59Z</time>
      </trkpt>
      <trkpt lat="49.88784" lon="5.26132">
        <ele>503</ele>
        <time>2015-02-24T10:23:04Z</time>
      </trkpt>
      <trkpt lat="49.88784" lon="5.2614">
        <ele>503</ele>
        <time>2015-02-24T10:23:10Z</time>
      </trkpt>
      <trkpt lat="49.88782" lon="5.26147">
        <ele>504</ele>
        <time>2015-02-24T10:23:15Z</time>
      </trkpt>
      <trkpt lat="49.8878" lon="5.26156">
        <ele>504</ele>
        <time>2015-02-24T10:23:21Z</time>
      </trkpt>
      <trkpt lat="49.88779" lon="5.26165">
        <ele>505</ele>
        <time>2015-02-24T10:23:26Z</time>
      </trkpt>
      <trkpt lat="49.88779" lon="5.26174">
        <ele>505</ele>
        <time>2015-02-24T10:23:32Z</time>
      </trkpt>
      <trkpt lat="49.88778" lon="5.26183">
        <ele>506</ele>
        <time>2015-02-24T10:23:38Z</time>
      </trkpt>
      <trkpt lat="49.88777" lon="5.26188">
        <ele>506</ele>
        <time>2015-02-24T10:23:44Z</time>
      </trkpt>
      <trkpt lat="49.88775" lon="5.26196">
        <ele>506</ele>
        <time>2015-02-24T10:23:49Z</time>
      </trkpt>
      <trkpt lat="49.88774" lon="5.26205">
        <ele>507</ele>
        <time>2015-02-24T10:23:54Z</time>
      </trkpt>
      <trkpt lat="49.88774" lon="5.26214">
        <ele>506</ele>
        <time>2015-02-24T10:24:00Z</time>
      </trkpt>
      <trkpt lat="49.88772" lon="5.26224">
        <ele>507</ele>
        <time>2015-02-24T10:24:05Z</time>
      </trkpt>
      <trkpt lat="49.88771" lon="5.26232">
        <ele>507</ele>
        <time>2015-02-24T10:24:11Z</time>
      </trkpt>
      <trkpt lat="49.8877" lon="5.26236">
        <ele>508</ele>
        <time>2015-02-24T10:24:16Z</time>
      </trkpt>
      <trkpt lat="49.88766" lon="5.2624">
        <ele>508</ele>
        <time>2015-02-24T10:24:22Z</time>
      </trkpt>
      <trkpt lat="49.88764" lon="5.26245">
        <ele>509</ele>
        <time>2015-02-24T10:24:27Z</time>
      </trkpt>
      <trkpt lat="49.88763" lon="5.26253">
        <ele>508</ele>
        <time>2015-02-24T10:24:33Z</time>
      </trkpt>
      <trkpt lat="49.8876" lon="5.26257">
        <ele>509</ele>
        <time>2015-02-24T10:24:38Z</time>
      </trkpt>
      <trkpt lat="49.8876" lon="5.26265">
        <ele>509</ele>
        <time>2015-02-24T10:24:43Z</time>
      </trkpt>
      <trkpt lat="49.8876" lon="5.26272">
        <ele>509</ele>
        <time>2015-02-24T10:24:48Z</time>
      </trkpt>
      <trkpt lat="49.88759" lon="5.2628">
        <ele>510</ele>
        <time>2015-02-24T10:24:53Z</time>
      </trkpt>
      <trkpt lat="49.8876" lon="5.26287">
        <ele>510</ele>
        <time>2015-02-24T10:24:58Z</time>
      </trkpt>
      <trkpt lat="49.88758" lon="5.26292">
        <ele>511</ele>
        <time>2015-02-24T10:25:03Z</time>
      </trkpt>
      <trkpt lat="49.88759" lon="5.26298">
        <ele>511</ele>
        <time>2015-02-24T10:25:09Z</time>
      </trkpt>
      <trkpt lat="49.88758" lon="5.26306">
        <ele>511</ele>
        <time>2015-02-24T10:25:14Z</time>
      </trkpt>
      <trkpt lat="49.88757" lon="5.26315">
        <ele>512</ele>
        <time>2015-02-24T10:25:20Z</time>
      </trkpt>
      <trkpt lat="49.88755" lon="5.26322">
        <ele>512</ele>
        <time>2015-02-24T10:25:25Z</time>
      </trkpt>
      <trkpt lat="49.88755" lon="5.2633">
        <ele>512</ele>
        <time>2015-02-24T10:25:30Z</time>
      </trkpt>
      <trkpt lat="49.88755" lon="5.26338">
        <ele>512</ele>
        <time>2015-02-24T10:25:36Z</time>
      </trkpt>
      <trkpt lat="49.88754" lon="5.26347">
        <ele>512</ele>
        <time>2015-02-24T10:25:41Z</time>
      </trkpt>
      <trkpt lat="49.88754" lon="5.26356">
        <ele>512</ele>
        <time>2015-02-24T10:25:47Z</time>
      </trkpt>
      <trkpt lat="49.88751" lon="5.26365">
        <ele>513</ele>
        <time>2015-02-24T10:25:52Z</time>
      </trkpt>
      <trkpt lat="49.88752" lon="5.2637">
        <ele>512</ele>
        <time>2015-02-24T10:25:58Z</time>
      </trkpt>
      <trkpt lat="49.88755" lon="5.26379">
        <ele>513</ele>
        <time>2015-02-24T10:26:04Z</time>
      </trkpt>
      <trkpt lat="49.88755" lon="5.26388">
        <ele>513</ele>
        <time>2015-02-24T10:26:09Z</time>
      </trkpt>
      <trkpt lat="49.88754" lon="5.26393">
        <ele>513</ele>
        <time>2015-02-24T10:26:15Z</time>
      </trkpt>
      <trkpt lat="49.88753" lon="5.26401">
        <ele>513</ele>
        <time>2015-02-24T10:26:20Z</time>
      </trkpt>
      <trkpt lat="49.88751" lon="5.26408">
        <ele>514</ele>
        <time>2015-02-24T10:26:25Z</time>
      </trkpt>
      <trkpt lat="49.88748" lon="5.26417">
        <ele>514</ele>
        <time>2015-02-24T10:26:30Z</time>
      </trkpt>
      <trkpt lat="49.88747" lon="5.26425">
        <ele>514</ele>
        <time>2015-02-24T10:26:36Z</time>
      </trkpt>
      <trkpt lat="49.88747" lon="5.26435">
        <ele>514</ele>
        <time>2015-02-24T10:26:42Z</time>
      </trkpt>
      <trkpt lat="49.88746" lon="5.26445">
        <ele>515</ele>
        <time>2015-02-24T10:26:48Z</time>
      </trkpt>
      <trkpt lat="49.88745" lon="5.26454">
        <ele>514</ele>
        <time>2015-02-24T10:26:54Z</time>
      </trkpt>
      <trkpt lat="49.88745" lon="5.26463">
        <ele>514</ele>
        <time>2015-02-24T10:26:59Z</time>
      </trkpt>
      <trkpt lat="49.88746" lon="5.2647">
        <ele>514</ele>
        <time>2015-02-24T10:27:04Z</time>
      </trkpt>
      <trkpt lat="49.88746" lon="5.26477">
        <ele>514</ele>
        <time>2015-02-24T10:27:09Z</time>
      </trkpt>
      <trkpt lat="49.88746" lon="5.26484">
        <ele>514</ele>
        <time>2015-02-24T10:27:15Z</time>
      </trkpt>
      <trkpt lat="49.88746" lon="5.26488">
        <ele>514</ele>
        <time>2015-02-24T10:27:21Z</time>
      </trkpt>
      <trkpt lat="49.88745" lon="5.26492">
        <ele>514</ele>
        <time>2015-02-24T10:27:26Z</time>
      </trkpt>
      <trkpt lat="49.88744" lon="5.265">
        <ele>514</ele>
        <time>2015-02-24T10:27:31Z</time>
      </trkpt>
      <trkpt lat="49.88744" lon="5.26506">
        <ele>513</ele>
        <time>2015-02-24T10:27:37Z</time>
      </trkpt>
      <trkpt lat="49.88744" lon="5.26513">
        <ele>514</ele>
        <time>2015-02-24T10:27:42Z</time>
      </trkpt>
      <trkpt lat="49.88743" lon="5.26523">
        <ele>514</ele>
        <time>2015-02-24T10:27:48Z</time>
      </trkpt>
      <trkpt lat="49.88742" lon="5.26534">
        <ele>514</ele>
        <time>2015-02-24T10:27:53Z</time>
      </trkpt>
      <trkpt lat="49.88743" lon="5.26543">
        <ele>514</ele>
        <time>2015-02-24T10:27:59Z</time>
      </trkpt>
      <trkpt lat="49.88743" lon="5.26552">
        <ele>514</ele>
        <time>2015-02-24T10:28:04Z</time>
      </trkpt>
      <trkpt lat="49.88743" lon="5.2656">
        <ele>514</ele>
        <time>2015-02-24T10:28:10Z</time>
      </trkpt>
      <trkpt lat="49.88742" lon="5.26567">
        <ele>514</ele>
        <time>2015-02-24T10:28:15Z</time>
      </trkpt>
      <trkpt lat="49.88742" lon="5.26574">
        <ele>514</ele>
        <time>2015-02-24T10:28:20Z</time>
      </trkpt>
      <trkpt lat="49.88741" lon="5.2658">
        <ele>514</ele>
        <time>2015-02-24T10:28:25Z</time>
      </trkpt>
      <trkpt lat="49.88739" lon="5.26585">
        <ele>514</ele>
        <time>2015-02-24T10:28:32Z</time>
      </trkpt>
      <trkpt lat="49.88738" lon="5.26587">
        <ele>514</ele>
        <time>2015-02-24T10:28:37Z</time>
      </trkpt>
      <trkpt lat="49.88736" lon="5.2659">
        <ele>514</ele>
        <time>2015-02-24T10:28:43Z</time>
      </trkpt>
      <trkpt lat="49.88734" lon="5.26597">
        <ele>514</ele>
        <time>2015-02-24T10:28:48Z</time>
      </trkpt>
      <trkpt lat="49.88734" lon="5.26604">
        <ele>514</ele>
        <time>2015-02-24T10:28:54Z</time>
      </trkpt>
      <trkpt lat="49.88734" lon="5.26614">
        <ele>514</ele>
        <time>2015-02-24T10:29:00Z</time>
      </trkpt>
      <trkpt lat="49.88734" lon="5.26622">
        <ele>514</ele>
        <time>2015-02-24T10:29:05Z</time>
      </trkpt>
      <trkpt lat="49.88734" lon="5.26631">
        <ele>515</ele>
        <time>2015-02-24T10:29:10Z</time>
      </trkpt>
      <trkpt lat="49.88734" lon="5.26641">
        <ele>515</ele>
        <time>2015-02-24T10:29:15Z</time>
      </trkpt>
      <trkpt lat="49.88731" lon="5.26649">
        <ele>515</ele>
        <time>2015-02-24T10:29:20Z</time>
      </trkpt>
      <trkpt lat="49.8873" lon="5.26656">
        <ele>515</ele>
        <time>2015-02-24T10:29:26Z</time>
      </trkpt>
      <trkpt lat="49.88729" lon="5.26666">
        <ele>516</ele>
        <time>2015-02-24T10:29:32Z</time>
      </trkpt>
      <trkpt lat="49.88728" lon="5.26676">
        <ele>516</ele>
        <time>2015-02-24T10:29:37Z</time>
      </trkpt>
      <trkpt lat="49.88727" lon="5.26684">
        <ele>516</ele>
        <time>2015-02-24T10:29:42Z</time>
      </trkpt>
      <trkpt lat="49.88726" lon="5.26694">
        <ele>516</ele>
        <time>2015-02-24T10:29:49Z</time>
      </trkpt>
      <trkpt lat="49.88725" lon="5.26703">
        <ele>516</ele>
        <time>2015-02-24T10:29:54Z</time>
      </trkpt>
      <trkpt lat="49.88724" lon="5.26714">
        <ele>516</ele>
        <time>2015-02-24T10:29:59Z</time>
      </trkpt>
      <trkpt lat="49.88723" lon="5.26719">
        <ele>517</ele>
        <time>2015-02-24T10:30:04Z</time>
      </trkpt>
      <trkpt lat="49.88725" lon="5.26723">
        <ele>517</ele>
        <time>2015-02-24T10:30:10Z</time>
      </trkpt>
      <trkpt lat="49.88728" lon="5.26727">
        <ele>517</ele>
        <time>2015-02-24T10:30:15Z</time>
      </trkpt>
      <trkpt lat="49.88732" lon="5.26731">
        <ele>516</ele>
        <time>2015-02-24T10:30:21Z</time>
      </trkpt>
      <trkpt lat="49.88736" lon="5.26734">
        <ele>517</ele>
        <time>2015-02-24T10:30:27Z</time>
      </trkpt>
      <trkpt lat="49.88742" lon="5.26739">
        <ele>517</ele>
        <time>2015-02-24T10:30:32Z</time>
      </trkpt>
      <trkpt lat="49.88747" lon="5.26743">
        <ele>516</ele>
        <time>2015-02-24T10:30:38Z</time>
      </trkpt>
      <trkpt lat="49.88754" lon="5.26749">
        <ele>517</ele>
        <time>2015-02-24T10:30:44Z</time>
      </trkpt>
      <trkpt lat="49.8876" lon="5.26754">
        <ele>516</ele>
        <time>2015-02-24T10:30:49Z</time>
      </trkpt>
      <trkpt lat="49.88767" lon="5.2676">
        <ele>516</ele>
        <time>2015-02-24T10:30:55Z</time>
      </trkpt>
      <trkpt lat="49.88774" lon="5.26765">
        <ele>516</ele>
        <time>2015-02-24T10:31:01Z</time>
      </trkpt>
      <trkpt lat="49.88781" lon="5.26772">
        <ele>516</ele>
        <time>2015-02-24T10:31:07Z</time>
      </trkpt>
      <trkpt lat="49.88789" lon="5.26779">
        <ele>516</ele>
        <time>2015-02-24T10:31:12Z</time>
      </trkpt>
      <trkpt lat="49.88795" lon="5.26785">
        <ele>516</ele>
        <time>2015-02-24T10:31:18Z</time>
      </trkpt>
      <trkpt lat="49.888" lon="5.26791">
        <ele>516</ele>
        <time>2015-02-24T10:31:24Z</time>
      </trkpt>
      <trkpt lat="49.88806" lon="5.26797">
        <ele>516</ele>
        <time>2015-02-24T10:31:29Z</time>
      </trkpt>
      <trkpt lat="49.88812" lon="5.26803">
        <ele>516</ele>
        <time>2015-02-24T10:31:36Z</time>
      </trkpt>
      <trkpt lat="49.88819" lon="5.2681">
        <ele>516</ele>
        <time>2015-02-24T10:31:42Z</time>
      </trkpt>
      <trkpt lat="49.88825" lon="5.26815">
        <ele>516</ele>
        <time>2015-02-24T10:31:48Z</time>
      </trkpt>
      <trkpt lat="49.88831" lon="5.2682">
        <ele>516</ele>
        <time>2015-02-24T10:31:53Z</time>
      </trkpt>
      <trkpt lat="49.88836" lon="5.26825">
        <ele>516</ele>
        <time>2015-02-24T10:31:58Z</time>
      </trkpt>
      <trkpt lat="49.88841" lon="5.26829">
        <ele>516</ele>
        <time>2015-02-24T10:32:04Z</time>
      </trkpt>
      <trkpt lat="49.88847" lon="5.26833">
        <ele>516</ele>
        <time>2015-02-24T10:32:09Z</time>
      </trkpt>
      <trkpt lat="49.88856" lon="5.26841">
        <ele>516</ele>
        <time>2015-02-24T10:32:14Z</time>
      </trkpt>
      <trkpt lat="49.88864" lon="5.26846">
        <ele>516</ele>
        <time>2015-02-24T10:32:20Z</time>
      </trkpt>
      <trkpt lat="49.88871" lon="5.26847">
        <ele>516</ele>
        <time>2015-02-24T10:32:25Z</time>
      </trkpt>
      <trkpt lat="49.88877" lon="5.26845">
        <ele>515</ele>
        <time>2015-02-24T10:32:30Z</time>
      </trkpt>
      <trkpt lat="49.88881" lon="5.26841">
        <ele>515</ele>
        <time>2015-02-24T10:32:36Z</time>
      </trkpt>
      <trkpt lat="49.88885" lon="5.26837">
        <ele>515</ele>
        <time>2015-02-24T10:32:41Z</time>
      </trkpt>
      <trkpt lat="49.88888" lon="5.26828">
        <ele>514</ele>
        <time>2015-02-24T10:32:47Z</time>
      </trkpt>
      <trkpt lat="49.88891" lon="5.26816">
        <ele>514</ele>
        <time>2015-02-24T10:32:53Z</time>
      </trkpt>
      <trkpt lat="49.88893" lon="5.26805">
        <ele>513</ele>
        <time>2015-02-24T10:32:58Z</time>
      </trkpt>
      <trkpt lat="49.88895" lon="5.26796">
        <ele>513</ele>
        <time>2015-02-24T10:33:04Z</time>
      </trkpt>
      <trkpt lat="49.88898" lon="5.26787">
        <ele>513</ele>
        <time>2015-02-24T10:33:09Z</time>
      </trkpt>
      <trkpt lat="49.88901" lon="5.26778">
        <ele>513</ele>
        <time>2015-02-24T10:33:15Z</time>
      </trkpt>
      <trkpt lat="49.88905" lon="5.2677">
        <ele>512</ele>
        <time>2015-02-24T10:33:20Z</time>
      </trkpt>
      <trkpt lat="49.88909" lon="5.26762">
        <ele>512</ele>
        <time>2015-02-24T10:33:26Z</time>
      </trkpt>
      <trkpt lat="49.88913" lon="5.26757">
        <ele>511</ele>
        <time>2015-02-24T10:33:32Z</time>
      </trkpt>
      <trkpt lat="49.88918" lon="5.26752">
        <ele>511</ele>
        <time>2015-02-24T10:33:37Z</time>
      </trkpt>
      <trkpt lat="49.88921" lon="5.26749">
        <ele>511</ele>
        <time>2015-02-24T10:33:42Z</time>
      </trkpt>
      <trkpt lat="49.88926" lon="5.26746">
        <ele>511</ele>
        <time>2015-02-24T10:33:49Z</time>
      </trkpt>
      <trkpt lat="49.88928" lon="5.26742">
        <ele>511</ele>
        <time>2015-02-24T10:33:54Z</time>
      </trkpt>
      <trkpt lat="49.88929" lon="5.26739">
        <ele>511</ele>
        <time>2015-02-24T10:33:59Z</time>
      </trkpt>
      <trkpt lat="49.88932" lon="5.26735">
        <ele>511</ele>
        <time>2015-02-24T10:34:04Z</time>
      </trkpt>
      <trkpt lat="49.88932" lon="5.26732">
        <ele>511</ele>
        <time>2015-02-24T10:34:10Z</time>
      </trkpt>
      <trkpt lat="49.88932" lon="5.26729">
        <ele>511</ele>
        <time>2015-02-24T10:34:15Z</time>
      </trkpt>
      <trkpt lat="49.88931" lon="5.26725">
        <ele>511</ele>
        <time>2015-02-24T10:34:20Z</time>
      </trkpt>
      <trkpt lat="49.88929" lon="5.26725">
        <ele>511</ele>
        <time>2015-02-24T10:34:25Z</time>
      </trkpt>
      <trkpt lat="49.88929" lon="5.26725">
        <ele>511</ele>
        <time>2015-02-24T10:34:31Z</time>
      </trkpt>
      <trkpt lat="49.88931" lon="5.26723">
        <ele>511</ele>
        <time>2015-02-24T10:34:36Z</time>
      </trkpt>
      <trkpt lat="49.88937" lon="5.26724">
        <ele>511</ele>
        <time>2015-02-24T10:34:42Z</time>
      </trkpt>
      <trkpt lat="49.88941" lon="5.26725">
        <ele>511</ele>
        <time>2015-02-24T10:34:48Z</time>
      </trkpt>
      <trkpt lat="49.88947" lon="5.26727">
        <ele>510</ele>
        <time>2015-02-24T10:34:53Z</time>
      </trkpt>
      <trkpt lat="49.88951" lon="5.26724">
        <ele>510</ele>
        <time>2015-02-24T10:34:59Z</time>
      </trkpt>
      <trkpt lat="49.88955" lon="5.26723">
        <ele>510</ele>
        <time>2015-02-24T10:35:04Z</time>
      </trkpt>
      <trkpt lat="49.88961" lon="5.26723">
        <ele>510</ele>
        <time>2015-02-24T10:35:09Z</time>
      </trkpt>
      <trkpt lat="49.88967" lon="5.26723">
        <ele>511</ele>
        <time>2015-02-24T10:35:16Z</time>
      </trkpt>
      <trkpt lat="49.88971" lon="5.26725">
        <ele>511</ele>
        <time>2015-02-24T10:35:21Z</time>
      </trkpt>
      <trkpt lat="49.88975" lon="5.26726">
        <ele>511</ele>
        <time>2015-02-24T10:35:26Z</time>
      </trkpt>
      <trkpt lat="49.88978" lon="5.26725">
        <ele>511</ele>
        <time>2015-02-24T10:35:32Z</time>
      </trkpt>
      <trkpt lat="49.88982" lon="5.26722">
        <ele>511</ele>
        <time>2015-02-24T10:35:37Z</time>
      </trkpt>
      <trkpt lat="49.88985" lon="5.26717">
        <ele>511</ele>
        <time>2015-02-24T10:35:42Z</time>
      </trkpt>
      <trkpt lat="49.88989" lon="5.26711">
        <ele>511</ele>
        <time>2015-02-24T10:35:47Z</time>
      </trkpt>
      <trkpt lat="49.88993" lon="5.26708">
        <ele>511</ele>
        <time>2015-02-24T10:35:52Z</time>
      </trkpt>
      <trkpt lat="49.88996" lon="5.26705">
        <ele>512</ele>
        <time>2015-02-24T10:35:58Z</time>
      </trkpt>
      <trkpt lat="49.89001" lon="5.26701">
        <ele>512</ele>
        <time>2015-02-24T10:36:03Z</time>
      </trkpt>
      <trkpt lat="49.89007" lon="5.26698">
        <ele>512</ele>
        <time>2015-02-24T10:36:09Z</time>
      </trkpt>
      <trkpt lat="49.89012" lon="5.26694">
        <ele>512</ele>
        <time>2015-02-24T10:36:14Z</time>
      </trkpt>
      <trkpt lat="49.89017" lon="5.2669">
        <ele>512</ele>
        <time>2015-02-24T10:36:19Z</time>
      </trkpt>
      <trkpt lat="49.89021" lon="5.2669">
        <ele>513</ele>
        <time>2015-02-24T10:36:24Z</time>
      </trkpt>
      <trkpt lat="49.89024" lon="5.26687">
        <ele>512</ele>
        <time>2015-02-24T10:36:29Z</time>
      </trkpt>
      <trkpt lat="49.89026" lon="5.26684">
        <ele>512</ele>
        <time>2015-02-24T10:36:34Z</time>
      </trkpt>
      <trkpt lat="49.89027" lon="5.2668">
        <ele>512</ele>
        <time>2015-02-24T10:36:40Z</time>
      </trkpt>
      <trkpt lat="49.89028" lon="5.26678">
        <ele>512</ele>
        <time>2015-02-24T10:36:45Z</time>
      </trkpt>
      <trkpt lat="49.8903" lon="5.26678">
        <ele>513</ele>
        <time>2015-02-24T10:36:51Z</time>
      </trkpt>
      <trkpt lat="49.89034" lon="5.26682">
        <ele>513</ele>
        <time>2015-02-24T10:36:56Z</time>
      </trkpt>
      <trkpt lat="49.89037" lon="5.26687">
        <ele>513</ele>
        <time>2015-02-24T10:37:01Z</time>
      </trkpt>
      <trkpt lat="49.89041" lon="5.26695">
        <ele>513</ele>
        <time>2015-02-24T10:37:06Z</time>
      </trkpt>
      <trkpt lat="49.89043" lon="5.26703">
        <ele>513</ele>
        <time>2015-02-24T10:37:12Z</time>
      </trkpt>
      <trkpt lat="49.89047" lon="5.2671">
        <ele>513</ele>
        <time>2015-02-24T10:37:18Z</time>
      </trkpt>
      <trkpt lat="49.8905" lon="5.26712">
        <ele>513</ele>
        <time>2015-02-24T10:37:23Z</time>
      </trkpt>
      <trkpt lat="49.89054" lon="5.26717">
        <ele>513</ele>
        <time>2015-02-24T10:37:28Z</time>
      </trkpt>
      <trkpt lat="49.89058" lon="5.2672">
        <ele>513</ele>
        <time>2015-02-24T10:37:33Z</time>
      </trkpt>
      <trkpt lat="49.89062" lon="5.26723">
        <ele>513</ele>
        <time>2015-02-24T10:37:38Z</time>
      </trkpt>
      <trkpt lat="49.89065" lon="5.26727">
        <ele>513</ele>
        <time>2015-02-24T10:37:43Z</time>
      </trkpt>
      <trkpt lat="49.89068" lon="5.26729">
        <ele>513</ele>
        <time>2015-02-24T10:37:49Z</time>
      </trkpt>
      <trkpt lat="49.89068" lon="5.2673">
        <ele>513</ele>
        <time>2015-02-24T10:37:54Z</time>
      </trkpt>
      <trkpt lat="49.89069" lon="5.26733">
        <ele>513</ele>
        <time>2015-02-24T10:38:00Z</time>
      </trkpt>
      <trkpt lat="49.89069" lon="5.26741">
        <ele>514</ele>
        <time>2015-02-24T10:38:06Z</time>
      </trkpt>
      <trkpt lat="49.89071" lon="5.26748">
        <ele>513</ele>
        <time>2015-02-24T10:38:11Z</time>
      </trkpt>
      <trkpt lat="49.89073" lon="5.26755">
        <ele>513</ele>
        <time>2015-02-24T10:38:17Z</time>
      </trkpt>
      <trkpt lat="49.89074" lon="5.26763">
        <ele>514</ele>
        <time>2015-02-24T10:38:22Z</time>
      </trkpt>
      <trkpt lat="49.89075" lon="5.26771">
        <ele>514</ele>
        <time>2015-02-24T10:38:28Z</time>
      </trkpt>
      <trkpt lat="49.89075" lon="5.26776">
        <ele>514</ele>
        <time>2015-02-24T10:38:33Z</time>
      </trkpt>
      <trkpt lat="49.89076" lon="5.26785">
        <ele>514</ele>
        <time>2015-02-24T10:38:40Z</time>
      </trkpt>
      <trkpt lat="49.89077" lon="5.26794">
        <ele>514</ele>
        <time>2015-02-24T10:38:45Z</time>
      </trkpt>
      <trkpt lat="49.89079" lon="5.26802">
        <ele>515</ele>
        <time>2015-02-24T10:38:51Z</time>
      </trkpt>
      <trkpt lat="49.89082" lon="5.26811">
        <ele>515</ele>
        <time>2015-02-24T10:38:56Z</time>
      </trkpt>
      <trkpt lat="49.89084" lon="5.26814">
        <ele>515</ele>
        <time>2015-02-24T10:39:01Z</time>
      </trkpt>
      <trkpt lat="49.89089" lon="5.26815">
        <ele>515</ele>
        <time>2015-02-24T10:39:07Z</time>
      </trkpt>
      <trkpt lat="49.89096" lon="5.26816">
        <ele>514</ele>
        <time>2015-02-24T10:39:13Z</time>
      </trkpt>
      <trkpt lat="49.89101" lon="5.26818">
        <ele>514</ele>
        <time>2015-02-24T10:39:18Z</time>
      </trkpt>
      <trkpt lat="49.89108" lon="5.26821">
        <ele>514</ele>
        <time>2015-02-24T10:39:24Z</time>
      </trkpt>
      <trkpt lat="49.89113" lon="5.26822">
        <ele>514</ele>
        <time>2015-02-24T10:39:29Z</time>
      </trkpt>
      <trkpt lat="49.89119" lon="5.26823">
        <ele>514</ele>
        <time>2015-02-24T10:39:35Z</time>
      </trkpt>
      <trkpt lat="49.89123" lon="5.26823">
        <ele>514</ele>
        <time>2015-02-24T10:39:40Z</time>
      </trkpt>
      <trkpt lat="49.89127" lon="5.26825">
        <ele>513</ele>
        <time>2015-02-24T10:39:45Z</time>
      </trkpt>
      <trkpt lat="49.89134" lon="5.26828">
        <ele>513</ele>
        <time>2015-02-24T10:39:51Z</time>
      </trkpt>
      <trkpt lat="49.89139" lon="5.26832">
        <ele>514</ele>
        <time>2015-02-24T10:39:57Z</time>
      </trkpt>
      <trkpt lat="49.89142" lon="5.26834">
        <ele>514</ele>
        <time>2015-02-24T10:40:02Z</time>
      </trkpt>
      <trkpt lat="49.89147" lon="5.26834">
        <ele>514</ele>
        <time>2015-02-24T10:40:08Z</time>
      </trkpt>
      <trkpt lat="49.89152" lon="5.26835">
        <ele>514</ele>
        <time>2015-02-24T10:40:13Z</time>
      </trkpt>
      <trkpt lat="49.89159" lon="5.26836">
        <ele>514</ele>
        <time>2015-02-24T10:40:19Z</time>
      </trkpt>
      <trkpt lat="49.89164" lon="5.26835">
        <ele>513</ele>
        <time>2015-02-24T10:40:24Z</time>
      </trkpt>
      <trkpt lat="49.89169" lon="5.26835">
        <ele>514</ele>
        <time>2015-02-24T10:40:29Z</time>
      </trkpt>
      <trkpt lat="49.89175" lon="5.26839">
        <ele>514</ele>
        <time>2015-02-24T10:40:35Z</time>
      </trkpt>
      <trkpt lat="49.8918" lon="5.26841">
        <ele>513</ele>
        <time>2015-02-24T10:40:41Z</time>
      </trkpt>
      <trkpt lat="49.89187" lon="5.26843">
        <ele>513</ele>
        <time>2015-02-24T10:40:47Z</time>
      </trkpt>
      <trkpt lat="49.89191" lon="5.26847">
        <ele>514</ele>
        <time>2015-02-24T10:40:52Z</time>
      </trkpt>
      <trkpt lat="49.89195" lon="5.26849">
        <ele>514</ele>
        <time>2015-02-24T10:40:57Z</time>
      </trkpt>
      <trkpt lat="49.89201" lon="5.26851">
        <ele>513</ele>
        <time>2015-02-24T10:41:03Z</time>
      </trkpt>
      <trkpt lat="49.89209" lon="5.26852">
        <ele>513</ele>
        <time>2015-02-24T10:41:09Z</time>
      </trkpt>
      <trkpt lat="49.89213" lon="5.26854">
        <ele>513</ele>
        <time>2015-02-24T10:41:14Z</time>
      </trkpt>
      <trkpt lat="49.89217" lon="5.26856">
        <ele>513</ele>
        <time>2015-02-24T10:41:19Z</time>
      </trkpt>
      <trkpt lat="49.89222" lon="5.26857">
        <ele>514</ele>
        <time>2015-02-24T10:41:25Z</time>
      </trkpt>
      <trkpt lat="49.89226" lon="5.2686">
        <ele>514</ele>
        <time>2015-02-24T10:41:31Z</time>
      </trkpt>
      <trkpt lat="49.8923" lon="5.26861">
        <ele>514</ele>
        <time>2015-02-24T10:41:36Z</time>
      </trkpt>
      <trkpt lat="49.89235" lon="5.2686">
        <ele>514</ele>
        <time>2015-02-24T10:41:42Z</time>
      </trkpt>
      <trkpt lat="49.89239" lon="5.2686">
        <ele>514</ele>
        <time>2015-02-24T10:41:47Z</time>
      </trkpt>
      <trkpt lat="49.89243" lon="5.26861">
        <ele>514</ele>
        <time>2015-02-24T10:41:53Z</time>
      </trkpt>
      <trkpt lat="49.89248" lon="5.26862">
        <ele>514</ele>
        <time>2015-02-24T10:41:59Z</time>
      </trkpt>
      <trkpt lat="49.89252" lon="5.26862">
        <ele>514</ele>
        <time>2015-02-24T10:42:04Z</time>
      </trkpt>
      <trkpt lat="49.89256" lon="5.2686">
        <ele>513</ele>
        <time>2015-02-24T10:42:10Z</time>
      </trkpt>
      <trkpt lat="49.89259" lon="5.26861">
        <ele>513</ele>
        <time>2015-02-24T10:42:16Z</time>
      </trkpt>
      <trkpt lat="49.89265" lon="5.26861">
        <ele>514</ele>
        <time>2015-02-24T10:42:21Z</time>
      </trkpt>
      <trkpt lat="49.8927" lon="5.2686">
        <ele>514</ele>
        <time>2015-02-24T10:42:26Z</time>
      </trkpt>
      <trkpt lat="49.89277" lon="5.26861">
        <ele>513</ele>
        <time>2015-02-24T10:42:31Z</time>
      </trkpt>
      <trkpt lat="49.89282" lon="5.26857">
        <ele>513</ele>
        <time>2015-02-24T10:42:37Z</time>
      </trkpt>
      <trkpt lat="49.89286" lon="5.26854">
        <ele>513</ele>
        <time>2015-02-24T10:42:42Z</time>
      </trkpt>
      <trkpt lat="49.89288" lon="5.26848">
        <ele>514</ele>
        <time>2015-02-24T10:42:48Z</time>
      </trkpt>
      <trkpt lat="49.89291" lon="5.26845">
        <ele>513</ele>
        <time>2015-02-24T10:42:54Z</time>
      </trkpt>
      <trkpt lat="49.89294" lon="5.26841">
        <ele>513</ele>
        <time>2015-02-24T10:42:59Z</time>
      </trkpt>
      <trkpt lat="49.89296" lon="5.26836">
        <ele>513</ele>
        <time>2015-02-24T10:43:04Z</time>
      </trkpt>
      <trkpt lat="49.89297" lon="5.26834">
        <ele>513</ele>
        <time>2015-02-24T10:43:10Z</time>
      </trkpt>
      <trkpt lat="49.89299" lon="5.26832">
        <ele>513</ele>
        <time>2015-02-24T10:43:15Z</time>
      </trkpt>
      <trkpt lat="49.89303" lon="5.2683">
        <ele>514</ele>
        <time>2015-02-24T10:43:21Z</time>
      </trkpt>
      <trkpt lat="49.89306" lon="5.26824">
        <ele>513</ele>
        <time>2015-02-24T10:43:26Z</time>
      </trkpt>
      <trkpt lat="49.89308" lon="5.26819">
        <ele>513</ele>
        <time>2015-02-24T10:43:31Z</time>
      </trkpt>
      <trkpt lat="49.89312" lon="5.26817">
        <ele>513</ele>
        <time>2015-02-24T10:43:37Z</time>
      </trkpt>
      <trkpt lat="49.89315" lon="5.26813">
        <ele>512</ele>
        <time>2015-02-24T10:43:42Z</time>
      </trkpt>
      <trkpt lat="49.89317" lon="5.26807">
        <ele>512</ele>
        <time>2015-02-24T10:43:47Z</time>
      </trkpt>
      <trkpt lat="49.8932" lon="5.268">
        <ele>512</ele>
        <time>2015-02-24T10:43:53Z</time>
      </trkpt>
      <trkpt lat="49.89324" lon="5.26794">
        <ele>512</ele>
        <time>2015-02-24T10:43:59Z</time>
      </trkpt>
      <trkpt lat="49.89326" lon="5.26787">
        <ele>512</ele>
        <time>2015-02-24T10:44:05Z</time>
      </trkpt>
      <trkpt lat="49.89328" lon="5.26782">
        <ele>511</ele>
        <time>2015-02-24T10:44:11Z</time>
      </trkpt>
      <trkpt lat="49.89331" lon="5.26777">
        <ele>511</ele>
        <time>2015-02-24T10:44:16Z</time>
      </trkpt>
      <trkpt lat="49.89333" lon="5.26771">
        <ele>511</ele>
        <time>2015-02-24T10:44:21Z</time>
      </trkpt>
      <trkpt lat="49.89336" lon="5.26764">
        <ele>511</ele>
        <time>2015-02-24T10:44:27Z</time>
      </trkpt>
      <trkpt lat="49.89336" lon="5.26754">
        <ele>512</ele>
        <time>2015-02-24T10:44:33Z</time>
      </trkpt>
      <trkpt lat="49.89338" lon="5.26751">
        <ele>511</ele>
        <time>2015-02-24T10:44:38Z</time>
      </trkpt>
      <trkpt lat="49.89341" lon="5.26747">
        <ele>511</ele>
        <time>2015-02-24T10:44:43Z</time>
      </trkpt>
      <trkpt lat="49.89347" lon="5.26742">
        <ele>511</ele>
        <time>2015-02-24T10:44:49Z</time>
      </trkpt>
      <trkpt lat="49.89353" lon="5.2674">
        <ele>512</ele>
        <time>2015-02-24T10:44:55Z</time>
      </trkpt>
      <trkpt lat="49.89358" lon="5.26737">
        <ele>512</ele>
        <time>2015-02-24T10:45:00Z</time>
      </trkpt>
      <trkpt lat="49.89363" lon="5.26735">
        <ele>512</ele>
        <time>2015-02-24T10:45:05Z</time>
      </trkpt>
      <trkpt lat="49.89368" lon="5.26732">
        <ele>512</ele>
        <time>2015-02-24T10:45:11Z</time>
      </trkpt>
      <trkpt lat="49.89372" lon="5.26727">
        <ele>512</ele>
        <time>2015-02-24T10:45:17Z</time>
      </trkpt>
      <trkpt lat="49.89375" lon="5.26721">
        <ele>512</ele>
        <time>2015-02-24T10:45:23Z</time>
      </trkpt>
      <trkpt lat="49.89378" lon="5.26717">
        <ele>512</ele>
        <time>2015-02-24T10:45:28Z</time>
      </trkpt>
      <trkpt lat="49.89382" lon="5.26712">
        <ele>511</ele>
        <time>2015-02-24T10:45:34Z</time>
      </trkpt>
      <trkpt lat="49.89386" lon="5.26707">
        <ele>511</ele>
        <time>2015-02-24T10:45:40Z</time>
      </trkpt>
      <trkpt lat="49.8939" lon="5.26703">
        <ele>510</ele>
        <time>2015-02-24T10:45:45Z</time>
      </trkpt>
      <trkpt lat="49.89394" lon="5.26698">
        <ele>510</ele>
        <time>2015-02-24T10:45:50Z</time>
      </trkpt>
      <trkpt lat="49.89398" lon="5.26694">
        <ele>510</ele>
        <time>2015-02-24T10:45:56Z</time>
      </trkpt>
      <trkpt lat="49.89401" lon="5.26689">
        <ele>509</ele>
        <time>2015-02-24T10:46:01Z</time>
      </trkpt>
      <trkpt lat="49.89405" lon="5.26686">
        <ele>510</ele>
        <time>2015-02-24T10:46:06Z</time>
      </trkpt>
      <trkpt lat="49.89408" lon="5.2668">
        <ele>510</ele>
        <time>2015-02-24T10:46:12Z</time>
      </trkpt>
      <trkpt lat="49.89412" lon="5.26676">
        <ele>510</ele>
        <time>2015-02-24T10:46:17Z</time>
      </trkpt>
      <trkpt lat="49.89415" lon="5.26672">
        <ele>510</ele>
        <time>2015-02-24T10:46:22Z</time>
      </trkpt>
      <trkpt lat="49.89417" lon="5.2667">
        <ele>510</ele>
        <time>2015-02-24T10:46:27Z</time>
      </trkpt>
      <trkpt lat="49.89421" lon="5.26667">
        <ele>510</ele>
        <time>2015-02-24T10:46:33Z</time>
      </trkpt>
      <trkpt lat="49.89423" lon="5.26669">
        <ele>510</ele>
        <time>2015-02-24T10:46:38Z</time>
      </trkpt>
      <trkpt lat="49.89427" lon="5.26669">
        <ele>510</ele>
        <time>2015-02-24T10:46:43Z</time>
      </trkpt>
      <trkpt lat="49.8943" lon="5.26667">
        <ele>511</ele>
        <time>2015-02-24T10:46:49Z</time>
      </trkpt>
      <trkpt lat="49.89436" lon="5.26666">
        <ele>511</ele>
        <time>2015-02-24T10:46:55Z</time>
      </trkpt>
      <trkpt lat="49.8944" lon="5.26665">
        <ele>511</ele>
        <time>2015-02-24T10:47:00Z</time>
      </trkpt>
      <trkpt lat="49.89445" lon="5.26661">
        <ele>512</ele>
        <time>2015-02-24T10:47:06Z</time>
      </trkpt>
      <trkpt lat="49.8945" lon="5.2666">
        <ele>512</ele>
        <time>2015-02-24T10:47:11Z</time>
      </trkpt>
      <trkpt lat="49.89455" lon="5.26659">
        <ele>512</ele>
        <time>2015-02-24T10:47:16Z</time>
      </trkpt>
      <trkpt lat="49.89458" lon="5.26657">
        <ele>512</ele>
        <time>2015-02-24T10:47:22Z</time>
      </trkpt>
      <trkpt lat="49.8946" lon="5.26655">
        <ele>512</ele>
        <time>2015-02-24T10:47:28Z</time>
      </trkpt>
      <trkpt lat="49.89461" lon="5.26654">
        <ele>513</ele>
        <time>2015-02-24T10:47:34Z</time>
      </trkpt>
      <trkpt lat="49.89463" lon="5.26656">
        <ele>513</ele>
        <time>2015-02-24T10:47:39Z</time>
      </trkpt>
      <trkpt lat="49.89463" lon="5.26658">
        <ele>513</ele>
        <time>2015-02-24T10:47:45Z</time>
      </trkpt>
      <trkpt lat="49.89463" lon="5.26663">
        <ele>513</ele>
        <time>2015-02-24T10:47:50Z</time>
      </trkpt>
      <trkpt lat="49.89464" lon="5.26671">
        <ele>513</ele>
        <time>2015-02-24T10:47:55Z</time>
      </trkpt>
      <trkpt lat="49.89465" lon="5.26678">
        <ele>512</ele>
        <time>2015-02-24T10:48:00Z</time>
      </trkpt>
      <trkpt lat="49.89466" lon="5.26684">
        <ele>512</ele>
        <time>2015-02-24T10:48:05Z</time>
      </trkpt>
      <trkpt lat="49.8947" lon="5.2669">
        <ele>512</ele>
        <time>2015-02-24T10:48:11Z</time>
      </trkpt>
      <trkpt lat="49.8947" lon="5.26696">
        <ele>511</ele>
        <time>2015-02-24T10:48:17Z</time>
      </trkpt>
      <trkpt lat="49.89469" lon="5.26704">
        <ele>511</ele>
        <time>2015-02-24T10:48:23Z</time>
      </trkpt>
      <trkpt lat="49.8947" lon="5.26711">
        <ele>512</ele>
        <time>2015-02-24T10:48:28Z</time>
      </trkpt>
      <trkpt lat="49.89467" lon="5.26718">
        <ele>512</ele>
        <time>2015-02-24T10:48:33Z</time>
      </trkpt>
      <trkpt lat="49.89463" lon="5.26725">
        <ele>512</ele>
        <time>2015-02-24T10:48:39Z</time>
      </trkpt>
      <trkpt lat="49.89462" lon="5.26734">
        <ele>512</ele>
        <time>2015-02-24T10:48:45Z</time>
      </trkpt>
      <trkpt lat="49.89463" lon="5.26743">
        <ele>512</ele>
        <time>2015-02-24T10:48:50Z</time>
      </trkpt>
      <trkpt lat="49.89462" lon="5.26749">
        <ele>512</ele>
        <time>2015-02-24T10:48:55Z</time>
      </trkpt>
      <trkpt lat="49.89461" lon="5.26757">
        <ele>512</ele>
        <time>2015-02-24T10:49:01Z</time>
      </trkpt>
      <trkpt lat="49.8946" lon="5.26765">
        <ele>513</ele>
        <time>2015-02-24T10:49:07Z</time>
      </trkpt>
      <trkpt lat="49.8946" lon="5.26773">
        <ele>513</ele>
        <time>2015-02-24T10:49:12Z</time>
      </trkpt>
      <trkpt lat="49.89463" lon="5.26779">
        <ele>512</ele>
        <time>2015-02-24T10:49:18Z</time>
      </trkpt>
      <trkpt lat="49.89466" lon="5.26781">
        <ele>513</ele>
        <time>2015-02-24T10:49:23Z</time>
      </trkpt>
      <trkpt lat="49.89469" lon="5.26782">
        <ele>513</ele>
        <time>2015-02-24T10:49:28Z</time>
      </trkpt>
      <trkpt lat="49.89473" lon="5.26783">
        <ele>513</ele>
        <time>2015-02-24T10:49:33Z</time>
      </trkpt>
      <trkpt lat="49.89479" lon="5.26787">
        <ele>514</ele>
        <time>2015-02-24T10:49:39Z</time>
      </trkpt>
      <trkpt lat="49.89484" lon="5.2679">
        <ele>514</ele>
        <time>2015-02-24T10:49:45Z</time>
      </trkpt>
      <trkpt lat="49.89488" lon="5.26791">
        <ele>514</ele>
        <time>2015-02-24T10:49:51Z</time>
      </trkpt>
      <trkpt lat="49.89493" lon="5.26794">
        <ele>515</ele>
        <time>2015-02-24T10:49:57Z</time>
      </trkpt>
      <trkpt lat="49.89497" lon="5.26794">
        <ele>515</ele>
        <time>2015-02-24T10:50:02Z</time>
      </trkpt>
      <trkpt lat="49.895" lon="5.26794">
        <ele>516</ele>
        <time>2015-02-24T10:50:07Z</time>
      </trkpt>
      <trkpt lat="49.89504" lon="5.26798">
        <ele>516</ele>
        <time>2015-02-24T10:50:12Z</time>
      </trkpt>
      <trkpt lat="49.89507" lon="5.26804">
        <ele>516</ele>
        <time>2015-02-24T10:50:18Z</time>
      </trkpt>
      <trkpt lat="49.89513" lon="5.2681">
        <ele>517</ele>
        <time>2015-02-24T10:50:24Z</time>
      </trkpt>
      <trkpt lat="49.89516" lon="5.26817">
        <ele>517</ele>
        <time>2015-02-24T10:50:30Z</time>
      </trkpt>
      <trkpt lat="49.89521" lon="5.26825">
        <ele>517</ele>
        <time>2015-02-24T10:50:36Z</time>
      </trkpt>
      <trkpt lat="49.89526" lon="5.26834">
        <ele>518</ele>
        <time>2015-02-24T10:50:42Z</time>
      </trkpt>
      <trkpt lat="49.89529" lon="5.26838">
        <ele>518</ele>
        <time>2015-02-24T10:50:47Z</time>
      </trkpt>
      <trkpt lat="49.89534" lon="5.2684">
        <ele>518</ele>
        <time>2015-02-24T10:50:53Z</time>
      </trkpt>
      <trkpt lat="49.89538" lon="5.2684">
        <ele>518</ele>
        <time>2015-02-24T10:50:58Z</time>
      </trkpt>
      <trkpt lat="49.89545" lon="5.2684">
        <ele>518</ele>
        <time>2015-02-24T10:51:04Z</time>
      </trkpt>
      <trkpt lat="49.89552" lon="5.2684">
        <ele>518</ele>
        <time>2015-02-24T10:51:09Z</time>
      </trkpt>
      <trkpt lat="49.8956" lon="5.26839">
        <ele>518</ele>
        <time>2015-02-24T10:51:15Z</time>
      </trkpt>
      <trkpt lat="49.89566" lon="5.26838">
        <ele>519</ele>
        <time>2015-02-24T10:51:21Z</time>
      </trkpt>
      <trkpt lat="49.89571" lon="5.26838">
        <ele>520</ele>
        <time>2015-02-24T10:51:26Z</time>
      </trkpt>
      <trkpt lat="49.89577" lon="5.26839">
        <ele>520</ele>
        <time>2015-02-24T10:51:33Z</time>
      </trkpt>
      <trkpt lat="49.89582" lon="5.2684">
        <ele>519</ele>
        <time>2015-02-24T10:51:38Z</time>
      </trkpt>
      <trkpt lat="49.89585" lon="5.26841">
        <ele>520</ele>
        <time>2015-02-24T10:51:43Z</time>
      </trkpt>
      <trkpt lat="49.8959" lon="5.26841">
        <ele>520</ele>
        <time>2015-02-24T10:51:48Z</time>
      </trkpt>
      <trkpt lat="49.89596" lon="5.26842">
        <ele>520</ele>
        <time>2015-02-24T10:51:54Z</time>
      </trkpt>
      <trkpt lat="49.89601" lon="5.26845">
        <ele>521</ele>
        <time>2015-02-24T10:52:00Z</time>
      </trkpt>
      <trkpt lat="49.89606" lon="5.26849">
        <ele>521</ele>
        <time>2015-02-24T10:52:05Z</time>
      </trkpt>
      <trkpt lat="49.89611" lon="5.26855">
        <ele>522</ele>
        <time>2015-02-24T10:52:10Z</time>
      </trkpt>
      <trkpt lat="49.89616" lon="5.2686">
        <ele>522</ele>
        <time>2015-02-24T10:52:15Z</time>
      </trkpt>
      <trkpt lat="49.89621" lon="5.26864">
        <ele>522</ele>
        <time>2015-02-24T10:52:21Z</time>
      </trkpt>
      <trkpt lat="49.89625" lon="5.26867">
        <ele>522</ele>
        <time>2015-02-24T10:52:26Z</time>
      </trkpt>
      <trkpt lat="49.89631" lon="5.26871">
        <ele>522</ele>
        <time>2015-02-24T10:52:32Z</time>
      </trkpt>
      <trkpt lat="49.89636" lon="5.26876">
        <ele>523</ele>
        <time>2015-02-24T10:52:37Z</time>
      </trkpt>
      <trkpt lat="49.89642" lon="5.26883">
        <ele>523</ele>
        <time>2015-02-24T10:52:43Z</time>
      </trkpt>
      <trkpt lat="49.89645" lon="5.2689">
        <ele>523</ele>
        <time>2015-02-24T10:52:48Z</time>
      </trkpt>
      <trkpt lat="49.89649" lon="5.26897">
        <ele>523</ele>
        <time>2015-02-24T10:52:54Z</time>
      </trkpt>
      <trkpt lat="49.89654" lon="5.26903">
        <ele>523</ele>
        <time>2015-02-24T10:53:00Z</time>
      </trkpt>
      <trkpt lat="49.89658" lon="5.26909">
        <ele>523</ele>
        <time>2015-02-24T10:53:05Z</time>
      </trkpt>
      <trkpt lat="49.89663" lon="5.26914">
        <ele>523</ele>
        <time>2015-02-24T10:53:11Z</time>
      </trkpt>
      <trkpt lat="49.89668" lon="5.26917">
        <ele>524</ele>
        <time>2015-02-24T10:53:16Z</time>
      </trkpt>
      <trkpt lat="49.89673" lon="5.26919">
        <ele>524</ele>
        <time>2015-02-24T10:53:21Z</time>
      </trkpt>
      <trkpt lat="49.89678" lon="5.2692">
        <ele>524</ele>
        <time>2015-02-24T10:53:27Z</time>
      </trkpt>
      <trkpt lat="49.89685" lon="5.26921">
        <ele>524</ele>
        <time>2015-02-24T10:53:32Z</time>
      </trkpt>
      <trkpt lat="49.89689" lon="5.26918">
        <ele>524</ele>
        <time>2015-02-24T10:53:37Z</time>
      </trkpt>
      <trkpt lat="49.8969" lon="5.26913">
        <ele>524</ele>
        <time>2015-02-24T10:53:42Z</time>
      </trkpt>
      <trkpt lat="49.8969" lon="5.26906">
        <ele>524</ele>
        <time>2015-02-24T10:53:48Z</time>
      </trkpt>
      <trkpt lat="49.8969" lon="5.26897">
        <ele>524</ele>
        <time>2015-02-24T10:53:54Z</time>
      </trkpt>
      <trkpt lat="49.8969" lon="5.26888">
        <ele>524</ele>
        <time>2015-02-24T10:53:59Z</time>
      </trkpt>
      <trkpt lat="49.8969" lon="5.26878">
        <ele>524</ele>
        <time>2015-02-24T10:54:06Z</time>
      </trkpt>
      <trkpt lat="49.89689" lon="5.26869">
        <ele>524</ele>
        <time>2015-02-24T10:54:11Z</time>
      </trkpt>
      <trkpt lat="49.89689" lon="5.26859">
        <ele>524</ele>
        <time>2015-02-24T10:54:17Z</time>
      </trkpt>
      <trkpt lat="49.89689" lon="5.26847">
        <ele>523</ele>
        <time>2015-02-24T10:54:23Z</time>
      </trkpt>
      <trkpt lat="49.89689" lon="5.26837">
        <ele>524</ele>
        <time>2015-02-24T10:54:28Z</time>
      </trkpt>
      <trkpt lat="49.89688" lon="5.26826">
        <ele>523</ele>
        <time>2015-02-24T10:54:34Z</time>
      </trkpt>
      <trkpt lat="49.89688" lon="5.26815">
        <ele>523</ele>
        <time>2015-02-24T10:54:39Z</time>
      </trkpt>
      <trkpt lat="49.89686" lon="5.26802">
        <ele>524</ele>
        <time>2015-02-24T10:54:45Z</time>
      </trkpt>
      <trkpt lat="49.89685" lon="5.26793">
        <ele>523</ele>
        <time>2015-02-24T10:54:50Z</time>
      </trkpt>
      <trkpt lat="49.89684" lon="5.26781">
        <ele>523</ele>
        <time>2015-02-24T10:54:56Z</time>
      </trkpt>
      <trkpt lat="49.89684" lon="5.26772">
        <ele>523</ele>
        <time>2015-02-24T10:55:01Z</time>
      </trkpt>
      <trkpt lat="49.89685" lon="5.26763">
        <ele>523</ele>
        <time>2015-02-24T10:55:06Z</time>
      </trkpt>
      <trkpt lat="49.89684" lon="5.26754">
        <ele>523</ele>
        <time>2015-02-24T10:55:11Z</time>
      </trkpt>
      <trkpt lat="49.89683" lon="5.26743">
        <ele>524</ele>
        <time>2015-02-24T10:55:17Z</time>
      </trkpt>
      <trkpt lat="49.89683" lon="5.26732">
        <ele>524</ele>
        <time>2015-02-24T10:55:23Z</time>
      </trkpt>
      <trkpt lat="49.89682" lon="5.26721">
        <ele>523</ele>
        <time>2015-02-24T10:55:28Z</time>
      </trkpt>
      <trkpt lat="49.89682" lon="5.26713">
        <ele>524</ele>
        <time>2015-02-24T10:55:33Z</time>
      </trkpt>
      <trkpt lat="49.89681" lon="5.26703">
        <ele>524</ele>
        <time>2015-02-24T10:55:38Z</time>
      </trkpt>
      <trkpt lat="49.89681" lon="5.2669">
        <ele>524</ele>
        <time>2015-02-24T10:55:44Z</time>
      </trkpt>
      <trkpt lat="49.89681" lon="5.26683">
        <ele>524</ele>
        <time>2015-02-24T10:55:49Z</time>
      </trkpt>
      <trkpt lat="49.89682" lon="5.26674">
        <ele>525</ele>
        <time>2015-02-24T10:55:55Z</time>
      </trkpt>
      <trkpt lat="49.89681" lon="5.26664">
        <ele>524</ele>
        <time>2015-02-24T10:56:00Z</time>
      </trkpt>
      <trkpt lat="49.89679" lon="5.26661">
        <ele>524</ele>
        <time>2015-02-24T10:56:05Z</time>
      </trkpt>
      <trkpt lat="49.89679" lon="5.26652">
        <ele>524</ele>
        <time>2015-02-24T10:56:11Z</time>
      </trkpt>
      <trkpt lat="49.89678" lon="5.26645">
        <ele>525</ele>
        <time>2015-02-24T10:56:16Z</time>
      </trkpt>
      <trkpt lat="49.89677" lon="5.26635">
        <ele>525</ele>
        <time>2015-02-24T10:56:22Z</time>
      </trkpt>
      <trkpt lat="49.89676" lon="5.26626">
        <ele>525</ele>
        <time>2015-02-24T10:56:27Z</time>
      </trkpt>
      <trkpt lat="49.89675" lon="5.26616">
        <ele>525</ele>
        <time>2015-02-24T10:56:33Z</time>
      </trkpt>
      <trkpt lat="49.89674" lon="5.2661">
        <ele>525</ele>
        <time>2015-02-24T10:56:39Z</time>
      </trkpt>
      <trkpt lat="49.89672" lon="5.26607">
        <ele>525</ele>
        <time>2015-02-24T10:56:44Z</time>
      </trkpt>
      <trkpt lat="49.89671" lon="5.26604">
        <ele>525</ele>
        <time>2015-02-24T10:56:50Z</time>
      </trkpt>
      <trkpt lat="49.89671" lon="5.26598">
        <ele>525</ele>
        <time>2015-02-24T10:56:56Z</time>
      </trkpt>
      <trkpt lat="49.89671" lon="5.26591">
        <ele>525</ele>
        <time>2015-02-24T10:57:01Z</time>
      </trkpt>
      <trkpt lat="49.89671" lon="5.26585">
        <ele>525</ele>
        <time>2015-02-24T10:57:06Z</time>
      </trkpt>
      <trkpt lat="49.89672" lon="5.26576">
        <ele>525</ele>
        <time>2015-02-24T10:57:12Z</time>
      </trkpt>
      <trkpt lat="49.89673" lon="5.26568">
        <ele>525</ele>
        <time>2015-02-24T10:57:17Z</time>
      </trkpt>
      <trkpt lat="49.89673" lon="5.26558">
        <ele>525</ele>
        <time>2015-02-24T10:57:23Z</time>
      </trkpt>
      <trkpt lat="49.89673" lon="5.26546">
        <ele>525</ele>
        <time>2015-02-24T10:57:29Z</time>
      </trkpt>
      <trkpt lat="49.89674" lon="5.26539">
        <ele>524</ele>
        <time>2015-02-24T10:57:34Z</time>
      </trkpt>
      <trkpt lat="49.89672" lon="5.26529">
        <ele>524</ele>
        <time>2015-02-24T10:57:39Z</time>
      </trkpt>
      <trkpt lat="49.89672" lon="5.26519">
        <ele>525</ele>
        <time>2015-02-24T10:57:44Z</time>
      </trkpt>
      <trkpt lat="49.89671" lon="5.26515">
        <ele>525</ele>
        <time>2015-02-24T10:57:49Z</time>
      </trkpt>
      <trkpt lat="49.89671" lon="5.26507">
        <ele>525</ele>
        <time>2015-02-24T10:57:55Z</time>
      </trkpt>
      <trkpt lat="49.8967" lon="5.26506">
        <ele>525</ele>
        <time>2015-02-24T10:58:01Z</time>
      </trkpt>
      <trkpt lat="49.89669" lon="5.26499">
        <ele>525</ele>
        <time>2015-02-24T10:58:06Z</time>
      </trkpt>
      <trkpt lat="49.89669" lon="5.26496">
        <ele>525</ele>
        <time>2015-02-24T10:58:12Z</time>
      </trkpt>
      <trkpt lat="49.89667" lon="5.26494">
        <ele>525</ele>
        <time>2015-02-24T10:58:17Z</time>
      </trkpt>
      <trkpt lat="49.89667" lon="5.26485">
        <ele>525</ele>
        <time>2015-02-24T10:58:22Z</time>
      </trkpt>
      <trkpt lat="49.89669" lon="5.26477">
        <ele>524</ele>
        <time>2015-02-24T10:58:28Z</time>
      </trkpt>
      <trkpt lat="49.8967" lon="5.2647">
        <ele>524</ele>
        <time>2015-02-24T10:58:33Z</time>
      </trkpt>
      <trkpt lat="49.89672" lon="5.26461">
        <ele>524</ele>
        <time>2015-02-24T10:58:39Z</time>
      </trkpt>
      <trkpt lat="49.89673" lon="5.26452">
        <ele>524</ele>
        <time>2015-02-24T10:58:44Z</time>
      </trkpt>
      <trkpt lat="49.89675" lon="5.26444">
        <ele>523</ele>
        <time>2015-02-24T10:58:49Z</time>
      </trkpt>
      <trkpt lat="49.89677" lon="5.26435">
        <ele>524</ele>
        <time>2015-02-24T10:58:54Z</time>
      </trkpt>
      <trkpt lat="49.8968" lon="5.26424">
        <ele>524</ele>
        <time>2015-02-24T10:59:00Z</time>
      </trkpt>
      <trkpt lat="49.89682" lon="5.26414">
        <ele>523</ele>
        <time>2015-02-24T10:59:06Z</time>
      </trkpt>
      <trkpt lat="49.89684" lon="5.26404">
        <ele>522</ele>
        <time>2015-02-24T10:59:11Z</time>
      </trkpt>
      <trkpt lat="49.89687" lon="5.26392">
        <ele>522</ele>
        <time>2015-02-24T10:59:17Z</time>
      </trkpt>
      <trkpt lat="49.89689" lon="5.26381">
        <ele>521</ele>
        <time>2015-02-24T10:59:22Z</time>
      </trkpt>
      <trkpt lat="49.89693" lon="5.26371">
        <ele>521</ele>
        <time>2015-02-24T10:59:28Z</time>
      </trkpt>
      <trkpt lat="49.89694" lon="5.26364">
        <ele>521</ele>
        <time>2015-02-24T10:59:33Z</time>
      </trkpt>
      <trkpt lat="49.89696" lon="5.26358">
        <ele>521</ele>
        <time>2015-02-24T10:59:38Z</time>
      </trkpt>
      <trkpt lat="49.89699" lon="5.26347">
        <ele>521</ele>
        <time>2015-02-24T10:59:44Z</time>
      </trkpt>
      <trkpt lat="49.897" lon="5.26337">
        <ele>521</ele>
        <time>2015-02-24T10:59:49Z</time>
      </trkpt>
      <trkpt lat="49.89703" lon="5.26327">
        <ele>521</ele>
        <time>2015-02-24T10:59:55Z</time>
      </trkpt>
      <trkpt lat="49.89705" lon="5.26316">
        <ele>521</ele>
        <time>2015-02-24T11:00:01Z</time>
      </trkpt>
      <trkpt lat="49.89707" lon="5.26309">
        <ele>521</ele>
        <time>2015-02-24T11:00:06Z</time>
      </trkpt>
      <trkpt lat="49.89707" lon="5.26306">
        <ele>520</ele>
        <time>2015-02-24T11:00:12Z</time>
      </trkpt>
      <trkpt lat="49.89707" lon="5.26303">
        <ele>520</ele>
        <time>2015-02-24T11:00:18Z</time>
      </trkpt>
      <trkpt lat="49.8971" lon="5.26299">
        <ele>520</ele>
        <time>2015-02-24T11:00:23Z</time>
      </trkpt>
      <trkpt lat="49.89712" lon="5.26289">
        <ele>520</ele>
        <time>2015-02-24T11:00:29Z</time>
      </trkpt>
      <trkpt lat="49.89714" lon="5.26281">
        <ele>519</ele>
        <time>2015-02-24T11:00:35Z</time>
      </trkpt>
      <trkpt lat="49.89715" lon="5.26271">
        <ele>519</ele>
        <time>2015-02-24T11:00:40Z</time>
      </trkpt>
      <trkpt lat="49.89716" lon="5.26268">
        <ele>519</ele>
        <time>2015-02-24T11:00:45Z</time>
      </trkpt>
      <trkpt lat="49.89717" lon="5.26265">
        <ele>519</ele>
        <time>2015-02-24T11:00:51Z</time>
      </trkpt>
      <trkpt lat="49.89718" lon="5.26261">
        <ele>519</ele>
        <time>2015-02-24T11:00:56Z</time>
      </trkpt>
      <trkpt lat="49.89721" lon="5.26253">
        <ele>520</ele>
        <time>2015-02-24T11:01:01Z</time>
      </trkpt>
      <trkpt lat="49.89724" lon="5.26244">
        <ele>520</ele>
        <time>2015-02-24T11:01:06Z</time>
      </trkpt>
      <trkpt lat="49.89726" lon="5.26237">
        <ele>519</ele>
        <time>2015-02-24T11:01:12Z</time>
      </trkpt>
      <trkpt lat="49.89728" lon="5.26228">
        <ele>519</ele>
        <time>2015-02-24T11:01:18Z</time>
      </trkpt>
      <trkpt lat="49.8973" lon="5.26217">
        <ele>519</ele>
        <time>2015-02-24T11:01:24Z</time>
      </trkpt>
      <trkpt lat="49.8973" lon="5.26208">
        <ele>518</ele>
        <time>2015-02-24T11:01:30Z</time>
      </trkpt>
      <trkpt lat="49.8973" lon="5.26207">
        <ele>519</ele>
        <time>2015-02-24T11:01:37Z</time>
      </trkpt>
      <trkpt lat="49.89729" lon="5.26205">
        <ele>519</ele>
        <time>2015-02-24T11:01:42Z</time>
      </trkpt>
      <trkpt lat="49.89727" lon="5.26199">
        <ele>519</ele>
        <time>2015-02-24T11:01:48Z</time>
      </trkpt>
      <trkpt lat="49.89724" lon="5.26192">
        <ele>519</ele>
        <time>2015-02-24T11:01:53Z</time>
      </trkpt>
      <trkpt lat="49.89722" lon="5.26184">
        <ele>518</ele>
        <time>2015-02-24T11:01:58Z</time>
      </trkpt>
      <trkpt lat="49.89719" lon="5.26178">
        <ele>518</ele>
        <time>2015-02-24T11:02:03Z</time>
      </trkpt>
      <trkpt lat="49.89716" lon="5.26168">
        <ele>518</ele>
        <time>2015-02-24T11:02:09Z</time>
      </trkpt>
      <trkpt lat="49.89714" lon="5.26159">
        <ele>517</ele>
        <time>2015-02-24T11:02:15Z</time>
      </trkpt>
      <trkpt lat="49.89711" lon="5.2615">
        <ele>517</ele>
        <time>2015-02-24T11:02:21Z</time>
      </trkpt>
      <trkpt lat="49.89709" lon="5.26141">
        <ele>517</ele>
        <time>2015-02-24T11:02:26Z</time>
      </trkpt>
      <trkpt lat="49.89706" lon="5.26132">
        <ele>517</ele>
        <time>2015-02-24T11:02:32Z</time>
      </trkpt>
      <trkpt lat="49.89702" lon="5.26123">
        <ele>518</ele>
        <time>2015-02-24T11:02:38Z</time>
      </trkpt>
      <trkpt lat="49.89698" lon="5.26114">
        <ele>518</ele>
        <time>2015-02-24T11:02:44Z</time>
      </trkpt>
      <trkpt lat="49.89697" lon="5.26105">
        <ele>518</ele>
        <time>2015-02-24T11:02:50Z</time>
      </trkpt>
      <trkpt lat="49.89697" lon="5.26098">
        <ele>519</ele>
        <time>2015-02-24T11:02:55Z</time>
      </trkpt>
      <trkpt lat="49.89697" lon="5.26094">
        <ele>519</ele>
        <time>2015-02-24T11:03:01Z</time>
      </trkpt>
      <trkpt lat="49.89697" lon="5.26093">
        <ele>519</ele>
        <time>2015-02-24T11:03:06Z</time>
      </trkpt>
      <trkpt lat="49.89698" lon="5.26091">
        <ele>518</ele>
        <time>2015-02-24T11:03:12Z</time>
      </trkpt>
      <trkpt lat="49.89697" lon="5.26088">
        <ele>518</ele>
        <time>2015-02-24T11:03:18Z</time>
      </trkpt>
      <trkpt lat="49.89697" lon="5.26085">
        <ele>518</ele>
        <time>2015-02-24T11:03:23Z</time>
      </trkpt>
      <trkpt lat="49.89698" lon="5.26084">
        <ele>518</ele>
        <time>2015-02-24T11:03:28Z</time>
      </trkpt>
      <trkpt lat="49.89699" lon="5.26084">
        <ele>518</ele>
        <time>2015-02-24T11:03:34Z</time>
      </trkpt>
      <trkpt lat="49.89699" lon="5.26085">
        <ele>518</ele>
        <time>2015-02-24T11:03:39Z</time>
      </trkpt>
      <trkpt lat="49.897" lon="5.26087">
        <ele>518</ele>
        <time>2015-02-24T11:03:45Z</time>
      </trkpt>
      <trkpt lat="49.89702" lon="5.26088">
        <ele>518</ele>
        <time>2015-02-24T11:03:50Z</time>
      </trkpt>
      <trkpt lat="49.89703" lon="5.2609">
        <ele>518</ele>
        <time>2015-02-24T11:03:56Z</time>
      </trkpt>
      <trkpt lat="49.89705" lon="5.26091">
        <ele>518</ele>
        <time>2015-02-24T11:04:02Z</time>
      </trkpt>
      <trkpt lat="49.89707" lon="5.26091">
        <ele>518</ele>
        <time>2015-02-24T11:04:07Z</time>
      </trkpt>
      <trkpt lat="49.89707" lon="5.26093">
        <ele>518</ele>
        <time>2015-02-24T11:04:13Z</time>
      </trkpt>
      <trkpt lat="49.89706" lon="5.26094">
        <ele>518</ele>
        <time>2015-02-24T11:04:18Z</time>
      </trkpt>
      <trkpt lat="49.89707" lon="5.26095">
        <ele>518</ele>
        <time>2015-02-24T11:04:24Z</time>
      </trkpt>
      <trkpt lat="49.89706" lon="5.26096">
        <ele>518</ele>
        <time>2015-02-24T11:04:30Z</time>
      </trkpt>
      <trkpt lat="49.89705" lon="5.26096">
        <ele>518</ele>
        <time>2015-02-24T11:04:35Z</time>
      </trkpt>
      <trkpt lat="49.89704" lon="5.26096">
        <ele>518</ele>
        <time>2015-02-24T11:04:40Z</time>
      </trkpt>
      <trkpt lat="49.89704" lon="5.26097">
        <ele>518</ele>
        <time>2015-02-24T11:04:47Z</time>
      </trkpt>
      <trkpt lat="49.89705" lon="5.26097">
        <ele>518</ele>
        <time>2015-02-24T11:04:52Z</time>
      </trkpt>
      <trkpt lat="49.89706" lon="5.26098">
        <ele>518</ele>
        <time>2015-02-24T11:04:58Z</time>
      </trkpt>
      <trkpt lat="49.89705" lon="5.26097">
        <ele>518</ele>
        <time>2015-02-24T11:05:03Z</time>
      </trkpt>
      <trkpt lat="49.89705" lon="5.26096">
        <ele>518</ele>
        <time>2015-02-24T11:05:08Z</time>
      </trkpt>
      <trkpt lat="49.89706" lon="5.26095">
        <ele>518</ele>
        <time>2015-02-24T11:05:14Z</time>
      </trkpt>
      <trkpt lat="49.89706" lon="5.26094">
        <ele>518</ele>
        <time>2015-02-24T11:05:19Z</time>
      </trkpt>
      <trkpt lat="49.89705" lon="5.26092">
        <ele>518</ele>
        <time>2015-02-24T11:05:25Z</time>
      </trkpt>
      <trkpt lat="49.89705" lon="5.26092">
        <ele>519</ele>
        <time>2015-02-24T11:05:30Z</time>
      </trkpt>
      <trkpt lat="49.89706" lon="5.26094">
        <ele>519</ele>
        <time>2015-02-24T11:05:35Z</time>
      </trkpt>
      <trkpt lat="49.89703" lon="5.26098">
        <ele>519</ele>
        <time>2015-02-24T11:05:41Z</time>
      </trkpt>
      <trkpt lat="49.897" lon="5.26102">
        <ele>519</ele>
        <time>2015-02-24T11:05:47Z</time>
      </trkpt>
      <trkpt lat="49.89699" lon="5.26107">
        <ele>519</ele>
        <time>2015-02-24T11:05:52Z</time>
      </trkpt>
      <trkpt lat="49.89696" lon="5.26112">
        <ele>519</ele>
        <time>2015-02-24T11:05:58Z</time>
      </trkpt>
      <trkpt lat="49.89695" lon="5.26116">
        <ele>519</ele>
        <time>2015-02-24T11:06:04Z</time>
      </trkpt>
      <trkpt lat="49.89692" lon="5.26115">
        <ele>518</ele>
        <time>2015-02-24T11:06:10Z</time>
      </trkpt>
      <trkpt lat="49.89686" lon="5.26111">
        <ele>518</ele>
        <time>2015-02-24T11:06:16Z</time>
      </trkpt>
      <trkpt lat="49.89682" lon="5.26109">
        <ele>519</ele>
        <time>2015-02-24T11:06:21Z</time>
      </trkpt>
      <trkpt lat="49.89677" lon="5.26105">
        <ele>518</ele>
        <time>2015-02-24T11:06:26Z</time>
      </trkpt>
      <trkpt lat="49.8967" lon="5.26099">
        <ele>517</ele>
        <time>2015-02-24T11:06:32Z</time>
      </trkpt>
      <trkpt lat="49.89663" lon="5.26095">
        <ele>517</ele>
        <time>2015-02-24T11:06:38Z</time>
      </trkpt>
      <trkpt lat="49.89658" lon="5.26091">
        <ele>517</ele>
        <time>2015-02-24T11:06:43Z</time>
      </trkpt>
      <trkpt lat="49.89652" lon="5.26087">
        <ele>516</ele>
        <time>2015-02-24T11:06:49Z</time>
      </trkpt>
      <trkpt lat="49.89647" lon="5.26082">
        <ele>516</ele>
        <time>2015-02-24T11:06:54Z</time>
      </trkpt>
      <trkpt lat="49.89641" lon="5.26077">
        <ele>515</ele>
        <time>2015-02-24T11:07:00Z</time>
      </trkpt>
      <trkpt lat="49.89637" lon="5.26075">
        <ele>515</ele>
        <time>2015-02-24T11:07:05Z</time>
      </trkpt>
      <trkpt lat="49.8963" lon="5.26072">
        <ele>515</ele>
        <time>2015-02-24T11:07:10Z</time>
      </trkpt>
      <trkpt lat="49.89628" lon="5.2606">
        <ele>515</ele>
        <time>2015-02-24T11:07:15Z</time>
      </trkpt>
      <trkpt lat="49.89623" lon="5.26052">
        <ele>514</ele>
        <time>2015-02-24T11:07:20Z</time>
      </trkpt>
      <trkpt lat="49.89616" lon="5.26047">
        <ele>514</ele>
        <time>2015-02-24T11:07:25Z</time>
      </trkpt>
      <trkpt lat="49.89608" lon="5.26043">
        <ele>514</ele>
        <time>2015-02-24T11:07:31Z</time>
      </trkpt>
      <trkpt lat="49.89602" lon="5.26037">
        <ele>513</ele>
        <time>2015-02-24T11:07:37Z</time>
      </trkpt>
      <trkpt lat="49.89597" lon="5.26032">
        <ele>513</ele>
        <time>2015-02-24T11:07:42Z</time>
      </trkpt>
      <trkpt lat="49.89591" lon="5.26024">
        <ele>513</ele>
        <time>2015-02-24T11:07:48Z</time>
      </trkpt>
      <trkpt lat="49.89588" lon="5.26017">
        <ele>513</ele>
        <time>2015-02-24T11:07:53Z</time>
      </trkpt>
      <trkpt lat="49.89583" lon="5.26009">
        <ele>513</ele>
        <time>2015-02-24T11:07:59Z</time>
      </trkpt>
      <trkpt lat="49.89581" lon="5.26001">
        <ele>512</ele>
        <time>2015-02-24T11:08:04Z</time>
      </trkpt>
      <trkpt lat="49.89578" lon="5.25992">
        <ele>512</ele>
        <time>2015-02-24T11:08:09Z</time>
      </trkpt>
      <trkpt lat="49.89576" lon="5.25982">
        <ele>512</ele>
        <time>2015-02-24T11:08:15Z</time>
      </trkpt>
      <trkpt lat="49.89574" lon="5.25971">
        <ele>512</ele>
        <time>2015-02-24T11:08:21Z</time>
      </trkpt>
      <trkpt lat="49.89572" lon="5.2596">
        <ele>511</ele>
        <time>2015-02-24T11:08:27Z</time>
      </trkpt>
      <trkpt lat="49.8957" lon="5.25952">
        <ele>511</ele>
        <time>2015-02-24T11:08:32Z</time>
      </trkpt>
      <trkpt lat="49.89569" lon="5.25945">
        <ele>511</ele>
        <time>2015-02-24T11:08:37Z</time>
      </trkpt>
      <trkpt lat="49.89567" lon="5.25935">
        <ele>511</ele>
        <time>2015-02-24T11:08:43Z</time>
      </trkpt>
      <trkpt lat="49.89566" lon="5.25922">
        <ele>511</ele>
        <time>2015-02-24T11:08:49Z</time>
      </trkpt>
      <trkpt lat="49.89564" lon="5.25915">
        <ele>510</ele>
        <time>2015-02-24T11:08:54Z</time>
      </trkpt>
      <trkpt lat="49.89561" lon="5.25906">
        <ele>510</ele>
        <time>2015-02-24T11:09:00Z</time>
      </trkpt>
      <trkpt lat="49.89559" lon="5.25898">
        <ele>510</ele>
        <time>2015-02-24T11:09:05Z</time>
      </trkpt>
      <trkpt lat="49.89556" lon="5.25886">
        <ele>509</ele>
        <time>2015-02-24T11:09:11Z</time>
      </trkpt>
      <trkpt lat="49.89554" lon="5.25876">
        <ele>509</ele>
        <time>2015-02-24T11:09:17Z</time>
      </trkpt>
      <trkpt lat="49.89553" lon="5.25867">
        <ele>509</ele>
        <time>2015-02-24T11:09:22Z</time>
      </trkpt>
      <trkpt lat="49.89552" lon="5.25857">
        <ele>509</ele>
        <time>2015-02-24T11:09:27Z</time>
      </trkpt>
      <trkpt lat="49.8955" lon="5.25848">
        <ele>509</ele>
        <time>2015-02-24T11:09:32Z</time>
      </trkpt>
      <trkpt lat="49.89548" lon="5.25836">
        <ele>508</ele>
        <time>2015-02-24T11:09:38Z</time>
      </trkpt>
      <trkpt lat="49.89546" lon="5.25824">
        <ele>509</ele>
        <time>2015-02-24T11:09:44Z</time>
      </trkpt>
      <trkpt lat="49.89545" lon="5.25813">
        <ele>509</ele>
        <time>2015-02-24T11:09:49Z</time>
      </trkpt>
      <trkpt lat="49.89542" lon="5.258">
        <ele>509</ele>
        <time>2015-02-24T11:09:55Z</time>
      </trkpt>
      <trkpt lat="49.89542" lon="5.25791">
        <ele>508</ele>
        <time>2015-02-24T11:10:01Z</time>
      </trkpt>
      <trkpt lat="49.89541" lon="5.25784">
        <ele>508</ele>
        <time>2015-02-24T11:10:07Z</time>
      </trkpt>
      <trkpt lat="49.89539" lon="5.25776">
        <ele>508</ele>
        <time>2015-02-24T11:10:13Z</time>
      </trkpt>
      <trkpt lat="49.89539" lon="5.25768">
        <ele>508</ele>
        <time>2015-02-24T11:10:19Z</time>
      </trkpt>
      <trkpt lat="49.89537" lon="5.2576">
        <ele>508</ele>
        <time>2015-02-24T11:10:24Z</time>
      </trkpt>
      <trkpt lat="49.89534" lon="5.2575">
        <ele>508</ele>
        <time>2015-02-24T11:10:30Z</time>
      </trkpt>
      <trkpt lat="49.89532" lon="5.25741">
        <ele>507</ele>
        <time>2015-02-24T11:10:35Z</time>
      </trkpt>
      <trkpt lat="49.89528" lon="5.25732">
        <ele>507</ele>
        <time>2015-02-24T11:10:40Z</time>
      </trkpt>
      <trkpt lat="49.89523" lon="5.25723">
        <ele>506</ele>
        <time>2015-02-24T11:10:46Z</time>
      </trkpt>
      <trkpt lat="49.89519" lon="5.25715">
        <ele>506</ele>
        <time>2015-02-24T11:10:51Z</time>
      </trkpt>
      <trkpt lat="49.89517" lon="5.25711">
        <ele>506</ele>
        <time>2015-02-24T11:10:57Z</time>
      </trkpt>
      <trkpt lat="49.89514" lon="5.25707">
        <ele>506</ele>
        <time>2015-02-24T11:11:03Z</time>
      </trkpt>
      <trkpt lat="49.89509" lon="5.25702">
        <ele>506</ele>
        <time>2015-02-24T11:11:08Z</time>
      </trkpt>
      <trkpt lat="49.89502" lon="5.25698">
        <ele>506</ele>
        <time>2015-02-24T11:11:14Z</time>
      </trkpt>
      <trkpt lat="49.89495" lon="5.25695">
        <ele>505</ele>
        <time>2015-02-24T11:11:20Z</time>
      </trkpt>
      <trkpt lat="49.89489" lon="5.25693">
        <ele>505</ele>
        <time>2015-02-24T11:11:25Z</time>
      </trkpt>
      <trkpt lat="49.89482" lon="5.2569">
        <ele>505</ele>
        <time>2015-02-24T11:11:31Z</time>
      </trkpt>
      <trkpt lat="49.89473" lon="5.25688">
        <ele>505</ele>
        <time>2015-02-24T11:11:37Z</time>
      </trkpt>
      <trkpt lat="49.89468" lon="5.25686">
        <ele>504</ele>
        <time>2015-02-24T11:11:42Z</time>
      </trkpt>
      <trkpt lat="49.89462" lon="5.25684">
        <ele>504</ele>
        <time>2015-02-24T11:11:47Z</time>
      </trkpt>
      <trkpt lat="49.89455" lon="5.25682">
        <ele>504</ele>
        <time>2015-02-24T11:11:53Z</time>
      </trkpt>
      <trkpt lat="49.89447" lon="5.25679">
        <ele>504</ele>
        <time>2015-02-24T11:11:59Z</time>
      </trkpt>
      <trkpt lat="49.89441" lon="5.25677">
        <ele>504</ele>
        <time>2015-02-24T11:12:04Z</time>
      </trkpt>
      <trkpt lat="49.89436" lon="5.25674">
        <ele>504</ele>
        <time>2015-02-24T11:12:09Z</time>
      </trkpt>
      <trkpt lat="49.89429" lon="5.25669">
        <ele>504</ele>
        <time>2015-02-24T11:12:15Z</time>
      </trkpt>
      <trkpt lat="49.89422" lon="5.25665">
        <ele>504</ele>
        <time>2015-02-24T11:12:21Z</time>
      </trkpt>
      <trkpt lat="49.89416" lon="5.25662">
        <ele>505</ele>
        <time>2015-02-24T11:12:26Z</time>
      </trkpt>
      <trkpt lat="49.89409" lon="5.25658">
        <ele>504</ele>
        <time>2015-02-24T11:12:32Z</time>
      </trkpt>
      <trkpt lat="49.89401" lon="5.25654">
        <ele>504</ele>
        <time>2015-02-24T11:12:38Z</time>
      </trkpt>
      <trkpt lat="49.89394" lon="5.2565">
        <ele>504</ele>
        <time>2015-02-24T11:12:44Z</time>
      </trkpt>
      <trkpt lat="49.89386" lon="5.25646">
        <ele>504</ele>
        <time>2015-02-24T11:12:50Z</time>
      </trkpt>
      <trkpt lat="49.8938" lon="5.25643">
        <ele>503</ele>
        <time>2015-02-24T11:12:55Z</time>
      </trkpt>
      <trkpt lat="49.89374" lon="5.2564">
        <ele>503</ele>
        <time>2015-02-24T11:13:00Z</time>
      </trkpt>
      <trkpt lat="49.89368" lon="5.25636">
        <ele>503</ele>
        <time>2015-02-24T11:13:06Z</time>
      </trkpt>
      <trkpt lat="49.89362" lon="5.25633">
        <ele>503</ele>
        <time>2015-02-24T11:13:11Z</time>
      </trkpt>
      <trkpt lat="49.89354" lon="5.2563">
        <ele>503</ele>
        <time>2015-02-24T11:13:17Z</time>
      </trkpt>
      <trkpt lat="49.89352" lon="5.25628">
        <ele>503</ele>
        <time>2015-02-24T11:13:23Z</time>
      </trkpt>
      <trkpt lat="49.89349" lon="5.25625">
        <ele>502</ele>
        <time>2015-02-24T11:13:29Z</time>
      </trkpt>
      <trkpt lat="49.89351" lon="5.25623">
        <ele>503</ele>
        <time>2015-02-24T11:13:35Z</time>
      </trkpt>
      <trkpt lat="49.89349" lon="5.25622">
        <ele>502</ele>
        <time>2015-02-24T11:13:41Z</time>
      </trkpt>
      <trkpt lat="49.89346" lon="5.25619">
        <ele>502</ele>
        <time>2015-02-24T11:13:46Z</time>
      </trkpt>
      <trkpt lat="49.89342" lon="5.25617">
        <ele>501</ele>
        <time>2015-02-24T11:13:51Z</time>
      </trkpt>
      <trkpt lat="49.89336" lon="5.25615">
        <ele>501</ele>
        <time>2015-02-24T11:13:57Z</time>
      </trkpt>
      <trkpt lat="49.89329" lon="5.25613">
        <ele>501</ele>
        <time>2015-02-24T11:14:02Z</time>
      </trkpt>
      <trkpt lat="49.89322" lon="5.25608">
        <ele>501</ele>
        <time>2015-02-24T11:14:08Z</time>
      </trkpt>
      <trkpt lat="49.89314" lon="5.25603">
        <ele>500</ele>
        <time>2015-02-24T11:14:14Z</time>
      </trkpt>
      <trkpt lat="49.89308" lon="5.25599">
        <ele>500</ele>
        <time>2015-02-24T11:14:19Z</time>
      </trkpt>
      <trkpt lat="49.893" lon="5.25591">
        <ele>500</ele>
        <time>2015-02-24T11:14:25Z</time>
      </trkpt>
      <trkpt lat="49.89294" lon="5.25584">
        <ele>499</ele>
        <time>2015-02-24T11:14:30Z</time>
      </trkpt>
      <trkpt lat="49.89286" lon="5.25576">
        <ele>498</ele>
        <time>2015-02-24T11:14:36Z</time>
      </trkpt>
      <trkpt lat="49.89279" lon="5.25568">
        <ele>498</ele>
        <time>2015-02-24T11:14:42Z</time>
      </trkpt>
      <trkpt lat="49.89274" lon="5.25559">
        <ele>497</ele>
        <time>2015-02-24T11:14:47Z</time>
      </trkpt>
      <trkpt lat="49.89268" lon="5.25549">
        <ele>496</ele>
        <time>2015-02-24T11:14:53Z</time>
      </trkpt>
      <trkpt lat="49.89264" lon="5.2554">
        <ele>496</ele>
        <time>2015-02-24T11:14:58Z</time>
      </trkpt>
      <trkpt lat="49.8926" lon="5.25529">
        <ele>496</ele>
        <time>2015-02-24T11:15:04Z</time>
      </trkpt>
      <trkpt lat="49.89258" lon="5.2552">
        <ele>496</ele>
        <time>2015-02-24T11:15:09Z</time>
      </trkpt>
      <trkpt lat="49.89256" lon="5.25512">
        <ele>496</ele>
        <time>2015-02-24T11:15:14Z</time>
      </trkpt>
      <trkpt lat="49.89256" lon="5.25499">
        <ele>495</ele>
        <time>2015-02-24T11:15:19Z</time>
      </trkpt>
      <trkpt lat="49.89257" lon="5.2549">
        <ele>494</ele>
        <time>2015-02-24T11:15:24Z</time>
      </trkpt>
      <trkpt lat="49.89259" lon="5.25477">
        <ele>495</ele>
        <time>2015-02-24T11:15:30Z</time>
      </trkpt>
      <trkpt lat="49.8926" lon="5.25468">
        <ele>495</ele>
        <time>2015-02-24T11:15:35Z</time>
      </trkpt>
      <trkpt lat="49.89263" lon="5.25458">
        <ele>494</ele>
        <time>2015-02-24T11:15:41Z</time>
      </trkpt>
      <trkpt lat="49.89265" lon="5.25449">
        <ele>494</ele>
        <time>2015-02-24T11:15:46Z</time>
      </trkpt>
      <trkpt lat="49.89267" lon="5.25441">
        <ele>493</ele>
        <time>2015-02-24T11:15:51Z</time>
      </trkpt>
      <trkpt lat="49.89266" lon="5.25428">
        <ele>493</ele>
        <time>2015-02-24T11:15:57Z</time>
      </trkpt>
      <trkpt lat="49.89265" lon="5.25419">
        <ele>493</ele>
        <time>2015-02-24T11:16:02Z</time>
      </trkpt>
      <trkpt lat="49.89263" lon="5.25406">
        <ele>493</ele>
        <time>2015-02-24T11:16:08Z</time>
      </trkpt>
      <trkpt lat="49.89261" lon="5.25395">
        <ele>493</ele>
        <time>2015-02-24T11:16:13Z</time>
      </trkpt>
      <trkpt lat="49.8926" lon="5.25386">
        <ele>492</ele>
        <time>2015-02-24T11:16:18Z</time>
      </trkpt>
      <trkpt lat="49.89257" lon="5.25375">
        <ele>492</ele>
        <time>2015-02-24T11:16:23Z</time>
      </trkpt>
      <trkpt lat="49.89254" lon="5.25363">
        <ele>492</ele>
        <time>2015-02-24T11:16:29Z</time>
      </trkpt>
      <trkpt lat="49.89253" lon="5.2535">
        <ele>492</ele>
        <time>2015-02-24T11:16:35Z</time>
      </trkpt>
      <trkpt lat="49.89251" lon="5.2534">
        <ele>492</ele>
        <time>2015-02-24T11:16:40Z</time>
      </trkpt>
      <trkpt lat="49.89248" lon="5.25329">
        <ele>491</ele>
        <time>2015-02-24T11:16:46Z</time>
      </trkpt>
      <trkpt lat="49.89245" lon="5.25318">
        <ele>491</ele>
        <time>2015-02-24T11:16:52Z</time>
      </trkpt>
      <trkpt lat="49.89243" lon="5.25311">
        <ele>491</ele>
        <time>2015-02-24T11:16:57Z</time>
      </trkpt>
      <trkpt lat="49.89241" lon="5.253">
        <ele>491</ele>
        <time>2015-02-24T11:17:03Z</time>
      </trkpt>
      <trkpt lat="49.89238" lon="5.25292">
        <ele>490</ele>
        <time>2015-02-24T11:17:08Z</time>
      </trkpt>
      <trkpt lat="49.89236" lon="5.25281">
        <ele>490</ele>
        <time>2015-02-24T11:17:14Z</time>
      </trkpt>
      <trkpt lat="49.89234" lon="5.2527">
        <ele>489</ele>
        <time>2015-02-24T11:17:20Z</time>
      </trkpt>
      <trkpt lat="49.8923" lon="5.2526">
        <ele>489</ele>
        <time>2015-02-24T11:17:25Z</time>
      </trkpt>
      <trkpt lat="49.89226" lon="5.2525">
        <ele>489</ele>
        <time>2015-02-24T11:17:30Z</time>
      </trkpt>
      <trkpt lat="49.89222" lon="5.25243">
        <ele>488</ele>
        <time>2015-02-24T11:17:35Z</time>
      </trkpt>
      <trkpt lat="49.89218" lon="5.25238">
        <ele>488</ele>
        <time>2015-02-24T11:17:40Z</time>
      </trkpt>
      <trkpt lat="49.89211" lon="5.2523">
        <ele>489</ele>
        <time>2015-02-24T11:17:46Z</time>
      </trkpt>
      <trkpt lat="49.89205" lon="5.25224">
        <ele>488</ele>
        <time>2015-02-24T11:17:51Z</time>
      </trkpt>
      <trkpt lat="49.89196" lon="5.25219">
        <ele>488</ele>
        <time>2015-02-24T11:17:57Z</time>
      </trkpt>
      <trkpt lat="49.8919" lon="5.25216">
        <ele>488</ele>
        <time>2015-02-24T11:18:03Z</time>
      </trkpt>
      <trkpt lat="49.89182" lon="5.25211">
        <ele>489</ele>
        <time>2015-02-24T11:18:09Z</time>
      </trkpt>
      <trkpt lat="49.89174" lon="5.25204">
        <ele>489</ele>
        <time>2015-02-24T11:18:15Z</time>
      </trkpt>
      <trkpt lat="49.89168" lon="5.25198">
        <ele>490</ele>
        <time>2015-02-24T11:18:20Z</time>
      </trkpt>
      <trkpt lat="49.89161" lon="5.25191">
        <ele>490</ele>
        <time>2015-02-24T11:18:26Z</time>
      </trkpt>
      <trkpt lat="49.89154" lon="5.25184">
        <ele>490</ele>
        <time>2015-02-24T11:18:32Z</time>
      </trkpt>
      <trkpt lat="49.89149" lon="5.25178">
        <ele>491</ele>
        <time>2015-02-24T11:18:37Z</time>
      </trkpt>
      <trkpt lat="49.89145" lon="5.2517">
        <ele>491</ele>
        <time>2015-02-24T11:18:43Z</time>
      </trkpt>
      <trkpt lat="49.89145" lon="5.25161">
        <ele>491</ele>
        <time>2015-02-24T11:18:49Z</time>
      </trkpt>
      <trkpt lat="49.89146" lon="5.25153">
        <ele>492</ele>
        <time>2015-02-24T11:18:54Z</time>
      </trkpt>
      <trkpt lat="49.89147" lon="5.25142">
        <ele>492</ele>
        <time>2015-02-24T11:19:00Z</time>
      </trkpt>
      <trkpt lat="49.89146" lon="5.25132">
        <ele>491</ele>
        <time>2015-02-24T11:19:05Z</time>
      </trkpt>
      <trkpt lat="49.89146" lon="5.25123">
        <ele>491</ele>
        <time>2015-02-24T11:19:10Z</time>
      </trkpt>
      <trkpt lat="49.89146" lon="5.25112">
        <ele>491</ele>
        <time>2015-02-24T11:19:16Z</time>
      </trkpt>
      <trkpt lat="49.89147" lon="5.25102">
        <ele>491</ele>
        <time>2015-02-24T11:19:21Z</time>
      </trkpt>
      <trkpt lat="49.89148" lon="5.25089">
        <ele>491</ele>
        <time>2015-02-24T11:19:27Z</time>
      </trkpt>
      <trkpt lat="49.89147" lon="5.25078">
        <ele>491</ele>
        <time>2015-02-24T11:19:32Z</time>
      </trkpt>
      <trkpt lat="49.89148" lon="5.25063">
        <ele>491</ele>
        <time>2015-02-24T11:19:38Z</time>
      </trkpt>
      <trkpt lat="49.89148" lon="5.25053">
        <ele>491</ele>
        <time>2015-02-24T11:19:43Z</time>
      </trkpt>
      <trkpt lat="49.8915" lon="5.25043">
        <ele>491</ele>
        <time>2015-02-24T11:19:48Z</time>
      </trkpt>
      <trkpt lat="49.89151" lon="5.2503">
        <ele>490</ele>
        <time>2015-02-24T11:19:54Z</time>
      </trkpt>
      <trkpt lat="49.89149" lon="5.25014">
        <ele>490</ele>
        <time>2015-02-24T11:20:00Z</time>
      </trkpt>
      <trkpt lat="49.89147" lon="5.25001">
        <ele>490</ele>
        <time>2015-02-24T11:20:05Z</time>
      </trkpt>
      <trkpt lat="49.89145" lon="5.24985">
        <ele>490</ele>
        <time>2015-02-24T11:20:11Z</time>
      </trkpt>
      <trkpt lat="49.89141" lon="5.24975">
        <ele>490</ele>
        <time>2015-02-24T11:20:16Z</time>
      </trkpt>
      <trkpt lat="49.89137" lon="5.24966">
        <ele>490</ele>
        <time>2015-02-24T11:20:21Z</time>
      </trkpt>
      <trkpt lat="49.89132" lon="5.24957">
        <ele>491</ele>
        <time>2015-02-24T11:20:27Z</time>
      </trkpt>
      <trkpt lat="49.89126" lon="5.24951">
        <ele>491</ele>
        <time>2015-02-24T11:20:32Z</time>
      </trkpt>
      <trkpt lat="49.8912" lon="5.24945">
        <ele>490</ele>
        <time>2015-02-24T11:20:38Z</time>
      </trkpt>
      <trkpt lat="49.89112" lon="5.24939">
        <ele>490</ele>
        <time>2015-02-24T11:20:44Z</time>
      </trkpt>
      <trkpt lat="49.89107" lon="5.24934">
        <ele>490</ele>
        <time>2015-02-24T11:20:49Z</time>
      </trkpt>
      <trkpt lat="49.891" lon="5.2493">
        <ele>490</ele>
        <time>2015-02-24T11:20:55Z</time>
      </trkpt>
      <trkpt lat="49.89094" lon="5.24927">
        <ele>489</ele>
        <time>2015-02-24T11:21:00Z</time>
      </trkpt>
      <trkpt lat="49.89087" lon="5.2492">
        <ele>489</ele>
        <time>2015-02-24T11:21:06Z</time>
      </trkpt>
      <trkpt lat="49.89082" lon="5.24913">
        <ele>488</ele>
        <time>2015-02-24T11:21:11Z</time>
      </trkpt>
      <trkpt lat="49.89078" lon="5.24904">
        <ele>488</ele>
        <time>2015-02-24T11:21:17Z</time>
      </trkpt>
      <trkpt lat="49.89074" lon="5.24895">
        <ele>488</ele>
        <time>2015-02-24T11:21:23Z</time>
      </trkpt>
      <trkpt lat="49.89071" lon="5.24886">
        <ele>488</ele>
        <time>2015-02-24T11:21:28Z</time>
      </trkpt>
      <trkpt lat="49.89067" lon="5.24876">
        <ele>487</ele>
        <time>2015-02-24T11:21:34Z</time>
      </trkpt>
      <trkpt lat="49.89061" lon="5.24868">
        <ele>487</ele>
        <time>2015-02-24T11:21:40Z</time>
      </trkpt>
      <trkpt lat="49.89056" lon="5.24863">
        <ele>487</ele>
        <time>2015-02-24T11:21:45Z</time>
      </trkpt>
      <trkpt lat="49.8905" lon="5.24858">
        <ele>487</ele>
        <time>2015-02-24T11:21:50Z</time>
      </trkpt>
      <trkpt lat="49.89042" lon="5.24851">
        <ele>487</ele>
        <time>2015-02-24T11:21:56Z</time>
      </trkpt>
      <trkpt lat="49.89036" lon="5.24846">
        <ele>487</ele>
        <time>2015-02-24T11:22:01Z</time>
      </trkpt>
      <trkpt lat="49.89031" lon="5.24841">
        <ele>486</ele>
        <time>2015-02-24T11:22:06Z</time>
      </trkpt>
      <trkpt lat="49.89024" lon="5.24835">
        <ele>486</ele>
        <time>2015-02-24T11:22:12Z</time>
      </trkpt>
      <trkpt lat="49.89017" lon="5.24829">
        <ele>486</ele>
        <time>2015-02-24T11:22:18Z</time>
      </trkpt>
      <trkpt lat="49.89011" lon="5.24824">
        <ele>486</ele>
        <time>2015-02-24T11:22:23Z</time>
      </trkpt>
      <trkpt lat="49.89004" lon="5.24818">
        <ele>486</ele>
        <time>2015-02-24T11:22:29Z</time>
      </trkpt>
      <trkpt lat="49.88999" lon="5.24813">
        <ele>486</ele>
        <time>2015-02-24T11:22:34Z</time>
      </trkpt>
      <trkpt lat="49.88993" lon="5.24809">
        <ele>486</ele>
        <time>2015-02-24T11:22:39Z</time>
      </trkpt>
      <trkpt lat="49.88987" lon="5.24804">
        <ele>486</ele>
        <time>2015-02-24T11:22:44Z</time>
      </trkpt>
      <trkpt lat="49.88981" lon="5.24798">
        <ele>485</ele>
        <time>2015-02-24T11:22:50Z</time>
      </trkpt>
      <trkpt lat="49.88974" lon="5.24792">
        <ele>485</ele>
        <time>2015-02-24T11:22:56Z</time>
      </trkpt>
      <trkpt lat="49.88968" lon="5.24787">
        <ele>485</ele>
        <time>2015-02-24T11:23:01Z</time>
      </trkpt>
      <trkpt lat="49.88962" lon="5.24782">
        <ele>485</ele>
        <time>2015-02-24T11:23:06Z</time>
      </trkpt>
      <trkpt lat="49.88956" lon="5.24777">
        <ele>485</ele>
        <time>2015-02-24T11:23:11Z</time>
      </trkpt>
      <trkpt lat="49.88949" lon="5.2477">
        <ele>484</ele>
        <time>2015-02-24T11:23:17Z</time>
      </trkpt>
      <trkpt lat="49.88942" lon="5.24764">
        <ele>485</ele>
        <time>2015-02-24T11:23:23Z</time>
      </trkpt>
      <trkpt lat="49.88936" lon="5.24759">
        <ele>485</ele>
        <time>2015-02-24T11:23:28Z</time>
      </trkpt>
      <trkpt lat="49.8893" lon="5.24754">
        <ele>485</ele>
        <time>2015-02-24T11:23:33Z</time>
      </trkpt>
      <trkpt lat="49.88923" lon="5.24748">
        <ele>486</ele>
        <time>2015-02-24T11:23:39Z</time>
      </trkpt>
      <trkpt lat="49.88918" lon="5.24743">
        <ele>486</ele>
        <time>2015-02-24T11:23:44Z</time>
      </trkpt>
      <trkpt lat="49.88911" lon="5.24737">
        <ele>485</ele>
        <time>2015-02-24T11:23:50Z</time>
      </trkpt>
      <trkpt lat="49.88904" lon="5.24731">
        <ele>485</ele>
        <time>2015-02-24T11:23:55Z</time>
      </trkpt>
      <trkpt lat="49.88897" lon="5.24725">
        <ele>485</ele>
        <time>2015-02-24T11:24:01Z</time>
      </trkpt>
      <trkpt lat="49.8889" lon="5.24719">
        <ele>485</ele>
        <time>2015-02-24T11:24:07Z</time>
      </trkpt>
      <trkpt lat="49.88882" lon="5.24713">
        <ele>485</ele>
        <time>2015-02-24T11:24:13Z</time>
      </trkpt>
      <trkpt lat="49.88875" lon="5.24707">
        <ele>485</ele>
        <time>2015-02-24T11:24:19Z</time>
      </trkpt>
      <trkpt lat="49.8887" lon="5.24702">
        <ele>485</ele>
        <time>2015-02-24T11:24:24Z</time>
      </trkpt>
      <trkpt lat="49.88865" lon="5.24697">
        <ele>485</ele>
        <time>2015-02-24T11:24:30Z</time>
      </trkpt>
      <trkpt lat="49.88861" lon="5.24693">
        <ele>484</ele>
        <time>2015-02-24T11:24:36Z</time>
      </trkpt>
      <trkpt lat="49.88855" lon="5.24688">
        <ele>484</ele>
        <time>2015-02-24T11:24:42Z</time>
      </trkpt>
      <trkpt lat="49.88847" lon="5.24682">
        <ele>484</ele>
        <time>2015-02-24T11:24:48Z</time>
      </trkpt>
      <trkpt lat="49.88842" lon="5.24677">
        <ele>483</ele>
        <time>2015-02-24T11:24:53Z</time>
      </trkpt>
      <trkpt lat="49.88834" lon="5.2467">
        <ele>483</ele>
        <time>2015-02-24T11:24:59Z</time>
      </trkpt>
      <trkpt lat="49.88827" lon="5.24664">
        <ele>483</ele>
        <time>2015-02-24T11:25:05Z</time>
      </trkpt>
      <trkpt lat="49.8882" lon="5.24658">
        <ele>483</ele>
        <time>2015-02-24T11:25:11Z</time>
      </trkpt>
      <trkpt lat="49.88814" lon="5.24653">
        <ele>482</ele>
        <time>2015-02-24T11:25:16Z</time>
      </trkpt>
      <trkpt lat="49.88807" lon="5.24647">
        <ele>482</ele>
        <time>2015-02-24T11:25:22Z</time>
      </trkpt>
      <trkpt lat="49.88801" lon="5.24641">
        <ele>482</ele>
        <time>2015-02-24T11:25:27Z</time>
      </trkpt>
      <trkpt lat="49.88795" lon="5.24636">
        <ele>481</ele>
        <time>2015-02-24T11:25:32Z</time>
      </trkpt>
      <trkpt lat="49.88787" lon="5.2463">
        <ele>480</ele>
        <time>2015-02-24T11:25:38Z</time>
      </trkpt>
      <trkpt lat="49.88781" lon="5.24624">
        <ele>480</ele>
        <time>2015-02-24T11:25:44Z</time>
      </trkpt>
      <trkpt lat="49.88774" lon="5.24618">
        <ele>480</ele>
        <time>2015-02-24T11:25:50Z</time>
      </trkpt>
      <trkpt lat="49.88768" lon="5.24613">
        <ele>479</ele>
        <time>2015-02-24T11:25:55Z</time>
      </trkpt>
      <trkpt lat="49.88761" lon="5.24607">
        <ele>479</ele>
        <time>2015-02-24T11:26:01Z</time>
      </trkpt>
      <trkpt lat="49.88754" lon="5.24601">
        <ele>478</ele>
        <time>2015-02-24T11:26:07Z</time>
      </trkpt>
      <trkpt lat="49.88749" lon="5.24596">
        <ele>478</ele>
        <time>2015-02-24T11:26:12Z</time>
      </trkpt>
      <trkpt lat="49.88742" lon="5.2459">
        <ele>477</ele>
        <time>2015-02-24T11:26:18Z</time>
      </trkpt>
      <trkpt lat="49.88734" lon="5.24583">
        <ele>477</ele>
        <time>2015-02-24T11:26:24Z</time>
      </trkpt>
      <trkpt lat="49.88727" lon="5.24578">
        <ele>477</ele>
        <time>2015-02-24T11:26:30Z</time>
      </trkpt>
      <trkpt lat="49.88721" lon="5.24572">
        <ele>476</ele>
        <time>2015-02-24T11:26:35Z</time>
      </trkpt>
      <trkpt lat="49.88716" lon="5.24567">
        <ele>476</ele>
        <time>2015-02-24T11:26:40Z</time>
      </trkpt>
      <trkpt lat="49.8871" lon="5.24561">
        <ele>475</ele>
        <time>2015-02-24T11:26:45Z</time>
      </trkpt>
      <trkpt lat="49.88703" lon="5.24555">
        <ele>475</ele>
        <time>2015-02-24T11:26:51Z</time>
      </trkpt>
      <trkpt lat="49.88697" lon="5.2455">
        <ele>475</ele>
        <time>2015-02-24T11:26:56Z</time>
      </trkpt>
      <trkpt lat="49.88691" lon="5.24546">
        <ele>475</ele>
        <time>2015-02-24T11:27:01Z</time>
      </trkpt>
      <trkpt lat="49.88684" lon="5.2454">
        <ele>475</ele>
        <time>2015-02-24T11:27:07Z</time>
      </trkpt>
      <trkpt lat="49.88679" lon="5.24535">
        <ele>474</ele>
        <time>2015-02-24T11:27:12Z</time>
      </trkpt>
      <trkpt lat="49.88673" lon="5.2453">
        <ele>475</ele>
        <time>2015-02-24T11:27:17Z</time>
      </trkpt>
      <trkpt lat="49.88667" lon="5.24524">
        <ele>474</ele>
        <time>2015-02-24T11:27:22Z</time>
      </trkpt>
      <trkpt lat="49.88659" lon="5.24518">
        <ele>474</ele>
        <time>2015-02-24T11:27:28Z</time>
      </trkpt>
      <trkpt lat="49.88652" lon="5.24512">
        <ele>474</ele>
        <time>2015-02-24T11:27:34Z</time>
      </trkpt>
      <trkpt lat="49.88646" lon="5.24505">
        <ele>474</ele>
        <time>2015-02-24T11:27:39Z</time>
      </trkpt>
      <trkpt lat="49.88641" lon="5.24496">
        <ele>474</ele>
        <time>2015-02-24T11:27:45Z</time>
      </trkpt>
      <trkpt lat="49.88637" lon="5.24486">
        <ele>475</ele>
        <time>2015-02-24T11:27:51Z</time>
      </trkpt>
      <trkpt lat="49.88633" lon="5.24477">
        <ele>474</ele>
        <time>2015-02-24T11:27:56Z</time>
      </trkpt>
      <trkpt lat="49.88629" lon="5.24471">
        <ele>474</ele>
        <time>2015-02-24T11:28:01Z</time>
      </trkpt>
      <trkpt lat="49.88624" lon="5.24461">
        <ele>474</ele>
        <time>2015-02-24T11:28:07Z</time>
      </trkpt>
      <trkpt lat="49.88619" lon="5.24452">
        <ele>474</ele>
        <time>2015-02-24T11:28:13Z</time>
      </trkpt>
      <trkpt lat="49.88614" lon="5.24445">
        <ele>473</ele>
        <time>2015-02-24T11:28:18Z</time>
      </trkpt>
      <trkpt lat="49.88609" lon="5.24436">
        <ele>473</ele>
        <time>2015-02-24T11:28:24Z</time>
      </trkpt>
      <trkpt lat="49.88603" lon="5.24428">
        <ele>474</ele>
        <time>2015-02-24T11:28:30Z</time>
      </trkpt>
      <trkpt lat="49.88598" lon="5.2442">
        <ele>474</ele>
        <time>2015-02-24T11:28:35Z</time>
      </trkpt>
      <trkpt lat="49.88593" lon="5.24412">
        <ele>473</ele>
        <time>2015-02-24T11:28:41Z</time>
      </trkpt>
      <trkpt lat="49.88588" lon="5.24407">
        <ele>474</ele>
        <time>2015-02-24T11:28:46Z</time>
      </trkpt>
      <trkpt lat="49.88585" lon="5.24405">
        <ele>474</ele>
        <time>2015-02-24T11:28:52Z</time>
      </trkpt>
      <trkpt lat="49.88581" lon="5.24401">
        <ele>474</ele>
        <time>2015-02-24T11:28:58Z</time>
      </trkpt>
      <trkpt lat="49.88578" lon="5.24397">
        <ele>474</ele>
        <time>2015-02-24T11:29:03Z</time>
      </trkpt>
      <trkpt lat="49.88574" lon="5.2439">
        <ele>474</ele>
        <time>2015-02-24T11:29:09Z</time>
      </trkpt>
      <trkpt lat="49.8857" lon="5.24382">
        <ele>473</ele>
        <time>2015-02-24T11:29:15Z</time>
      </trkpt>
      <trkpt lat="49.88567" lon="5.24376">
        <ele>474</ele>
        <time>2015-02-24T11:29:20Z</time>
      </trkpt>
      <trkpt lat="49.88564" lon="5.24369">
        <ele>474</ele>
        <time>2015-02-24T11:29:26Z</time>
      </trkpt>
      <trkpt lat="49.8856" lon="5.24363">
        <ele>473</ele>
        <time>2015-02-24T11:29:31Z</time>
      </trkpt>
      <trkpt lat="49.88555" lon="5.24356">
        <ele>474</ele>
        <time>2015-02-24T11:29:37Z</time>
      </trkpt>
      <trkpt lat="49.8855" lon="5.24348">
        <ele>474</ele>
        <time>2015-02-24T11:29:43Z</time>
      </trkpt>
      <trkpt lat="49.88546" lon="5.24341">
        <ele>474</ele>
        <time>2015-02-24T11:29:48Z</time>
      </trkpt>
      <trkpt lat="49.88541" lon="5.24331">
        <ele>474</ele>
        <time>2015-02-24T11:29:54Z</time>
      </trkpt>
      <trkpt lat="49.88536" lon="5.24322">
        <ele>474</ele>
        <time>2015-02-24T11:30:00Z</time>
      </trkpt>
      <trkpt lat="49.88531" lon="5.24315">
        <ele>473</ele>
        <time>2015-02-24T11:30:06Z</time>
      </trkpt>
      <trkpt lat="49.88527" lon="5.24306">
        <ele>474</ele>
        <time>2015-02-24T11:30:12Z</time>
      </trkpt>
      <trkpt lat="49.88524" lon="5.24299">
        <ele>473</ele>
        <time>2015-02-24T11:30:17Z</time>
      </trkpt>
      <trkpt lat="49.8852" lon="5.24292">
        <ele>474</ele>
        <time>2015-02-24T11:30:22Z</time>
      </trkpt>
      <trkpt lat="49.88516" lon="5.24283">
        <ele>474</ele>
        <time>2015-02-24T11:30:27Z</time>
      </trkpt>
      <trkpt lat="49.88512" lon="5.24276">
        <ele>474</ele>
        <time>2015-02-24T11:30:33Z</time>
      </trkpt>
      <trkpt lat="49.88509" lon="5.24269">
        <ele>474</ele>
        <time>2015-02-24T11:30:38Z</time>
      </trkpt>
      <trkpt lat="49.88506" lon="5.24263">
        <ele>474</ele>
        <time>2015-02-24T11:30:43Z</time>
      </trkpt>
      <trkpt lat="49.88503" lon="5.24254">
        <ele>474</ele>
        <time>2015-02-24T11:30:49Z</time>
      </trkpt>
      <trkpt lat="49.88499" lon="5.24245">
        <ele>474</ele>
        <time>2015-02-24T11:30:54Z</time>
      </trkpt>
      <trkpt lat="49.88496" lon="5.24236">
        <ele>474</ele>
        <time>2015-02-24T11:30:59Z</time>
      </trkpt>
      <trkpt lat="49.88493" lon="5.24229">
        <ele>474</ele>
        <time>2015-02-24T11:31:04Z</time>
      </trkpt>
      <trkpt lat="49.8849" lon="5.24218">
        <ele>473</ele>
        <time>2015-02-24T11:31:10Z</time>
      </trkpt>
      <trkpt lat="49.88486" lon="5.2421">
        <ele>474</ele>
        <time>2015-02-24T11:31:15Z</time>
      </trkpt>
      <trkpt lat="49.88482" lon="5.242">
        <ele>474</ele>
        <time>2015-02-24T11:31:21Z</time>
      </trkpt>
      <trkpt lat="49.88479" lon="5.24192">
        <ele>473</ele>
        <time>2015-02-24T11:31:26Z</time>
      </trkpt>
      <trkpt lat="49.88477" lon="5.24184">
        <ele>474</ele>
        <time>2015-02-24T11:31:32Z</time>
      </trkpt>
      <trkpt lat="49.88474" lon="5.24178">
        <ele>474</ele>
        <time>2015-02-24T11:31:38Z</time>
      </trkpt>
      <trkpt lat="49.88472" lon="5.24171">
        <ele>473</ele>
        <time>2015-02-24T11:31:43Z</time>
      </trkpt>
      <trkpt lat="49.88468" lon="5.24163">
        <ele>474</ele>
        <time>2015-02-24T11:31:49Z</time>
      </trkpt>
      <trkpt lat="49.88464" lon="5.24156">
        <ele>473</ele>
        <time>2015-02-24T11:31:55Z</time>
      </trkpt>
      <trkpt lat="49.88461" lon="5.24149">
        <ele>473</ele>
        <time>2015-02-24T11:32:00Z</time>
      </trkpt>
      <trkpt lat="49.88458" lon="5.24142">
        <ele>473</ele>
        <time>2015-02-24T11:32:05Z</time>
      </trkpt>
      <trkpt lat="49.88455" lon="5.24135">
        <ele>473</ele>
        <time>2015-02-24T11:32:10Z</time>
      </trkpt>
      <trkpt lat="49.88451" lon="5.24126">
        <ele>473</ele>
        <time>2015-02-24T11:32:16Z</time>
      </trkpt>
      <trkpt lat="49.88448" lon="5.24117">
        <ele>474</ele>
        <time>2015-02-24T11:32:21Z</time>
      </trkpt>
      <trkpt lat="49.88445" lon="5.24108">
        <ele>474</ele>
        <time>2015-02-24T11:32:26Z</time>
      </trkpt>
      <trkpt lat="49.88441" lon="5.24098">
        <ele>474</ele>
        <time>2015-02-24T11:32:32Z</time>
      </trkpt>
      <trkpt lat="49.88438" lon="5.2409">
        <ele>473</ele>
        <time>2015-02-24T11:32:37Z</time>
      </trkpt>
      <trkpt lat="49.88435" lon="5.24082">
        <ele>474</ele>
        <time>2015-02-24T11:32:43Z</time>
      </trkpt>
      <trkpt lat="49.88431" lon="5.24075">
        <ele>474</ele>
        <time>2015-02-24T11:32:48Z</time>
      </trkpt>
      <trkpt lat="49.88428" lon="5.2407">
        <ele>474</ele>
        <time>2015-02-24T11:32:54Z</time>
      </trkpt>
      <trkpt lat="49.88425" lon="5.24062">
        <ele>473</ele>
        <time>2015-02-24T11:33:00Z</time>
      </trkpt>
      <trkpt lat="49.88422" lon="5.24055">
        <ele>473</ele>
        <time>2015-02-24T11:33:05Z</time>
      </trkpt>
      <trkpt lat="49.88419" lon="5.24047">
        <ele>473</ele>
        <time>2015-02-24T11:33:11Z</time>
      </trkpt>
      <trkpt lat="49.88417" lon="5.24039">
        <ele>473</ele>
        <time>2015-02-24T11:33:16Z</time>
      </trkpt>
      <trkpt lat="49.88414" lon="5.2403">
        <ele>473</ele>
        <time>2015-02-24T11:33:22Z</time>
      </trkpt>
      <trkpt lat="49.8841" lon="5.24022">
        <ele>474</ele>
        <time>2015-02-24T11:33:27Z</time>
      </trkpt>
      <trkpt lat="49.88406" lon="5.24013">
        <ele>473</ele>
        <time>2015-02-24T11:33:33Z</time>
      </trkpt>
      <trkpt lat="49.88404" lon="5.24005">
        <ele>474</ele>
        <time>2015-02-24T11:33:38Z</time>
      </trkpt>
      <trkpt lat="49.88402" lon="5.23999">
        <ele>473</ele>
        <time>2015-02-24T11:33:43Z</time>
      </trkpt>
      <trkpt lat="49.884" lon="5.2399">
        <ele>473</ele>
        <time>2015-02-24T11:33:48Z</time>
      </trkpt>
      <trkpt lat="49.88398" lon="5.23981">
        <ele>474</ele>
        <time>2015-02-24T11:33:53Z</time>
      </trkpt>
      <trkpt lat="49.88396" lon="5.23972">
        <ele>473</ele>
        <time>2015-02-24T11:33:59Z</time>
      </trkpt>
      <trkpt lat="49.88395" lon="5.23964">
        <ele>473</ele>
        <time>2015-02-24T11:34:05Z</time>
      </trkpt>
      <trkpt lat="49.88393" lon="5.23957">
        <ele>473</ele>
        <time>2015-02-24T11:34:11Z</time>
      </trkpt>
      <trkpt lat="49.88391" lon="5.23949">
        <ele>473</ele>
        <time>2015-02-24T11:34:16Z</time>
      </trkpt>
      <trkpt lat="49.8839" lon="5.23941">
        <ele>473</ele>
        <time>2015-02-24T11:34:22Z</time>
      </trkpt>
      <trkpt lat="49.88387" lon="5.23933">
        <ele>473</ele>
        <time>2015-02-24T11:34:28Z</time>
      </trkpt>
      <trkpt lat="49.88385" lon="5.23924">
        <ele>473</ele>
        <time>2015-02-24T11:34:33Z</time>
      </trkpt>
      <trkpt lat="49.88382" lon="5.23914">
        <ele>473</ele>
        <time>2015-02-24T11:34:39Z</time>
      </trkpt>
      <trkpt lat="49.88379" lon="5.23906">
        <ele>473</ele>
        <time>2015-02-24T11:34:45Z</time>
      </trkpt>
      <trkpt lat="49.88376" lon="5.23897">
        <ele>473</ele>
        <time>2015-02-24T11:34:51Z</time>
      </trkpt>
      <trkpt lat="49.88374" lon="5.2389">
        <ele>473</ele>
        <time>2015-02-24T11:34:56Z</time>
      </trkpt>
      <trkpt lat="49.88373" lon="5.23884">
        <ele>473</ele>
        <time>2015-02-24T11:35:01Z</time>
      </trkpt>
      <trkpt lat="49.88369" lon="5.23874">
        <ele>473</ele>
        <time>2015-02-24T11:35:07Z</time>
      </trkpt>
      <trkpt lat="49.88366" lon="5.23864">
        <ele>473</ele>
        <time>2015-02-24T11:35:13Z</time>
      </trkpt>
      <trkpt lat="49.88364" lon="5.23857">
        <ele>473</ele>
        <time>2015-02-24T11:35:18Z</time>
      </trkpt>
      <trkpt lat="49.88361" lon="5.2385">
        <ele>473</ele>
        <time>2015-02-24T11:35:23Z</time>
      </trkpt>
      <trkpt lat="49.88356" lon="5.23842">
        <ele>473</ele>
        <time>2015-02-24T11:35:28Z</time>
      </trkpt>
      <trkpt lat="49.88352" lon="5.23835">
        <ele>473</ele>
        <time>2015-02-24T11:35:33Z</time>
      </trkpt>
      <trkpt lat="49.88346" lon="5.23826">
        <ele>473</ele>
        <time>2015-02-24T11:35:39Z</time>
      </trkpt>
      <trkpt lat="49.88343" lon="5.23819">
        <ele>473</ele>
        <time>2015-02-24T11:35:44Z</time>
      </trkpt>
      <trkpt lat="49.88339" lon="5.23813">
        <ele>472</ele>
        <time>2015-02-24T11:35:49Z</time>
      </trkpt>
      <trkpt lat="49.88333" lon="5.23805">
        <ele>472</ele>
        <time>2015-02-24T11:35:55Z</time>
      </trkpt>
      <trkpt lat="49.88327" lon="5.23797">
        <ele>473</ele>
        <time>2015-02-24T11:36:01Z</time>
      </trkpt>
      <trkpt lat="49.88322" lon="5.2379">
        <ele>473</ele>
        <time>2015-02-24T11:36:06Z</time>
      </trkpt>
      <trkpt lat="49.88316" lon="5.23782">
        <ele>472</ele>
        <time>2015-02-24T11:36:12Z</time>
      </trkpt>
      <trkpt lat="49.88312" lon="5.23778">
        <ele>472</ele>
        <time>2015-02-24T11:36:17Z</time>
      </trkpt>
      <trkpt lat="49.88307" lon="5.23772">
        <ele>472</ele>
        <time>2015-02-24T11:36:23Z</time>
      </trkpt>
      <trkpt lat="49.88302" lon="5.23767">
        <ele>472</ele>
        <time>2015-02-24T11:36:28Z</time>
      </trkpt>
      <trkpt lat="49.88297" lon="5.23763">
        <ele>472</ele>
        <time>2015-02-24T11:36:33Z</time>
      </trkpt>
      <trkpt lat="49.88293" lon="5.23758">
        <ele>472</ele>
        <time>2015-02-24T11:36:38Z</time>
      </trkpt>
      <trkpt lat="49.8829" lon="5.23754">
        <ele>472</ele>
        <time>2015-02-24T11:36:44Z</time>
      </trkpt>
      <trkpt lat="49.88287" lon="5.2375">
        <ele>472</ele>
        <time>2015-02-24T11:36:49Z</time>
      </trkpt>
      <trkpt lat="49.88282" lon="5.23747">
        <ele>473</ele>
        <time>2015-02-24T11:36:54Z</time>
      </trkpt>
      <trkpt lat="49.88277" lon="5.23742">
        <ele>472</ele>
        <time>2015-02-24T11:37:00Z</time>
      </trkpt>
      <trkpt lat="49.8827" lon="5.23741">
        <ele>472</ele>
        <time>2015-02-24T11:37:05Z</time>
      </trkpt>
      <trkpt lat="49.88264" lon="5.23738">
        <ele>472</ele>
        <time>2015-02-24T11:37:11Z</time>
      </trkpt>
      <trkpt lat="49.88258" lon="5.23737">
        <ele>472</ele>
        <time>2015-02-24T11:37:17Z</time>
      </trkpt>
      <trkpt lat="49.88253" lon="5.23736">
        <ele>472</ele>
        <time>2015-02-24T11:37:23Z</time>
      </trkpt>
      <trkpt lat="49.88248" lon="5.23736">
        <ele>472</ele>
        <time>2015-02-24T11:37:28Z</time>
      </trkpt>
      <trkpt lat="49.88244" lon="5.23735">
        <ele>472</ele>
        <time>2015-02-24T11:37:33Z</time>
      </trkpt>
      <trkpt lat="49.8824" lon="5.23733">
        <ele>472</ele>
        <time>2015-02-24T11:37:39Z</time>
      </trkpt>
      <trkpt lat="49.88235" lon="5.23732">
        <ele>472</ele>
        <time>2015-02-24T11:37:45Z</time>
      </trkpt>
      <trkpt lat="49.88229" lon="5.23731">
        <ele>472</ele>
        <time>2015-02-24T11:37:51Z</time>
      </trkpt>
      <trkpt lat="49.88224" lon="5.2373">
        <ele>472</ele>
        <time>2015-02-24T11:37:56Z</time>
      </trkpt>
      <trkpt lat="49.8822" lon="5.23731">
        <ele>472</ele>
        <time>2015-02-24T11:38:01Z</time>
      </trkpt>
      <trkpt lat="49.88218" lon="5.23731">
        <ele>472</ele>
        <time>2015-02-24T11:38:07Z</time>
      </trkpt>
      <trkpt lat="49.88213" lon="5.23729">
        <ele>472</ele>
        <time>2015-02-24T11:38:13Z</time>
      </trkpt>
      <trkpt lat="49.88207" lon="5.23729">
        <ele>472</ele>
        <time>2015-02-24T11:38:19Z</time>
      </trkpt>
      <trkpt lat="49.88203" lon="5.23727">
        <ele>472</ele>
        <time>2015-02-24T11:38:24Z</time>
      </trkpt>
      <trkpt lat="49.882" lon="5.23726">
        <ele>472</ele>
        <time>2015-02-24T11:38:29Z</time>
      </trkpt>
      <trkpt lat="49.88195" lon="5.23724">
        <ele>472</ele>
        <time>2015-02-24T11:38:35Z</time>
      </trkpt>
      <trkpt lat="49.88191" lon="5.23722">
        <ele>472</ele>
        <time>2015-02-24T11:38:40Z</time>
      </trkpt>
      <trkpt lat="49.88186" lon="5.2372">
        <ele>472</ele>
        <time>2015-02-24T11:38:46Z</time>
      </trkpt>
      <trkpt lat="49.88184" lon="5.2372">
        <ele>472</ele>
        <time>2015-02-24T11:38:52Z</time>
      </trkpt>
      <trkpt lat="49.88179" lon="5.23718">
        <ele>472</ele>
        <time>2015-02-24T11:38:58Z</time>
      </trkpt>
      <trkpt lat="49.88174" lon="5.23715">
        <ele>471</ele>
        <time>2015-02-24T11:39:03Z</time>
      </trkpt>
      <trkpt lat="49.88168" lon="5.23712">
        <ele>472</ele>
        <time>2015-02-24T11:39:09Z</time>
      </trkpt>
      <trkpt lat="49.88162" lon="5.23709">
        <ele>471</ele>
        <time>2015-02-24T11:39:14Z</time>
      </trkpt>
      <trkpt lat="49.88157" lon="5.23706">
        <ele>472</ele>
        <time>2015-02-24T11:39:20Z</time>
      </trkpt>
      <trkpt lat="49.88154" lon="5.23706">
        <ele>472</ele>
        <time>2015-02-24T11:39:26Z</time>
      </trkpt>
      <trkpt lat="49.88152" lon="5.23706">
        <ele>471</ele>
        <time>2015-02-24T11:39:31Z</time>
      </trkpt>
      <trkpt lat="49.88149" lon="5.23704">
        <ele>471</ele>
        <time>2015-02-24T11:39:37Z</time>
      </trkpt>
      <trkpt lat="49.88147" lon="5.23703">
        <ele>471</ele>
        <time>2015-02-24T11:39:42Z</time>
      </trkpt>
      <trkpt lat="49.88142" lon="5.237">
        <ele>471</ele>
        <time>2015-02-24T11:39:48Z</time>
      </trkpt>
      <trkpt lat="49.88139" lon="5.23699">
        <ele>471</ele>
        <time>2015-02-24T11:39:54Z</time>
      </trkpt>
      <trkpt lat="49.88135" lon="5.23698">
        <ele>471</ele>
        <time>2015-02-24T11:39:59Z</time>
      </trkpt>
      <trkpt lat="49.8813" lon="5.23696">
        <ele>471</ele>
        <time>2015-02-24T11:40:05Z</time>
      </trkpt>
      <trkpt lat="49.88126" lon="5.23695">
        <ele>471</ele>
        <time>2015-02-24T11:40:10Z</time>
      </trkpt>
      <trkpt lat="49.88122" lon="5.23693">
        <ele>471</ele>
        <time>2015-02-24T11:40:15Z</time>
      </trkpt>
      <trkpt lat="49.88116" lon="5.2369">
        <ele>471</ele>
        <time>2015-02-24T11:40:21Z</time>
      </trkpt>
      <trkpt lat="49.88113" lon="5.23688">
        <ele>470</ele>
        <time>2015-02-24T11:40:26Z</time>
      </trkpt>
      <trkpt lat="49.8811" lon="5.23686">
        <ele>471</ele>
        <time>2015-02-24T11:40:31Z</time>
      </trkpt>
      <trkpt lat="49.88103" lon="5.23681">
        <ele>471</ele>
        <time>2015-02-24T11:40:37Z</time>
      </trkpt>
      <trkpt lat="49.88097" lon="5.23678">
        <ele>470</ele>
        <time>2015-02-24T11:40:43Z</time>
      </trkpt>
      <trkpt lat="49.88092" lon="5.23673">
        <ele>471</ele>
        <time>2015-02-24T11:40:49Z</time>
      </trkpt>
      <trkpt lat="49.88087" lon="5.23669">
        <ele>471</ele>
        <time>2015-02-24T11:40:54Z</time>
      </trkpt>
      <trkpt lat="49.88082" lon="5.23662">
        <ele>470</ele>
        <time>2015-02-24T11:41:00Z</time>
      </trkpt>
      <trkpt lat="49.88078" lon="5.23656">
        <ele>471</ele>
        <time>2015-02-24T11:41:05Z</time>
      </trkpt>
      <trkpt lat="49.88073" lon="5.23649">
        <ele>471</ele>
        <time>2015-02-24T11:41:10Z</time>
      </trkpt>
      <trkpt lat="49.88068" lon="5.23642">
        <ele>470</ele>
        <time>2015-02-24T11:41:16Z</time>
      </trkpt>
      <trkpt lat="49.88063" lon="5.23637">
        <ele>470</ele>
        <time>2015-02-24T11:41:21Z</time>
      </trkpt>
      <trkpt lat="49.88059" lon="5.23632">
        <ele>470</ele>
        <time>2015-02-24T11:41:26Z</time>
      </trkpt>
      <trkpt lat="49.88054" lon="5.23627">
        <ele>470</ele>
        <time>2015-02-24T11:41:32Z</time>
      </trkpt>
      <trkpt lat="49.88049" lon="5.23627">
        <ele>471</ele>
        <time>2015-02-24T11:41:37Z</time>
      </trkpt>
      <trkpt lat="49.88044" lon="5.23632">
        <ele>471</ele>
        <time>2015-02-24T11:41:43Z</time>
      </trkpt>
      <trkpt lat="49.88041" lon="5.23637">
        <ele>471</ele>
        <time>2015-02-24T11:41:48Z</time>
      </trkpt>
      <trkpt lat="49.88038" lon="5.23643">
        <ele>471</ele>
        <time>2015-02-24T11:41:53Z</time>
      </trkpt>
      <trkpt lat="49.88034" lon="5.23651">
        <ele>471</ele>
        <time>2015-02-24T11:41:59Z</time>
      </trkpt>
      <trkpt lat="49.88031" lon="5.23657">
        <ele>472</ele>
        <time>2015-02-24T11:42:04Z</time>
      </trkpt>
      <trkpt lat="49.88027" lon="5.23664">
        <ele>472</ele>
        <time>2015-02-24T11:42:09Z</time>
      </trkpt>
      <trkpt lat="49.88023" lon="5.23672">
        <ele>473</ele>
        <time>2015-02-24T11:42:15Z</time>
      </trkpt>
      <trkpt lat="49.88018" lon="5.2368">
        <ele>473</ele>
        <time>2015-02-24T11:42:21Z</time>
      </trkpt>
      <trkpt lat="49.88013" lon="5.23691">
        <ele>474</ele>
        <time>2015-02-24T11:42:27Z</time>
      </trkpt>
      <trkpt lat="49.88007" lon="5.23701">
        <ele>473</ele>
        <time>2015-02-24T11:42:33Z</time>
      </trkpt>
      <trkpt lat="49.88002" lon="5.23711">
        <ele>474</ele>
        <time>2015-02-24T11:42:39Z</time>
      </trkpt>
      <trkpt lat="49.87998" lon="5.23719">
        <ele>474</ele>
        <time>2015-02-24T11:42:44Z</time>
      </trkpt>
      <trkpt lat="49.87994" lon="5.23728">
        <ele>475</ele>
        <time>2015-02-24T11:42:50Z</time>
      </trkpt>
      <trkpt lat="49.8799" lon="5.23736">
        <ele>475</ele>
        <time>2015-02-24T11:42:55Z</time>
      </trkpt>
      <trkpt lat="49.87986" lon="5.23743">
        <ele>475</ele>
        <time>2015-02-24T11:43:00Z</time>
      </trkpt>
      <trkpt lat="49.87981" lon="5.23753">
        <ele>475</ele>
        <time>2015-02-24T11:43:06Z</time>
      </trkpt>
      <trkpt lat="49.87977" lon="5.23764">
        <ele>475</ele>
        <time>2015-02-24T11:43:12Z</time>
      </trkpt>
      <trkpt lat="49.87973" lon="5.23775">
        <ele>476</ele>
        <time>2015-02-24T11:43:18Z</time>
      </trkpt>
      <trkpt lat="49.87969" lon="5.23787">
        <ele>476</ele>
        <time>2015-02-24T11:43:24Z</time>
      </trkpt>
      <trkpt lat="49.87965" lon="5.238">
        <ele>476</ele>
        <time>2015-02-24T11:43:30Z</time>
      </trkpt>
      <trkpt lat="49.87962" lon="5.23809">
        <ele>476</ele>
        <time>2015-02-24T11:43:35Z</time>
      </trkpt>
      <trkpt lat="49.87959" lon="5.23819">
        <ele>477</ele>
        <time>2015-02-24T11:43:40Z</time>
      </trkpt>
      <trkpt lat="49.87957" lon="5.23829">
        <ele>476</ele>
        <time>2015-02-24T11:43:45Z</time>
      </trkpt>
      <trkpt lat="49.87955" lon="5.23841">
        <ele>476</ele>
        <time>2015-02-24T11:43:51Z</time>
      </trkpt>
      <trkpt lat="49.87954" lon="5.23848">
        <ele>476</ele>
        <time>2015-02-24T11:43:56Z</time>
      </trkpt>
      <trkpt lat="49.87952" lon="5.23856">
        <ele>476</ele>
        <time>2015-02-24T11:44:01Z</time>
      </trkpt>
      <trkpt lat="49.8795" lon="5.23865">
        <ele>476</ele>
        <time>2015-02-24T11:44:06Z</time>
      </trkpt>
      <trkpt lat="49.87947" lon="5.23876">
        <ele>476</ele>
        <time>2015-02-24T11:44:12Z</time>
      </trkpt>
      <trkpt lat="49.87944" lon="5.23886">
        <ele>477</ele>
        <time>2015-02-24T11:44:18Z</time>
      </trkpt>
      <trkpt lat="49.87941" lon="5.23894">
        <ele>477</ele>
        <time>2015-02-24T11:44:23Z</time>
      </trkpt>
      <trkpt lat="49.87939" lon="5.23902">
        <ele>477</ele>
        <time>2015-02-24T11:44:28Z</time>
      </trkpt>
      <trkpt lat="49.87936" lon="5.23911">
        <ele>477</ele>
        <time>2015-02-24T11:44:33Z</time>
      </trkpt>
      <trkpt lat="49.87933" lon="5.23919">
        <ele>477</ele>
        <time>2015-02-24T11:44:38Z</time>
      </trkpt>
      <trkpt lat="49.8793" lon="5.2393">
        <ele>478</ele>
        <time>2015-02-24T11:44:44Z</time>
      </trkpt>
      <trkpt lat="49.87928" lon="5.23939">
        <ele>477</ele>
        <time>2015-02-24T11:44:50Z</time>
      </trkpt>
      <trkpt lat="49.8793" lon="5.23947">
        <ele>478</ele>
        <time>2015-02-24T11:44:55Z</time>
      </trkpt>
      <trkpt lat="49.87933" lon="5.23956">
        <ele>478</ele>
        <time>2015-02-24T11:45:01Z</time>
      </trkpt>
      <trkpt lat="49.87938" lon="5.23961">
        <ele>478</ele>
        <time>2015-02-24T11:45:07Z</time>
      </trkpt>
      <trkpt lat="49.87941" lon="5.23965">
        <ele>478</ele>
        <time>2015-02-24T11:45:12Z</time>
      </trkpt>
      <trkpt lat="49.87944" lon="5.23968">
        <ele>478</ele>
        <time>2015-02-24T11:45:17Z</time>
      </trkpt>
      <trkpt lat="49.87945" lon="5.23968">
        <ele>477</ele>
        <time>2015-02-24T11:45:23Z</time>
      </trkpt>
      <trkpt lat="49.87946" lon="5.2397">
        <ele>477</ele>
        <time>2015-02-24T11:45:29Z</time>
      </trkpt>
      <trkpt lat="49.87949" lon="5.23972">
        <ele>478</ele>
        <time>2015-02-24T11:45:35Z</time>
      </trkpt>
      <trkpt lat="49.87952" lon="5.23977">
        <ele>477</ele>
        <time>2015-02-24T11:45:40Z</time>
      </trkpt>
      <trkpt lat="49.87954" lon="5.2398">
        <ele>477</ele>
        <time>2015-02-24T11:45:46Z</time>
      </trkpt>
      <trkpt lat="49.87955" lon="5.23987">
        <ele>477</ele>
        <time>2015-02-24T11:45:51Z</time>
      </trkpt>
      <trkpt lat="49.87955" lon="5.23995">
        <ele>477</ele>
        <time>2015-02-24T11:45:57Z</time>
      </trkpt>
      <trkpt lat="49.87953" lon="5.24004">
        <ele>477</ele>
        <time>2015-02-24T11:46:03Z</time>
      </trkpt>
      <trkpt lat="49.87953" lon="5.24008">
        <ele>477</ele>
        <time>2015-02-24T11:46:09Z</time>
      </trkpt>
      <trkpt lat="49.87953" lon="5.2401">
        <ele>477</ele>
        <time>2015-02-24T11:46:15Z</time>
      </trkpt>
      <trkpt lat="49.87953" lon="5.24011">
        <ele>477</ele>
        <time>2015-02-24T11:46:20Z</time>
      </trkpt>
      <trkpt lat="49.87953" lon="5.24012">
        <ele>477</ele>
        <time>2015-02-24T11:46:25Z</time>
      </trkpt>
      <trkpt lat="49.87954" lon="5.24012">
        <ele>477</ele>
        <time>2015-02-24T11:46:32Z</time>
      </trkpt>
      <trkpt lat="49.87954" lon="5.24013">
        <ele>477</ele>
        <time>2015-02-24T11:46:38Z</time>
      </trkpt>
      <trkpt lat="49.87955" lon="5.24009">
        <ele>477</ele>
        <time>2015-02-24T11:46:43Z</time>
      </trkpt>
      <trkpt lat="49.87954" lon="5.24002">
        <ele>477</ele>
        <time>2015-02-24T11:46:49Z</time>
      </trkpt>
      <trkpt lat="49.87954" lon="5.23999">
        <ele>477</ele>
        <time>2015-02-24T11:46:55Z</time>
      </trkpt>
      <trkpt lat="49.87954" lon="5.23997">
        <ele>477</ele>
        <time>2015-02-24T11:47:00Z</time>
      </trkpt>
      <trkpt lat="49.87954" lon="5.23994">
        <ele>477</ele>
        <time>2015-02-24T11:47:05Z</time>
      </trkpt>
      <trkpt lat="49.87953" lon="5.23991">
        <ele>478</ele>
        <time>2015-02-24T11:47:10Z</time>
      </trkpt>
      <trkpt lat="49.87953" lon="5.23988">
        <ele>478</ele>
        <time>2015-02-24T11:47:16Z</time>
      </trkpt>
      <trkpt lat="49.87952" lon="5.23991">
        <ele>478</ele>
        <time>2015-02-24T11:47:21Z</time>
      </trkpt>
      <trkpt lat="49.87952" lon="5.23992">
        <ele>478</ele>
        <time>2015-02-24T11:47:26Z</time>
      </trkpt>
      <trkpt lat="49.87952" lon="5.23992">
        <ele>479</ele>
        <time>2015-02-24T11:47:32Z</time>
      </trkpt>
      <trkpt lat="49.87952" lon="5.23996">
        <ele>478</ele>
        <time>2015-02-24T11:47:37Z</time>
      </trkpt>
      <trkpt lat="49.87951" lon="5.23998">
        <ele>478</ele>
        <time>2015-02-24T11:47:43Z</time>
      </trkpt>
      <trkpt lat="49.8795" lon="5.24002">
        <ele>477</ele>
        <time>2015-02-24T11:47:48Z</time>
      </trkpt>
      <trkpt lat="49.87948" lon="5.24007">
        <ele>477</ele>
        <time>2015-02-24T11:47:53Z</time>
      </trkpt>
      <trkpt lat="49.87947" lon="5.24008">
        <ele>478</ele>
        <time>2015-02-24T11:47:59Z</time>
      </trkpt>
      <trkpt lat="49.87946" lon="5.24007">
        <ele>478</ele>
        <time>2015-02-24T11:48:04Z</time>
      </trkpt>
      <trkpt lat="49.87945" lon="5.24005">
        <ele>478</ele>
        <time>2015-02-24T11:48:10Z</time>
      </trkpt>
      <trkpt lat="49.87944" lon="5.24007">
        <ele>477</ele>
        <time>2015-02-24T11:48:15Z</time>
      </trkpt>
      <trkpt lat="49.87944" lon="5.24009">
        <ele>477</ele>
        <time>2015-02-24T11:48:21Z</time>
      </trkpt>
      <trkpt lat="49.87945" lon="5.2401">
        <ele>477</ele>
        <time>2015-02-24T11:48:22Z</time>
      </trkpt>
    </trkseg>
  </trk>
</gpx>